[[{"header":{"parameterUnit":"m.s-1","parameterCategory":1,"la1":30.6,"la2":29.2853,"lo1":-89.7004,"lo2":-87.6739,"dy":0.0162,"dx":0.0183,"nx":112,"ny":82,"refTime":"2023-03-23T06:00:00:Z","depth":0,"parameterNumber":2,"parameterNumberName":"U-component_of_WINDS"},"data":[0.0,0.0,0.0,0.0,0.0,0.0,0.0,0.0,0.0,0.0,0.0,0.0,0.0,0.0,0.0,0.0,0.0,0.0,0.0,0.0,0.0,0.0,0.0,0.0,0.0,0.0,0.0,0.0,0.0,0.0,0.0,0.0,0.0,0.0,0.0,0.0,0.0,0.0,0.0,0.0,0.0,0.0,0.0,0.0,0.0,0.0,0.0,0.0,0.0,0.0,0.0,0.0,0.0,0.0,0.0,0.0,0.0,0.0,0.0,0.0,0.0,0.0,0.0,0.0,0.0,0.0,0.0,0.0,0.0,0.0,0.0,0.0,0.0,0.0,0.0,0.0,0.0,0.0,0.0,0.0,0.0,0.0,0.0,0.0,0.0,0.0,0.0,0.0,0.0,0.0,-2.8518,-2.9702,-2.9792,-2.9792,-2.9792,-2.9792,-2.9792,-2.9792,0.0,0.0,0.0,0.0,0.0,0.0,0.0,0.0,0.0,0.0,0.0,0.0,0.0,0.0,0.0,0.0,0.0,0.0,0.0,0.0,0.0,0.0,0.0,0.0,0.0,0.0,0.0,0.0,0.0,0.0,0.0,0.0,0.0,0.0,0.0,0.0,0.0,0.0,0.0,0.0,0.0,0.0,0.0,0.0,0.0,0.0,0.0,0.0,0.0,0.0,0.0,0.0,0.0,0.0,0.0,0.0,0.0,0.0,0.0,0.0,0.0,0.0,0.0,0.0,0.0,0.0,0.0,0.0,0.0,0.0,0.0,0.0,0.0,0.0,0.0,0.0,0.0,0.0,0.0,0.0,0.0,0.0,0.0,0.0,0.0,0.0,0.0,0.0,0.0,0.0,0.0,0.0,0.0,0.0,0.0,0.0,0.0,0.0,0.0,0.0,0.0,0.0,0.0,0.0,-2.8518,-2.9702,-2.9792,-2.9792,-2.9792,-2.9792,-2.9792,-2.9792,0.0,0.0,0.0,0.0,0.0,0.0,0.0,0.0,0.0,0.0,0.0,0.0,0.0,0.0,0.0,0.0,0.0,0.0,0.0,0.0,0.0,0.0,0.0,0.0,0.0,0.0,0.0,0.0,0.0,0.0,0.0,0.0,0.0,0.0,0.0,0.0,0.0,0.0,0.0,0.0,0.0,0.0,0.0,0.0,0.0,0.0,0.0,0.0,0.0,0.0,0.0,0.0,0.0,0.0,0.0,0.0,0.0,0.0,0.0,0.0,0.0,0.0,0.0,0.0,0.0,0.0,0.0,0.0,0.0,0.0,0.0,0.0,0.0,0.0,0.0,0.0,0.0,0.0,0.0,0.0,0.0,0.0,0.0,0.0,0.0,0.0,0.0,0.0,0.0,0.0,0.0,0.0,0.0,0.0,0.0,0.0,0.0,0.0,0.0,0.0,0.0,0.0,0.0,-2.87,-2.9406,-3.0482,-3.0558,-3.0771,-3.1267,-3.1341,-3.1132,-3.0633,-3.0558,0.0,0.0,0.0,0.0,0.0,0.0,0.0,0.0,0.0,0.0,0.0,0.0,0.0,0.0,0.0,0.0,0.0,0.0,0.0,0.0,0.0,0.0,0.0,0.0,0.0,0.0,0.0,0.0,0.0,0.0,0.0,0.0,0.0,0.0,0.0,0.0,0.0,0.0,0.0,0.0,0.0,0.0,0.0,0.0,0.0,0.0,0.0,0.0,0.0,0.0,0.0,0.0,0.0,0.0,0.0,0.0,0.0,0.0,0.0,0.0,0.0,0.0,0.0,0.0,0.0,0.0,0.0,0.0,0.0,0.0,0.0,0.0,0.0,0.0,0.0,0.0,0.0,0.0,0.0,0.0,0.0,0.0,0.0,0.0,0.0,0.0,0.0,0.0,0.0,0.0,0.0,0.0,0.0,0.0,0.0,0.0,0.0,0.0,0.0,0.0,0.0,0.0,-3.0139,-3.0495,-3.1389,-3.1536,-3.1815,-3.2522,-3.2593,-3.2177,-3.1241,-3.118,0.0,0.0,0.0,0.0,0.0,0.0,0.0,0.0,0.0,0.0,0.0,0.0,0.0,0.0,0.0,0.0,0.0,0.0,0.0,0.0,0.0,0.0,0.0,0.0,0.0,0.0,0.0,0.0,0.0,0.0,0.0,0.0,0.0,0.0,0.0,0.0,0.0,0.0,0.0,0.0,0.0,0.0,0.0,0.0,0.0,0.0,0.0,0.0,0.0,0.0,0.0,0.0,0.0,0.0,0.0,0.0,0.0,0.0,0.0,0.0,0.0,0.0,0.0,0.0,0.0,0.0,0.0,0.0,0.0,0.0,0.0,0.0,0.0,0.0,0.0,0.0,0.0,0.0,0.0,0.0,0.0,0.0,0.0,0.0,0.0,0.0,0.0,0.0,0.0,0.0,0.0,0.0,0.0,0.0,0.0,0.0,0.0,0.0,0.0,0.0,0.0,0.0,-3.1106,-3.1462,-3.2393,-3.2536,-3.2522,-3.2593,-3.2593,-3.2177,-3.1241,-3.118,0.0,0.0,0.0,0.0,0.0,0.0,0.0,0.0,0.0,0.0,0.0,0.0,0.0,0.0,0.0,0.0,0.0,0.0,0.0,0.0,0.0,0.0,0.0,0.0,0.0,0.0,0.0,0.0,0.0,0.0,0.0,0.0,0.0,0.0,0.0,0.0,0.0,0.0,0.0,0.0,0.0,0.0,0.0,0.0,0.0,0.0,0.0,0.0,0.0,0.0,0.0,0.0,0.0,0.0,0.0,0.0,0.0,0.0,0.0,0.0,0.0,0.0,0.0,0.0,0.0,0.0,0.0,0.0,0.0,0.0,0.0,0.0,0.0,0.0,0.0,0.0,0.0,0.0,0.0,0.0,0.0,0.0,0.0,0.0,0.0,0.0,0.0,0.0,0.0,0.0,0.0,0.0,0.0,0.0,0.0,0.0,0.0,0.0,0.0,0.0,0.0,0.0,-3.0355,-3.0696,-3.1609,-3.2249,-3.282,-3.3449,-3.4041,-3.3754,-3.2177,0.0,0.0,0.0,0.0,0.0,0.0,0.0,0.0,0.0,0.0,0.0,0.0,0.0,0.0,0.0,0.0,0.0,0.0,0.0,0.0,0.0,0.0,0.0,0.0,0.0,0.0,0.0,0.0,0.0,0.0,0.0,0.0,0.0,0.0,0.0,0.0,0.0,0.0,0.0,0.0,0.0,0.0,0.0,0.0,0.0,0.0,0.0,0.0,0.0,0.0,0.0,0.0,0.0,0.0,0.0,0.0,0.0,0.0,0.0,0.0,0.0,0.0,0.0,0.0,0.0,0.0,0.0,0.0,0.0,0.0,0.0,0.0,0.0,0.0,0.0,0.0,0.0,0.0,0.0,0.0,0.0,0.0,0.0,0.0,0.0,0.0,0.0,0.0,0.0,0.0,0.0,0.0,0.0,0.0,0.0,0.0,0.0,0.0,0.0,0.0,0.0,0.0,-3.0216,-3.0203,-3.0633,-3.1536,-3.2249,-3.2961,-3.3945,-3.461,-3.4341,-3.2678,0.0,0.0,0.0,0.0,0.0,0.0,0.0,0.0,0.0,0.0,0.0,0.0,0.0,0.0,0.0,0.0,0.0,0.0,0.0,0.0,0.0,0.0,0.0,0.0,0.0,0.0,0.0,0.0,0.0,0.0,0.0,0.0,0.0,0.0,0.0,0.0,0.0,0.0,0.0,0.0,0.0,0.0,0.0,0.0,0.0,0.0,0.0,0.0,0.0,0.0,0.0,0.0,0.0,0.0,0.0,0.0,0.0,0.0,0.0,0.0,0.0,0.0,0.0,0.0,0.0,0.0,0.0,0.0,0.0,0.0,0.0,0.0,0.0,0.0,0.0,0.0,0.0,0.0,0.0,0.0,0.0,0.0,0.0,0.0,0.0,0.0,0.0,0.0,0.0,0.0,0.0,0.0,0.0,0.0,0.0,0.0,0.0,0.0,0.0,0.0,0.0,0.0,-3.1031,-3.118,-3.1536,-3.2464,-3.2593,-3.2961,-3.3891,-3.4027,-3.3616,0.0,0.0,0.0,0.0,0.0,0.0,0.0,0.0,0.0,0.0,0.0,0.0,0.0,0.0,0.0,0.0,0.0,0.0,0.0,0.0,0.0,0.0,0.0,0.0,0.0,0.0,0.0,0.0,0.0,0.0,0.0,0.0,0.0,0.0,0.0,0.0,0.0,0.0,0.0,0.0,0.0,0.0,0.0,0.0,0.0,0.0,0.0,0.0,0.0,0.0,0.0,0.0,0.0,0.0,0.0,0.0,0.0,0.0,0.0,0.0,0.0,0.0,0.0,0.0,0.0,0.0,0.0,0.0,0.0,0.0,0.0,0.0,0.0,0.0,0.0,0.0,0.0,0.0,0.0,0.0,0.0,0.0,0.0,0.0,0.0,0.0,0.0,0.0,0.0,0.0,0.0,0.0,0.0,0.0,0.0,0.0,0.0,0.0,0.0,0.0,0.0,0.0,0.0,-3.0216,-3.0216,-3.0355,-3.057,-3.1829,-3.2629,-3.2616,-3.4565,-3.4905,-3.289,0.0,0.0,0.0,0.0,0.0,0.0,0.0,0.0,0.0,0.0,0.0,0.0,0.0,0.0,0.0,0.0,0.0,0.0,0.0,0.0,0.0,0.0,0.0,0.0,0.0,0.0,0.0,0.0,0.0,0.0,0.0,0.0,0.0,0.0,0.0,0.0,0.0,0.0,0.0,0.0,0.0,0.0,0.0,0.0,0.0,0.0,0.0,0.0,0.0,0.0,0.0,0.0,0.0,0.0,0.0,0.0,0.0,0.0,0.0,0.0,0.0,0.0,0.0,0.0,0.0,0.0,0.0,0.0,0.0,0.0,0.0,0.0,0.0,0.0,0.0,0.0,0.0,0.0,0.0,0.0,0.0,0.0,0.0,0.0,0.0,0.0,0.0,0.0,0.0,0.0,0.0,0.0,0.0,0.0,0.0,0.0,0.0,0.0,0.0,0.0,0.0,0.0,-2.9792,-2.998,-3.0118,-3.0118,-3.1304,-3.215,-3.2277,-3.3951,-3.4559,-3.3477,0.0,0.0,0.0,0.0,0.0,0.0,0.0,0.0,0.0,0.0,0.0,0.0,0.0,0.0,0.0,0.0,0.0,0.0,0.0,0.0,0.0,0.0,0.0,0.0,0.0,0.0,0.0,0.0,0.0,0.0,0.0,0.0,0.0,0.0,0.0,0.0,0.0,0.0,0.0,0.0,0.0,0.0,0.0,0.0,0.0,0.0,0.0,0.0,0.0,0.0,0.0,0.0,0.0,0.0,0.0,0.0,0.0,0.0,0.0,0.0,0.0,0.0,0.0,0.0,0.0,0.0,0.0,0.0,0.0,0.0,0.0,0.0,0.0,0.0,0.0,0.0,0.0,0.0,0.0,0.0,0.0,0.0,0.0,0.0,0.0,0.0,0.0,0.0,0.0,0.0,0.0,0.0,0.0,0.0,0.0,0.0,0.0,0.0,0.0,0.0,0.0,0.0,-2.9867,-3.0344,-3.0683,-3.0683,-3.1191,-3.1873,-3.2672,-3.2909,-3.3378,-3.4189,0.0,0.0,0.0,0.0,0.0,0.0,0.0,0.0,0.0,0.0,0.0,0.0,0.0,0.0,0.0,0.0,0.0,0.0,0.0,0.0,0.0,0.0,0.0,0.0,0.0,0.0,0.0,0.0,0.0,0.0,0.0,0.0,0.0,0.0,0.0,0.0,0.0,0.0,0.0,0.0,0.0,0.0,0.0,0.0,0.0,0.0,0.0,0.0,0.0,0.0,0.0,0.0,0.0,0.0,0.0,0.0,0.0,0.0,0.0,0.0,-2.8758,0.0,0.0,0.0,0.0,0.0,0.0,0.0,0.0,0.0,0.0,0.0,0.0,0.0,0.0,0.0,0.0,0.0,0.0,0.0,0.0,0.0,0.0,0.0,0.0,0.0,0.0,0.0,0.0,0.0,0.0,0.0,0.0,0.0,0.0,0.0,0.0,0.0,0.0,0.0,0.0,0.0,-3.0444,-3.0896,-3.1223,-3.1223,-3.1999,-3.2471,-3.2307,-3.3834,-3.4352,-3.3482,-3.3979,0.0,0.0,0.0,0.0,0.0,0.0,0.0,0.0,0.0,0.0,0.0,0.0,0.0,0.0,0.0,0.0,0.0,0.0,0.0,0.0,0.0,0.0,0.0,0.0,0.0,0.0,0.0,0.0,0.0,0.0,0.0,0.0,0.0,0.0,0.0,0.0,0.0,0.0,0.0,0.0,0.0,0.0,0.0,0.0,0.0,0.0,0.0,0.0,0.0,0.0,0.0,0.0,0.0,0.0,0.0,0.0,0.0,0.0,0.0,0.0,-2.948,0.0,0.0,0.0,0.0,0.0,0.0,0.0,0.0,0.0,0.0,0.0,0.0,0.0,0.0,0.0,0.0,0.0,0.0,0.0,0.0,0.0,0.0,0.0,0.0,0.0,0.0,0.0,0.0,0.0,0.0,0.0,0.0,0.0,0.0,0.0,0.0,0.0,0.0,0.0,0.0,-3.0984,-3.1449,-3.1788,-3.1788,-3.2498,-3.2861,-3.2689,-3.3584,-3.4114,-3.3856,-3.3869,0.0,0.0,0.0,0.0,0.0,0.0,0.0,0.0,0.0,0.0,0.0,0.0,0.0,0.0,0.0,0.0,0.0,0.0,0.0,0.0,0.0,0.0,0.0,0.0,0.0,0.0,0.0,0.0,0.0,0.0,0.0,0.0,0.0,0.0,0.0,0.0,0.0,0.0,0.0,0.0,0.0,0.0,0.0,0.0,0.0,0.0,0.0,0.0,0.0,0.0,0.0,0.0,0.0,-3.5984,-3.6067,-3.5224,-3.491,-3.4191,-3.3313,-3.204,-3.1249,-3.0877,-3.1133,0.0,0.0,0.0,0.0,0.0,0.0,0.0,0.0,0.0,0.0,0.0,0.0,0.0,0.0,0.0,0.0,0.0,0.0,0.0,0.0,0.0,0.0,0.0,0.0,-3.2326,-3.2525,-3.0508,0.0,0.0,0.0,0.0,0.0,0.0,0.0,0.0,0.0,0.0,0.0,-3.1537,-3.2014,-3.2365,-3.2365,-3.2792,-3.3081,-3.3081,-3.3081,-3.3471,-3.4345,-3.3556,-3.3471,0.0,0.0,0.0,0.0,0.0,0.0,0.0,0.0,0.0,0.0,0.0,0.0,0.0,0.0,0.0,0.0,0.0,0.0,0.0,0.0,0.0,0.0,0.0,0.0,0.0,0.0,0.0,0.0,0.0,0.0,0.0,0.0,-2.7834,-3.0136,0.0,0.0,0.0,0.0,0.0,0.0,0.0,0.0,0.0,0.0,0.0,0.0,0.0,-3.5968,-3.6916,-3.7282,-3.7425,-3.7315,-3.7496,-3.751,-3.7357,-3.5534,-3.4581,-3.4428,-3.3288,0.0,-3.2698,-3.1653,0.0,0.0,0.0,0.0,0.0,0.0,0.0,0.0,0.0,0.0,0.0,0.0,0.0,0.0,0.0,0.0,0.0,0.0,0.0,0.0,0.0,0.0,-3.2884,-3.2884,-3.2982,-3.2982,0.0,-3.2711,-3.2884,-3.2884,-3.292,0.0,0.0,0.0,0.0,0.0,0.0,0.0,-3.2102,-3.2604,-3.2968,-3.2968,-3.3031,-3.3081,-3.3081,-3.3081,-3.3154,-3.3313,-3.3154,-3.3154,-3.3313,-3.3313,0.0,0.0,0.0,0.0,0.0,0.0,0.0,0.0,0.0,0.0,0.0,0.0,0.0,0.0,0.0,0.0,0.0,0.0,0.0,0.0,0.0,0.0,0.0,0.0,0.0,0.0,0.0,0.0,0.0,-2.7243,-2.9142,-3.0164,-3.0878,-3.1249,0.0,0.0,0.0,0.0,0.0,0.0,0.0,0.0,0.0,-3.7907,-3.8281,-3.8322,-3.8002,-3.8473,-3.8708,-3.8708,-3.8708,-3.8383,-3.7753,-3.688,-3.5775,-3.4664,-3.4191,-3.3628,-3.3081,-3.2513,-3.1865,-3.1223,0.0,0.0,0.0,0.0,-2.9954,-2.9498,-3.0226,-3.0406,-3.0406,-3.0406,0.0,0.0,0.0,0.0,0.0,0.0,0.0,0.0,0.0,0.0,-3.3081,-3.3081,-3.3081,-3.3081,-3.3081,-3.3081,-3.3081,0.0,-3.3081,-3.3081,-3.3081,0.0,0.0,0.0,0.0,-3.2704,-3.2704,-3.2918,-3.3081,-3.3081,-3.3081,-3.3081,-3.3081,-3.3081,-3.3081,-3.3081,-3.3081,-3.3081,-3.3081,-3.3081,-3.3081,0.0,0.0,0.0,0.0,0.0,0.0,0.0,0.0,0.0,0.0,0.0,0.0,0.0,0.0,0.0,0.0,0.0,0.0,0.0,0.0,0.0,0.0,0.0,0.0,0.0,0.0,0.0,0.0,-2.9322,-3.0416,-3.0833,-3.2119,-3.2664,0.0,0.0,0.0,0.0,0.0,0.0,-3.8128,-3.9498,-4.0148,-3.9895,-4.0478,-4.0272,-3.9352,-3.9354,-3.9424,-3.9424,-3.9424,-3.8943,-3.8234,-3.7919,-3.6958,-3.5453,-3.491,-3.4275,-3.3471,-3.324,-3.2513,-3.1777,-3.2698,-3.1965,-3.0418,-3.1323,-3.1134,-3.0508,-3.1412,-3.1689,-3.1689,-3.1689,-3.1689,-3.15,-3.0226,0.0,0.0,0.0,0.0,-3.1689,-3.1689,-3.2426,-3.3081,-3.3081,-3.3081,-3.3081,-3.3081,-3.3081,-3.3081,0.0,-3.3081,-3.3081,-3.3081,0.0,0.0,-3.3081,-3.3081,-3.3081,-3.3081,-3.3081,-3.3081,-3.3081,-3.3081,-3.3081,-3.3081,-3.3081,-3.3081,-3.3081,-3.3081,-3.3081,-3.3081,-3.3081,-3.3081,-3.3081,0.0,0.0,0.0,0.0,0.0,0.0,0.0,0.0,0.0,0.0,0.0,0.0,0.0,0.0,0.0,0.0,0.0,0.0,0.0,0.0,0.0,0.0,0.0,0.0,0.0,0.0,0.0,0.0,0.0,-3.3671,-3.3876,0.0,0.0,0.0,0.0,-3.5111,-3.7388,-3.9134,-3.9956,-4.072,-4.173,-4.3098,-4.165,-4.1199,-4.1805,-4.0239,-3.9424,-3.9424,-3.9424,-3.9337,-3.9265,-3.8234,-3.7753,-3.751,-3.5534,-3.4664,-3.4511,-3.3556,-3.3081,-3.2982,-3.3068,-3.2982,-3.2896,-3.2982,-3.2982,-3.2884,-3.2982,-3.2982,-3.2982,-3.2982,-3.2982,-3.2797,-3.15,-3.1965,0.0,0.0,-3.2052,-3.2982,-3.2982,-3.3068,-3.3081,-3.3081,-3.3081,-3.3081,-3.3081,-3.3081,-3.3081,0.0,-3.3081,-3.3081,-3.3081,0.0,-3.3081,-3.3081,-3.3081,-3.3081,-3.3081,-3.3081,-3.3081,-3.3081,-3.3081,-3.3081,-3.3081,-3.3081,-3.3081,-3.3081,-3.3081,-3.3081,-3.3081,-3.3081,-3.3081,-3.3081,-3.3081,0.0,0.0,0.0,0.0,0.0,0.0,0.0,0.0,0.0,0.0,0.0,0.0,0.0,0.0,0.0,0.0,0.0,0.0,0.0,0.0,0.0,0.0,0.0,0.0,0.0,0.0,0.0,0.0,-3.2249,-3.3837,0.0,-3.4794,-3.6059,-3.7298,-3.8259,-3.9591,-4.09,-4.216,-4.2462,-4.2835,-4.3323,-4.2791,-4.2011,-4.1147,-4.0569,-3.992,-3.9424,-3.9424,-3.9424,-3.9424,-3.9017,-3.8472,-3.7753,-3.6304,-3.5278,-3.4581,-3.3556,-3.3081,-3.3081,-3.3081,-3.3081,-3.3081,-3.3081,-3.3081,-3.3081,-3.3081,-3.3081,-3.3081,-3.3081,-3.3081,-3.2982,-3.2525,-3.2711,-3.2982,-3.2525,-3.2797,-3.3081,-3.3081,-3.3081,-3.3081,-3.3081,-3.3081,-3.3081,-3.3081,-3.3081,-3.3081,-3.3081,-3.3081,-3.3081,-3.3081,-3.3081,-3.3081,-3.3081,-3.3081,-3.3081,-3.3081,-3.3081,-3.3081,-3.3081,-3.3081,-3.3081,-3.3081,-3.3081,-3.3081,-3.3081,-3.3081,-3.3081,-3.3081,-3.3081,-3.3081,-3.3081,-3.3081,-3.3081,0.0,0.0,0.0,0.0,0.0,0.0,0.0,0.0,0.0,0.0,0.0,0.0,0.0,0.0,0.0,0.0,0.0,0.0,0.0,0.0,0.0,0.0,0.0,0.0,0.0,-3.0716,-3.2393,-3.1742,-3.3919,-3.5534,-3.5624,-3.6909,-3.8371,-3.9928,-4.099,-4.2085,-4.3314,-4.3673,-4.3675,-4.329,-4.3031,-4.2189,-4.0675,-4.0432,-3.999,-3.9424,-3.9424,-3.9424,-3.9424,-3.9424,-3.9017,-3.8308,-3.7175,-3.6146,-3.5129,-3.4108,-3.3398,-3.3081,-3.3081,-3.3081,-3.3081,-3.3081,-3.3081,-3.3081,-3.3081,-3.3081,-3.3081,-3.3081,-3.3081,-3.3081,-3.3081,-3.3081,-3.3081,-3.3081,-3.3081,-3.3081,-3.3081,-3.3081,-3.3081,-3.3081,-3.3081,-3.3081,-3.3081,-3.3081,-3.3081,-3.3081,-3.3081,-3.3081,-3.3081,-3.3081,-3.3081,-3.3081,-3.3081,-3.3081,-3.3081,-3.3081,-3.3081,-3.3081,-3.3081,-3.3081,-3.3081,-3.3081,-3.3081,-3.3081,-3.3081,-3.3081,-3.3081,-3.3081,-3.3169,-3.3357,-3.3357,-3.3269,-3.3081,0.0,0.0,0.0,0.0,0.0,0.0,0.0,0.0,0.0,0.0,0.0,0.0,0.0,0.0,0.0,0.0,0.0,0.0,0.0,0.0,0.0,0.0,0.0,-2.8096,-3.0716,-3.2593,-3.2593,-3.4356,-3.5789,-3.6484,-3.7189,-3.8294,-3.9854,-4.1363,-4.2584,-4.3399,-4.4164,-4.4196,-4.3306,-4.2458,-4.1609,-4.069,-3.9864,-3.9424,-3.9424,-3.9424,-3.9424,-3.9424,-3.9424,-3.9424,-3.9337,-3.8308,-3.7175,-3.6119,-3.5129,-3.4037,-3.3081,-3.3081,-3.3081,-3.3081,-3.3081,-3.3081,-3.3081,-3.3081,-3.3081,-3.3081,-3.3081,-3.3081,-3.3081,-3.3081,-3.3081,-3.3081,-3.3081,-3.3081,-3.3081,-3.3081,-3.3081,-3.3081,-3.3081,-3.3081,-3.3081,-3.3081,-3.3081,-3.3081,-3.3081,-3.3081,-3.3081,-3.3081,-3.3081,-3.3081,-3.3081,-3.3081,0.0,-3.3081,-3.3081,-3.3081,-3.3081,-3.3081,-3.3081,-3.3081,-3.3081,-3.3081,-3.3081,-3.3081,-3.3081,-3.3081,-3.3081,-3.3332,-3.3859,-3.3872,-3.3608,-3.3081,0.0,0.0,0.0,0.0,0.0,0.0,0.0,0.0,0.0,0.0,0.0,0.0,0.0,0.0,0.0,0.0,0.0,0.0,0.0,0.0,0.0,-2.6162,-2.8096,-2.8096,-3.0716,-3.2593,-3.2593,-3.4748,-3.6516,-3.7208,-3.791,-3.922,-4.1412,-4.197,-4.2816,-4.4231,-4.3889,-4.3562,-4.3306,-4.2458,-4.1609,-4.069,-4.0432,-4.006,-3.9424,-3.9424,-3.9424,-3.9424,-3.9424,-3.9424,-3.9337,-3.8308,-3.7175,-3.6119,-3.5129,-3.4037,-3.3081,-3.3081,-3.3081,-3.3081,-3.3081,-3.3081,-3.3081,-3.3081,-3.3081,-3.3081,-3.3081,-3.3081,-3.3081,-3.3081,-3.3081,-3.3081,-3.3081,-3.3081,-3.3081,-3.3081,-3.3081,-3.3081,-3.3081,-3.3081,-3.3081,-3.3081,-3.3081,-3.3081,-3.3081,-3.3081,-3.3081,-3.3081,-3.3081,-3.3081,-3.3081,-3.3081,0.0,-3.3081,-3.3081,-3.3081,-3.3081,-3.3081,-3.3081,-3.3081,-3.3081,-3.3081,-3.3081,-3.3081,-3.3081,-3.3081,-3.3081,-3.3156,-3.3307,-3.3307,-3.3232,0.0,0.0,0.0,0.0,0.0,0.0,0.0,0.0,0.0,0.0,0.0,0.0,0.0,0.0,0.0,0.0,0.0,0.0,0.0,0.0,0.0,0.0,-2.6594,-2.8339,-2.9071,-3.0981,-3.2545,-3.298,-3.4936,-3.6722,-3.7836,-3.8299,-3.9505,-4.1902,-4.1765,-4.2329,-4.3972,-4.3229,-4.2583,-4.2189,-4.1739,-4.1028,-4.017,-4.0185,-3.9935,-3.9424,-3.9424,-3.9424,-3.9424,-3.9424,-3.9424,-3.9337,-3.8708,-3.7829,-3.6774,-3.5748,-3.4733,0.0,0.0,0.0,0.0,0.0,-3.3081,-3.3081,-3.3081,-3.3081,-3.3081,-3.3081,-3.3081,-3.3081,-3.3081,-3.3081,-3.3081,-3.3081,-3.3081,-3.3081,-3.3081,-3.3081,-3.3081,-3.3081,-3.3081,-3.3081,-3.3081,-3.3081,-3.3081,-3.3081,-3.3081,0.0,-3.3081,-3.3081,-3.3081,-3.3081,-3.3081,-3.3081,-3.3081,-3.3081,-3.3081,-3.3081,-3.3081,-3.3081,-3.3081,-3.3081,0.0,0.0,0.0,-3.3081,-3.3081,-3.3307,0.0,0.0,0.0,-3.342,-3.342,0.0,0.0,0.0,-3.3533,-3.3433,0.0,0.0,0.0,0.0,0.0,0.0,0.0,0.0,0.0,0.0,0.0,0.0,0.0,0.0,0.0,0.0,-2.6778,-2.8795,-3.0448,-3.1473,-3.2425,-3.3542,-3.505,-3.6648,-3.8262,-3.8467,-3.9459,-4.1692,-4.1147,-4.1478,-4.3185,-4.2379,0.0,0.0,0.0,-4.0185,-3.9424,-3.9424,-3.9424,-3.9424,-3.9424,-3.9424,-3.9424,-3.9424,-3.9424,-3.9424,-3.9424,-3.8708,-3.7587,-3.6696,-3.5748,-3.4594,-3.3556,-3.3081,-3.3081,-3.3081,-3.3081,-3.3081,-3.3081,0.0,0.0,-3.3081,-3.3081,-3.3081,-3.3081,-3.3081,-3.3081,-3.3081,-3.3081,-3.3081,-3.3081,-3.3081,-3.3081,-3.3081,-3.3081,-3.3081,-3.3081,-3.3081,-3.3081,-3.3081,-3.3081,-3.3081,-3.3081,-3.3081,-3.3081,-3.3081,-3.3081,-3.3081,-3.3081,-3.3081,-3.3081,-3.3081,0.0,0.0,-3.3081,-3.3081,-3.3081,-3.3081,-3.3081,-3.3081,-3.3081,-3.3545,-3.3583,-3.3081,-3.3621,-3.3897,-3.3897,-3.396,-3.4274,-3.4801,-3.4248,-3.3724,0.0,0.0,0.0,0.0,0.0,0.0,0.0,0.0,0.0,0.0,0.0,0.0,0.0,0.0,0.0,-2.6352,-2.7868,-2.9325,-3.0985,-3.1763,-3.2639,-3.4067,-3.5674,-3.7099,-3.8292,-3.8901,-3.9728,-4.0878,-4.0826,-4.1478,-4.3185,-4.1804,-4.1213,-4.1739,-4.0378,-3.9538,-3.9424,-3.9424,-3.9424,-3.9424,0.0,0.0,-3.9424,-3.9424,-3.9424,-3.9424,-3.9424,-3.8294,-3.6526,-3.7252,-3.6397,-3.4594,-3.3556,-3.3081,-3.3081,-3.3081,-3.3081,-3.3081,-3.3081,-3.3081,-3.3081,-3.3081,-3.3081,-3.3081,-3.3081,-3.3081,0.0,-3.3081,-3.3081,-3.3081,-3.3081,-3.3081,-3.3081,-3.3081,-3.3081,-3.3081,-3.3081,-3.3081,-3.3081,-3.3081,-3.3081,-3.3081,-3.3081,-3.3081,-3.3081,-3.3081,-3.3081,-3.3081,-3.3081,-3.3081,-3.3081,-3.3081,-3.3081,-3.3081,-3.3081,-3.3081,-3.3081,-3.3081,-3.3081,-3.3081,-3.3081,-3.3181,-3.3181,-3.3081,-3.3621,-3.3897,-3.3897,-3.4349,-3.4851,-3.5366,-3.4826,-3.467,0.0,0.0,0.0,0.0,0.0,0.0,0.0,0.0,0.0,0.0,0.0,-1.6518,-1.9249,0.0,-2.3664,-2.7039,-2.8071,-2.9188,-3.1464,-3.2039,-3.289,-3.4684,-3.5857,-3.7161,-3.8743,-3.9215,-3.9737,-4.0622,-4.0309,-4.0638,-4.1933,-4.0774,-4.0255,-4.0706,-3.9864,-3.9424,-3.9424,-3.9424,-3.9424,-3.9424,-3.9424,-3.9424,-3.9424,-3.9424,-3.9424,-3.9424,-3.9424,-3.8782,-3.7724,-3.7252,-3.5762,-3.3907,-3.3617,-3.3319,-3.3081,-3.3081,-3.3257,-3.3483,-3.3483,-3.3671,-3.3897,-3.3897,-3.3897,-3.3897,-3.3897,-3.3709,-3.3483,-3.3483,-3.3294,-3.3081,-3.3081,-3.3081,-3.3081,-3.3081,-3.3081,-3.3081,-3.3081,-3.3081,-3.3081,-3.3081,-3.3081,-3.3081,-3.3081,-3.3081,-3.3081,-3.3081,-3.3081,-3.3081,-3.3081,-3.3081,-3.3081,-3.3081,-3.3081,-3.3081,-3.3081,-3.3081,-3.3081,-3.3081,-3.3081,-3.3081,-3.3081,-3.3081,-3.3206,-3.3483,-3.3759,-3.4173,-3.4726,-3.5002,-3.5416,-3.5943,-3.568,-3.5692,0.0,0.0,0.0,0.0,0.0,0.0,0.0,-1.097,-1.1463,-1.3846,-1.5547,-1.7319,-1.9768,-2.1459,-2.3621,-2.7106,-2.7899,-2.9028,-3.1662,-3.2197,-3.3173,-3.5274,-3.5921,-3.693,-3.8929,-3.9265,-3.9666,-4.0363,-3.9793,-3.9793,-4.0622,-3.9864,-3.9481,-3.9681,-3.9481,-3.9424,-3.9424,-3.9424,-3.9424,-3.9424,-3.9424,-3.9424,-3.9424,-3.9424,-3.9424,-3.9352,-3.8943,-3.8929,-3.8958,-3.6665,-3.4891,-3.3614,-3.3922,-3.3784,-3.3395,-3.3395,-3.3671,-3.406,-3.406,-3.4349,-3.4726,-3.4726,-3.4726,-3.4726,-3.4726,-3.4412,-3.406,-3.406,-3.3746,-3.337,-3.3269,-3.3232,-3.3206,-3.3106,-3.3081,-3.3081,-3.3081,-3.3081,-3.3081,-3.3081,-3.3081,-3.3081,-3.3081,-3.3081,-3.3081,-3.3081,-3.3081,-3.3081,-3.3081,-3.3081,-3.3081,-3.3081,-3.3081,-3.3081,-3.3081,-3.3081,-3.3081,-3.3081,-3.3081,-3.3081,-3.3081,-3.3181,-3.3445,-3.3884,-3.411,-3.4663,-3.5542,-3.5655,-3.5931,-3.6358,-3.6358,-3.6358,-0.7575,-0.8866,-1.0542,-1.1477,-1.176,-1.2344,0.0,-1.4268,-1.3943,-1.5667,-1.7897,-1.9784,-2.0438,-2.2523,-2.474,-2.6728,-2.7973,-2.9304,-3.1068,-3.2327,-3.3766,-3.5864,-3.6156,-3.6682,-3.7829,-3.8855,-3.9409,-3.9553,-3.9481,-3.9793,-4.0622,-3.9864,-3.9722,-4.0569,-3.9793,-3.9424,-3.9424,-3.9424,-3.9424,-3.9424,-3.9424,-3.9424,-3.9424,-3.9424,-3.9424,-3.9265,-3.7405,-3.7098,-3.7796,-3.5218,-3.4616,-3.5168,-3.4743,-3.4587,-3.4537,-3.4537,-3.4575,-3.4625,-3.4625,-3.4675,-3.4726,-3.4726,-3.4726,-3.4726,-3.4726,-3.4675,-3.4625,-3.4625,-3.4587,-3.4424,-3.3935,-3.3809,-3.3684,-3.3194,-3.3081,-3.3081,-3.3081,-3.3081,-3.3081,-3.3081,-3.3081,-3.3081,-3.3081,-3.3081,-3.3081,-3.3081,-3.3081,-3.3081,-3.3081,-3.3081,-3.3081,-3.3081,-3.3081,-3.3081,-3.3081,-3.3081,-3.3081,-3.3081,-3.3081,-3.3081,-3.3081,-3.3545,-3.3834,-3.3897,-3.4864,-3.5416,-3.5542,-3.6031,-3.6295,-3.6358,-3.6358,-3.6358,-0.9826,-1.0806,-1.1585,-1.2823,-1.3102,-1.3431,-1.4655,-1.4491,-1.457,-1.6157,-1.8626,-2.055,-2.0906,-2.3026,-2.5391,-2.7035,-2.8386,-2.9624,-3.1009,-3.2326,-3.3386,-3.4249,-3.5494,-3.6852,-3.8546,-3.9104,-3.9424,-3.9424,-3.9424,-3.9538,-3.992,-3.961,-3.9538,-3.992,-3.961,-3.9424,-3.9424,-3.9424,-3.9424,-3.9424,-3.9424,-3.9424,-3.9424,-3.9424,-3.9424,-3.9367,-3.8852,-3.8529,-3.8265,-3.6851,-3.6194,-3.6003,-3.5404,-3.5203,-3.5165,-3.4839,-3.4926,-3.5203,-3.5203,-3.5416,-3.568,-3.568,-3.568,-3.568,-3.568,-3.5454,-3.5203,-3.5203,-3.4964,-3.4675,-3.4437,-3.4135,-3.3847,-3.3608,-3.3307,-3.3081,-3.3081,-3.3081,-3.3081,-3.3081,-3.3081,-3.3081,-3.3081,-3.3081,-3.3081,-3.3081,-3.3081,-3.3081,-3.3081,-3.3081,-3.3081,-3.3081,-3.3081,-3.3081,-3.3081,-3.3081,-3.3081,-3.3081,-3.3081,-3.3219,-3.3545,-3.3771,-3.4198,-3.4851,-3.5303,-3.5705,-3.6019,-3.6257,-3.6358,-3.6358,-3.6358,-3.6358,-1.0774,-1.1653,-1.2252,-1.367,-1.4274,-1.4643,-1.4906,-1.4967,-1.5351,-1.6559,-1.8684,-2.0443,-2.1189,-2.3143,-2.5226,-2.6788,-2.8402,-2.9681,-3.0586,-3.2064,-3.324,-3.3471,-3.5116,-3.693,-3.8782,-3.9265,-3.9424,-3.9424,-3.9424,-3.9424,-3.9424,-3.9424,-3.9424,-3.9424,-3.9424,-3.9424,-3.9424,-3.9424,-3.9424,-3.9424,-3.9424,-3.9424,-3.9424,-3.9604,-3.9694,-3.9723,-4.0055,-3.9609,-3.8609,-3.8048,-3.7209,-3.6181,-3.5897,-3.5768,-3.5717,-3.5316,-3.5429,-3.5768,-3.5768,-3.6031,-3.6358,-3.6358,-3.6358,-3.6358,-3.6358,-3.6081,-3.5768,-3.5768,-3.5479,-3.514,-3.4989,-3.465,-3.4274,-3.3972,-3.3596,-3.3269,-3.3106,-3.3081,-3.3081,-3.3081,-3.3081,-3.3081,-3.3081,-3.3081,-3.3081,-3.3081,-3.3081,-3.3081,-3.3081,-3.3081,-3.3081,-3.3081,-3.3081,-3.3081,-3.3081,-3.3081,-3.3081,-3.3081,-3.3219,-3.3483,-3.3884,-3.4198,-3.4726,-3.5437,-3.5692,-3.5968,-3.6358,-3.6358,-3.6358,-3.6358,-3.6358,-3.6358,-0.9706,-1.0974,-1.2288,-1.3889,-1.525,-1.6333,-1.6527,-1.6593,-1.6774,-1.7074,-1.8231,-1.9721,-2.1366,-2.285,-2.4177,-2.5528,-2.7851,-2.9407,-2.9498,-3.1601,-3.3471,-3.4511,-3.5588,-3.6604,-3.7753,-3.8782,-3.9424,-3.9424,-3.9424,-3.9424,-3.9424,-3.9424,-3.9424,-3.9424,-3.9424,-3.9424,-3.9424,-3.9424,-3.9424,-3.9424,-3.9424,-3.9424,-3.9439,-4.0083,-4.0367,-4.0323,-3.9989,-3.9207,-3.8117,-3.7498,-3.6625,-3.5567,-3.6119,-3.6332,-3.6332,-3.632,-3.632,-3.6332,-3.6332,-3.6345,-3.6358,-3.6358,-3.6358,-3.6358,-3.6358,-3.6358,-3.6332,-3.6332,-3.632,-3.6194,-3.5655,-3.5504,-3.5228,-3.4161,-3.3884,-3.3721,-3.3194,-3.3081,-3.3081,-3.3081,-3.3081,-3.3081,-3.3081,-3.3081,-3.3081,-3.3081,-3.3081,-3.3081,-3.3081,-3.3081,-3.3081,-3.3081,-3.3081,-3.3081,-3.3081,-3.3081,-3.3081,-3.3081,-3.3583,-3.3884,-3.3897,-3.4926,-3.5516,-3.5542,-3.6056,-3.6345,-3.6358,-3.6358,-3.6358,-3.6358,-3.6358,-3.6358,-1.1274,-1.2668,-1.4207,-1.5513,-1.6249,-1.664,-1.6934,-1.7001,-1.7081,-1.7375,-1.8558,-1.9603,-2.0215,-2.2165,-2.389,-2.4304,-2.7232,-2.9407,-2.9407,-3.1512,-3.324,-3.3641,-3.4581,-3.5601,-3.6618,-3.8368,-3.9424,-3.9424,-3.9424,-3.9424,-3.9424,-3.9424,-3.9424,-3.9424,-3.9424,-3.9424,-3.9424,-3.9424,-3.9424,-3.9424,-3.9858,-4.0068,-4.0098,-4.0756,-4.1055,-4.101,-4.0567,-4.0091,-3.9643,-3.8351,-3.7559,-3.7143,-3.6646,-3.6358,-3.6358,-3.6358,-3.6358,-3.6358,-3.6358,-3.6358,-3.6358,-3.6358,-3.6358,-3.6358,-3.6358,-3.6358,-3.6358,-3.6358,-3.6358,-3.632,-3.6132,-3.5818,-3.5454,-3.5077,-3.4437,-3.3847,-3.3658,-3.3332,-3.3081,-3.3081,-3.3081,-3.3081,-3.3081,-3.3081,-3.3081,-3.3081,-3.3081,-3.3081,-3.3081,-3.3081,-3.3081,-3.3081,-3.3081,-3.3081,-3.3081,-3.3081,-3.3081,-3.3081,-3.3596,-3.406,-3.4437,-3.5152,-3.5717,-3.6081,-3.627,-3.6358,-3.6358,-3.6358,-3.6358,-3.6358,-3.6358,-3.6358,-1.2793,-1.4015,-1.5178,-1.6524,-1.6867,-1.6941,-1.7241,-1.7301,-1.7361,-1.7542,-1.8297,-1.902,-1.9524,-2.1456,-2.3176,-2.3592,-2.6567,-2.8958,-2.9315,-3.1146,-3.2612,-3.3081,-3.4037,-3.5129,-3.6119,-3.7814,-3.9017,-3.9337,-3.9424,-3.9424,-3.9424,-3.9424,-3.9424,-3.9424,-3.9424,-3.9424,-3.9424,-3.9424,-3.9544,-3.9783,-4.0442,-4.0756,-4.0771,-4.1429,-4.156,-4.1096,-4.1397,-4.1078,-4.0265,-3.9605,-3.889,-3.8017,-3.7322,-3.6803,-3.6358,-3.6358,-3.6358,-3.6358,-3.6358,-3.6358,-3.6358,-3.6358,-3.6358,-3.6358,-3.6358,-3.6358,-3.6358,-3.6358,-3.6358,-3.6358,-3.6358,-3.6094,-3.5793,-3.5592,-3.4851,-3.4135,-3.3935,-3.347,-3.3081,-3.3081,-3.3081,-3.3081,-3.3081,-3.3081,-3.3081,-3.3081,-3.3081,-3.3081,-3.3081,-3.3081,-3.3081,-3.3081,-3.3081,-3.3081,-3.3081,-3.3081,-3.3156,-3.3357,-3.3884,-3.4449,-3.4989,-3.5542,-3.5994,-3.6358,-3.6358,-3.6358,-3.6358,-3.6358,-3.6358,-3.6358,-3.6358,-3.6358,-1.4151,-1.488,-1.5257,-1.6889,-1.7174,-1.7241,-1.7522,-1.7582,-1.7582,-1.7582,-1.7582,-1.7996,-1.922,-2.0735,-2.2156,-2.3384,-2.5925,-2.8132,-2.9223,-3.0496,-3.1777,-3.2982,-3.4037,-3.5047,-3.6053,-3.7098,-3.8144,-3.9265,-3.9337,-3.9424,-3.9424,-3.9424,-3.9424,-3.9424,-3.9424,-3.9439,-3.9469,-3.9514,-3.9828,-4.0457,-4.1115,-4.1429,-4.1444,-4.2117,-4.1809,-4.0819,-4.2459,-4.1961,-4.0073,-4.0986,-4.0118,-3.8198,-3.8017,-3.7415,-3.6452,-3.6452,-3.6452,-3.6452,-3.6452,-3.6358,-3.6358,-3.6358,-3.6358,-3.6358,-3.6358,-3.6358,-3.6358,-3.6358,-3.6358,-3.6358,-3.6358,-3.6358,-3.6232,-3.5705,-3.5165,-3.4613,-3.406,-3.3508,-3.3106,-3.3081,-3.3081,-3.3081,-3.3081,-3.3081,-3.3081,-3.3081,-3.3081,-3.3081,-3.3081,-3.3081,-3.3081,-3.3081,-3.3081,-3.3081,-3.3081,-3.3081,-3.3319,-3.3872,-3.4412,-3.4964,-3.5516,-3.6069,-3.6358,-3.6358,-3.6358,-3.6358,-3.6358,-3.6358,-3.6358,-3.6358,-3.6358,-3.6358,-1.4947,-1.5927,-1.6945,-1.7448,-1.7468,-1.7495,-1.7562,-1.7582,-1.7582,-1.7582,-1.7582,-1.7681,-1.8094,-2.0128,-2.1853,-2.2156,-2.6038,-2.9039,-2.9315,-3.1235,-3.2711,-3.3081,-3.3313,-3.3953,-3.4979,-3.5987,-3.7084,-3.8144,-3.8943,-3.9424,-3.9424,-3.9424,-3.9424,-3.9424,-3.9424,-3.9649,-4.0142,-4.0636,-4.0965,-4.113,-4.1788,-4.2117,-4.2132,-4.2791,-4.2917,-4.2583,-4.2216,-4.1684,-4.107,-3.9596,-3.9169,-3.9271,-3.7507,-3.715,-3.7586,-3.6709,-3.6977,-3.7586,-3.6722,-3.6358,-3.6358,-3.6358,-3.6358,-3.6358,-3.6358,-3.6358,-3.6358,-3.6358,-3.6358,-3.6358,-3.6358,-3.6358,-3.632,-3.6194,-3.573,-3.519,-3.4625,-3.4073,-3.3571,-3.3156,-3.3081,-3.3081,-3.3081,-3.3081,-3.3081,-3.3081,-3.3081,-3.3081,-3.3081,-3.3081,-3.3081,-3.3081,-3.3081,-3.3081,-3.3081,-3.3081,-3.3319,-3.3872,-3.4412,-3.4964,-3.5516,-3.6069,-3.6358,-3.6358,-3.6358,-3.6358,-3.6358,-3.6358,-3.6358,-3.6358,-3.6358,-3.6358,-1.6064,-1.6924,-1.7582,-1.7582,-1.7582,-1.7582,-1.7582,-1.7582,-1.7582,-1.7582,-1.7582,-1.7786,-1.8401,-2.0231,-2.1853,-2.2466,-2.5962,-2.8773,-2.9315,-3.1045,-3.2426,-3.3068,-3.3081,-3.3556,-3.4581,-3.521,-3.6053,-3.7391,-3.8694,-3.9424,-3.9424,-3.9694,-3.9873,-3.9845,-4.0157,-4.0457,-4.0831,-4.1474,-4.1818,-4.1818,-4.2476,-4.2776,-4.2806,-4.3165,-4.2996,-4.2548,-4.2371,-4.2029,-4.1504,-4.0718,-4.0476,-4.049,-3.8662,-3.803,-3.7939,-3.6803,-3.6803,-3.7322,-3.715,-3.6803,-3.6358,-3.6358,-3.6358,-3.6358,-3.6358,-3.6358,-3.6358,-3.6358,-3.6358,-3.6358,-3.6358,-3.6358,-3.6358,-3.6358,-3.5943,-3.5391,-3.4839,-3.4286,-3.3734,-3.3181,-3.3081,-3.3081,-3.3081,-3.3081,-3.3081,-3.3081,-3.3081,-3.3081,-3.3081,-3.3081,-3.3081,-3.3081,-3.3081,-3.3081,-3.3081,-3.3081,-3.342,-3.4211,-3.455,-3.5077,-3.5868,-3.6194,-3.6358,-3.6358,-3.6358,-3.6358,-3.6358,-3.6358,-3.6358,-3.6358,-3.6358,-3.6358,-1.7252,-1.7582,-1.7582,-1.7582,-1.7582,-1.7582,-1.7582,-1.7582,-1.7582,-1.7582,-1.7582,-1.7996,-1.9324,-2.0735,-2.2148,-2.3665,-2.6108,-2.8226,-2.9498,-3.0676,-3.1889,-3.3082,-3.3181,-3.3611,-3.4567,-3.4848,-3.5507,-3.6886,-3.8495,-3.946,-3.9454,-4.0141,-4.0502,-4.0547,-4.122,-4.1504,-4.1504,-4.2162,-4.2491,-4.2506,-4.306,-4.3329,-4.3329,-4.3329,-4.2725,-4.185,-4.2725,-4.2548,-4.167,-4.229,-4.2208,-4.1504,-4.0145,-3.9183,-3.8456,-3.7243,-3.6896,-3.6977,-3.7848,-3.7415,-3.6628,-3.6628,-3.6546,-3.6358,-3.6358,-3.6358,-3.6358,-3.6358,-3.6358,-3.6358,-3.6358,-3.6358,-3.6358,-3.6358,-3.5994,-3.5479,-3.5019,-3.4477,-3.382,-3.3255,-3.3081,-3.3081,-3.3081,-3.3081,-3.3081,-3.3081,-3.3081,-3.3081,-3.3081,-3.3081,-3.3081,-3.3081,-3.3081,-3.3081,-3.3081,-3.3144,-3.3621,-3.4663,-3.4788,-3.529,-3.632,-3.6358,-3.6358,-3.6358,-3.6358,-3.6358,-3.6358,-3.6358,-3.6358,-3.6358,-3.6358,-3.6358,-1.7582,-1.7582,-1.7582,-1.7582,-1.7582,-1.7582,-1.7582,-1.7582,-1.7582,-1.7582,-1.7582,-1.7996,-1.9324,-2.0735,-2.2432,-2.4859,-2.7379,-2.9498,-3.0676,-3.1965,-3.3058,-3.3696,-3.3759,-3.4023,-3.4641,-3.5469,-3.6106,-3.6412,-3.8391,-3.9563,-3.9589,-4.0625,-4.1217,-4.123,-4.1893,-4.2209,-4.2192,-4.2836,-4.3165,-4.3165,-4.3284,-4.3329,-4.3329,-4.3329,-4.317,-4.2981,-4.2208,0.0,-4.1504,-3.9757,-4.0017,-4.142,-3.9258,-3.9508,-4.0802,-3.9711,-3.9285,-3.9197,-3.8379,-3.7939,-3.7848,-3.7848,-3.715,-3.6358,-3.6358,-3.6358,-3.6358,-3.6358,-3.6358,-3.6358,-3.6358,-3.6358,-3.6358,-3.6358,-3.6282,-3.6198,-3.6028,-3.5234,-3.4308,-3.3253,-3.3081,-3.3081,-3.3081,-3.3081,-3.3081,-3.3081,-3.3081,-3.3081,-3.3081,-3.3081,-3.3081,-3.3081,-3.3081,-3.3081,-3.3081,-3.3495,-3.4035,-3.4675,-3.5152,-3.5692,-3.6332,-3.6358,-3.6358,-3.6358,-3.6358,-3.6358,-3.6358,-3.6358,-3.6358,-3.6358,-3.6358,-3.6358,-1.7582,-1.7582,-1.7582,-1.7582,-1.7582,-1.7582,-1.7582,-1.7582,-1.7582,-1.7582,-1.7582,-1.8192,-2.0333,-2.1245,-2.261,-2.5525,-2.8169,-3.0063,-3.0974,-3.2701,-3.4035,-3.4299,-3.4312,-3.4426,-3.4691,-3.5161,-3.5822,-3.6748,-3.7762,-3.8771,-3.9546,-4.1085,-4.1833,-4.1469,-4.238,-4.2836,-4.2865,-4.318,-4.3329,-4.3329,-4.3329,-4.3329,-4.3329,-4.3329,-4.3329,-4.325,-4.2111,-4.1587,-4.1504,-3.9784,-4.0045,-4.142,-3.9697,-4.0131,-4.142,-4.0318,-3.9899,-3.9899,-3.9958,-3.9156,-3.8198,-3.8827,-3.7861,-3.6358,-3.6358,-3.6358,-3.6358,-3.6358,-3.6358,-3.6358,-3.6358,-3.6358,-3.6358,-3.6358,-3.6144,-3.589,-3.5571,-3.4812,-3.4059,-3.3205,-3.3081,-3.3081,-3.3081,-3.3081,-3.3081,-3.3081,-3.3081,-3.3081,-3.3081,-3.3081,-3.3081,-3.3081,-3.3081,-3.3081,-3.3081,-3.3583,-3.4135,-3.4688,-3.524,-3.5793,-3.6345,-3.6358,-3.6358,-3.6358,-3.6358,-3.6358,-3.6358,-3.6358,-3.6358,-3.6358,-3.6358,-3.6358,-1.7996,-1.7996,-1.7996,-1.7996,-1.7996,-1.7996,-1.7996,-1.7996,-1.7996,-1.7687,-1.7786,-1.8833,-2.135,-2.2071,-2.3314,-2.6406,-2.8591,-3.0236,-3.1106,-3.299,-3.4466,-3.4839,-3.4881,-3.4907,-3.5059,-3.5055,-3.5634,-3.6959,-3.7342,-3.8144,-3.955,-4.1301,-4.2076,-4.1586,-4.2456,-4.3021,-4.3329,-4.3036,-4.3036,-4.3329,-4.3021,-4.2942,-4.29,-4.29,-4.282,-4.2563,-4.1601,-4.1253,-4.1169,-3.9972,-4.0218,-4.1085,-3.9972,-4.0232,-4.1169,-4.0232,-3.9724,-3.9711,-4.0831,-3.9858,-3.8289,-3.9183,-3.8134,-3.6358,-3.6358,-3.6358,-3.6358,-3.6358,-3.6358,-3.6452,-3.6709,-3.6534,-3.6358,-3.6358,-3.6117,-3.5654,-3.4839,-3.4451,-3.3983,-3.3268,-3.3081,-3.3081,-3.3081,-3.3081,-3.3081,-3.3081,-3.3081,-3.3081,-3.3081,-3.3081,-3.3081,-3.3081,-3.3081,-3.3081,-3.3081,-3.3696,-3.4261,-3.47,-3.5353,-3.5918,-3.6345,-3.6358,-3.6358,-3.6358,-3.6358,-3.6358,-3.6358,-3.6358,-3.6358,-3.6358,-3.6358,-3.6358,-1.942,-1.942,-1.942,-1.942,-1.942,-1.942,-1.942,-1.942,-1.9117,-1.7891,-1.8603,-2.0028,-2.1898,-2.3288,-2.5043,-2.8092,-2.877,-2.9753,-3.2207,-3.2699,-3.3506,-3.5228,-3.5461,-3.5688,-3.6213,-3.6194,-3.6301,-3.6501,-3.7471,-3.8541,-3.9823,-4.0998,-4.1644,-4.163,-4.1695,-4.2243,-4.3329,-4.2258,-4.2258,-4.3329,-4.2243,-4.1763,-4.1767,-4.1767,-4.1169,-4.0246,-4.0073,-4.0073,0.0,-3.8738,-3.9006,-3.9986,-3.8738,-3.9006,-4.0073,-3.9899,-3.9183,-3.8469,-3.9623,-3.9183,-3.8107,-3.8198,-3.7415,-3.6358,-3.6358,-3.6358,-3.6358,-3.6358,-3.6358,-3.6628,-3.7678,-3.715,-3.6358,-3.6358,-3.6713,-3.6495,-3.5007,-3.503,-3.4868,-3.3427,-3.3081,-3.3081,-3.3081,-3.3081,-3.3081,-3.3081,-3.3081,-3.3081,-3.3081,-3.3081,-3.3081,-3.3081,-3.3081,-3.3081,-3.3081,-3.4035,-3.4663,-3.4726,-3.5705,-3.6307,-3.6358,-3.6358,-3.6358,-3.6358,-3.6358,-3.6358,-3.6358,-3.6358,-3.6358,-3.6358,-3.6358,-3.6358,-2.0837,-2.0837,-2.0837,-2.0837,-2.0837,-2.0641,-1.9834,-1.9627,-1.9279,-1.8029,-1.8999,-2.055,-2.2258,-2.3791,-2.5488,-2.7799,-2.8777,-3.0049,-3.2207,-3.3153,-3.4293,-3.5837,-3.6049,-3.6163,-3.6332,-3.6358,-3.6358,-3.6358,-3.8136,-3.878,-3.7869,-3.9587,-4.0266,-3.9537,-4.0217,-4.1134,-4.2258,-4.1149,-4.1178,-4.2233,-4.1851,-4.1594,-4.1601,-4.1551,-4.1322,-4.0877,-4.0232,-3.9937,0.0,-3.936,-3.9871,-4.0916,-4.0376,-4.0476,-4.0916,-4.0916,-4.0646,-4.0204,-3.9972,-4.0045,-4.0118,-3.9434,-3.8392,-3.7322,-3.6628,-3.6358,-3.6358,-3.6358,-3.6883,-3.7415,-3.715,-3.6709,-3.6534,-3.7243,-3.7062,-3.648,-3.5913,-3.5375,-3.4627,-3.333,-3.3081,-3.3081,-3.3081,-3.3081,-3.3081,-3.3081,-3.3081,-3.3081,-3.3081,-3.3081,-3.3081,-3.3081,-3.3081,-3.3081,-3.3081,-3.4085,-3.4726,-3.4726,-3.5755,-3.6358,-3.6358,-3.6358,-3.6358,-3.6358,-3.6358,-3.6358,-3.6358,-3.6358,-3.6358,-3.6358,-3.6358,-3.6358,-2.2257,-2.2257,-2.2265,-2.2291,-2.2038,-2.1451,-2.0468,-2.0005,-1.9554,-1.8786,-1.9886,-2.1485,-2.3274,-2.4754,-2.6258,-2.7649,-2.8649,-2.9942,-3.2031,-3.3115,-3.4459,-3.6156,-3.6358,-3.6358,-3.6358,-3.6358,-3.6358,-3.6358,-3.7951,-3.8136,-3.649,-3.7977,-3.8639,-3.8136,-3.8931,-3.9943,-4.1069,-4.0297,-4.0302,-4.1079,-4.1128,-4.1126,-4.1069,-4.1079,-4.0921,-4.0545,-4.0049,-3.9867,0.0,-3.9869,-4.0588,-4.1589,-4.1219,-4.1069,-4.1085,-4.1085,-4.1085,-4.1,-4.0575,-4.0916,-4.1504,-4.0661,-3.961,-3.8379,-3.7243,-3.6628,-3.6358,-3.6358,-3.7243,-3.7939,-3.715,-3.6883,-3.715,-3.7939,-3.7243,-3.6405,-3.6468,-3.5556,-3.4399,-3.3294,-3.3081,-3.3081,-3.3081,-3.3081,-3.3081,-3.3081,-3.3081,-3.3081,-3.3081,-3.3081,-3.3081,-3.3081,-3.3081,-3.3144,-3.3307,-3.4173,-3.4788,-3.4951,-3.5843,-3.6358,-3.6358,-3.6358,-3.6358,-3.6358,-3.6358,-3.6358,-3.6358,-3.6358,-3.6358,-3.6358,-3.6358,-3.6358,-2.3692,-2.3692,-2.371,-2.3691,-2.2707,-2.1744,-2.1727,-2.0875,-2.01,-2.0271,-2.1573,-2.3222,-2.5219,-2.6702,-2.7845,-2.827,-2.8291,-2.9266,-3.1945,-3.2262,-3.3342,-3.6048,-3.6358,-3.6358,-3.6358,-3.6358,-3.6358,-3.6358,-3.6465,-3.6465,-3.6358,-3.6465,-3.6963,-3.811,-3.8097,-3.8734,-3.9932,-3.9901,-3.9915,-3.9959,-3.9946,-3.9939,-3.991,-3.9924,-3.9282,-3.8161,-3.9438,-3.9863,0.0,-3.9914,-4.0604,-4.1506,-4.0347,-3.9897,-3.9899,-3.9899,-3.9899,-4.0073,-4.1169,-4.1587,-4.1587,-4.1587,-4.0831,-3.9637,-3.8469,-3.7322,-3.6358,-3.6358,-3.7243,-3.8107,-3.8107,-3.8107,-3.8107,-3.8107,-3.7243,-3.6405,-3.6468,-3.5556,-3.4399,-3.3294,-3.3081,-3.3081,-3.3081,-3.3081,-3.3081,-3.3081,-3.3081,-3.3081,-3.3081,-3.3081,-3.3081,-3.3081,-3.3081,-3.3294,-3.3847,-3.4399,-3.4951,-3.5504,-3.6056,-3.6358,-3.6358,-3.6358,-3.6358,-3.6358,-3.6358,-3.6358,-3.6358,-3.6358,-3.6358,-3.6358,-3.6358,-3.6358,-2.5118,-2.5118,-2.503,-2.5058,-2.4049,-2.2867,-2.2161,-2.1018,-2.0231,-2.0755,-2.2108,-2.3769,-2.559,-2.7144,-2.8123,-2.8252,-2.8291,-2.9287,-3.1955,-3.2273,-3.3342,-3.6048,-3.6358,-3.6358,-3.6358,-3.6358,-3.6358,-3.6358,-3.6358,-3.6358,-3.6358,-3.6358,-3.6528,-3.6963,-3.6963,-3.7488,-3.8652,-3.7874,-3.7886,-3.8642,-3.8646,-3.8648,-3.8725,-3.9518,-3.9701,-3.941,-4.0526,-4.1058,-4.1165,-4.1868,-4.2441,-4.2713,-4.2342,-4.1762,-4.1078,-4.1078,-4.1076,-4.1,-4.0575,-4.1435,-4.2467,-4.0916,-4.0746,-4.0831,-3.9711,-3.7952,-3.6722,-3.8302,-3.7861,-3.7335,-3.8917,-3.8121,-3.715,-3.7939,-3.7243,-3.6405,-3.6468,-3.5556,-3.4399,-3.3294,-3.3081,-3.3081,-3.3081,-3.3081,-3.3081,-3.3081,-3.3081,-3.3081,-3.3081,-3.3081,-3.3081,-3.3081,-3.3081,-3.3307,-3.3847,-3.4399,-3.4964,-3.5516,-3.6056,-3.6358,-3.6358,-3.6358,-3.6358,-3.6358,-3.6358,-3.6358,-3.6358,-3.6358,-3.6358,-3.6358,-3.6358,-3.6358,-2.5742,-2.5742,-2.5742,-2.5742,-2.484,-2.3583,-2.2409,-2.1281,-2.0755,-2.178,-2.2849,-2.4231,-2.6509,-2.7644,-2.8291,-2.8291,-2.8291,-2.9287,-3.1955,-3.2283,-3.334,-3.6106,-3.6358,-3.6358,-3.6358,-3.6358,-3.6358,-3.6358,-3.6358,-3.6358,-3.6358,-3.6358,-3.6358,-3.6358,-3.6358,-3.678,-3.7462,-3.7159,-3.7182,-3.7511,-3.8385,-3.8799,-3.876,-3.959,-4.0108,-4.0583,-4.0842,-4.1216,0.0,-4.1913,-4.2485,-4.3235,-4.2823,-4.2471,-4.2243,-4.2243,-4.2225,-4.2126,-4.1435,-4.2126,-4.3076,-4.1616,-4.1351,-4.1337,-3.9697,-3.8211,-3.7415,-3.9373,-3.8225,-3.6896,-3.9285,-3.8482,-3.7243,-3.7939,-3.7586,-3.6934,-3.6555,-3.5556,-3.4399,-3.3294,-3.3081,-3.3081,-3.3081,-3.3081,-3.3081,-3.3081,-3.3081,-3.3081,-3.3081,-3.3081,-3.3081,-3.3081,-3.3081,-3.3382,-3.4148,-3.4525,-3.5052,-3.5805,-3.6169,-3.6358,-3.6358,-3.6358,-3.6358,-3.6358,-3.6358,-3.6358,-3.6358,-3.6358,-3.6358,-3.6358,-3.6358,-3.6358,0.0,-2.5869,-2.5742,-2.5752,-2.4985,-2.3943,-2.2657,-2.1731,0.0,-2.327,-2.3764,-2.4836,-2.7728,-2.8291,-2.8291,-2.8291,-2.8291,-2.9287,-3.1955,-3.2463,-3.3528,-3.6138,-3.6358,-3.6358,-3.6358,-3.6358,-3.6358,-3.6358,-3.6358,-3.6358,-3.6358,-3.6358,-3.6358,-3.6358,-3.6358,-3.6358,-3.6358,-3.7462,-3.7462,-3.6465,-3.8626,-3.9693,-3.9761,-3.9894,-4.0473,0.0,-4.0554,-4.0742,-4.1513,-4.0575,-4.1383,-4.3174,-4.2164,-4.2396,-4.3329,-4.3329,-4.3329,-4.3329,-4.3329,-4.3329,-4.3329,-4.3329,-4.2548,-4.1155,-3.8979,-3.8198,-3.8379,-3.9536,-3.8315,-3.707,-3.9285,-3.9094,-3.8198,-3.8017,-3.8017,-3.7791,-3.6643,-3.5467,-3.4399,-3.3294,-3.3081,-3.3081,-3.3081,-3.3081,-3.3081,-3.3081,-3.3081,-3.3081,-3.3081,-3.3081,-3.3081,-3.3081,-3.3081,-3.352,-3.4625,-3.4726,-3.519,-3.6295,-3.6358,-3.6358,-3.6358,-3.6358,-3.6358,-3.6358,-3.6358,-3.6358,-3.6358,-3.6358,-3.6358,-3.6358,-3.6358,-3.6358,-2.8547,0.0,-2.5762,-2.6142,-2.5237,-2.4359,0.0,-2.3694,-2.3402,-2.5094,-2.5541,-2.6068,-2.799,-2.8291,-2.8291,-2.8291,-2.8291,-2.9287,-3.1955,-3.4123,-3.5692,-3.6332,-3.6358,-3.6358,-3.6358,-3.6358,-3.6358,-3.6358,-3.6358,-3.6358,-3.6358,-3.6358,-3.6358,-3.6358,-3.6358,-3.6358,-3.6358,-3.666,-3.666,-3.637,-3.6975,-3.7663,-3.8533,-3.9506,-4.0051,-4.0395,-4.1825,-4.2199,-4.1666,-4.2243,-4.2789,-4.3319,-4.304,-4.3036,-4.3329,-4.3329,-4.3329,-4.3329,-4.3329,-4.3329,-4.3329,-4.3329,-4.2548,-4.1504,-4.0986,-3.9508,-3.8379,-3.9536,-3.8827,-3.803,-3.9549,-3.9724,-3.9006,-3.7243,-3.7507,-3.7533,-3.5545,-3.4893,-3.4399,-3.3294,-3.3081,-3.3081,-3.3081,-3.3081,-3.3081,-3.3081,-3.3081,-3.3081,-3.3081,-3.3081,-3.3081,-3.3081,-3.3081,-3.352,-3.4625,-3.4726,-3.519,-3.6295,-3.6358,-3.6358,-3.6358,-3.6358,-3.6358,-3.6358,-3.6358,-3.6358,-3.6358,-3.6358,-3.6358,-3.6358,-3.6358,-3.6358,-2.9416,-2.8031,-2.6661,-2.6915,-2.6219,-2.5423,-2.5191,-2.4876,-2.488,-2.5854,-2.6073,-2.6588,-2.8009,-2.8846,-2.9013,-2.8427,-2.9307,-3.0842,-3.296,-3.5029,-3.6358,-3.6358,-3.6358,-3.6358,-3.6358,-3.6358,-3.6358,-3.6358,-3.6358,-3.6358,-3.6358,-3.6358,-3.6358,-3.6358,-3.6358,-3.6358,-3.6358,-3.6358,-3.6358,-3.637,-3.6963,-3.7795,-3.8965,-3.958,-4.0481,-4.1516,-4.2223,-4.2444,-4.2411,-4.2456,-4.2831,-4.3286,-4.2754,-4.2823,-4.3329,-4.3329,-4.3329,-4.3329,-4.3329,-4.3329,-4.3329,-4.3329,-4.29,-4.2193,-4.1169,-4.0304,-3.9858,-4.049,-3.9081,-3.7678,-3.9461,-3.9448,-3.8649,-3.6803,-3.723,-3.7442,-3.5211,-3.4726,-3.4399,-3.3294,-3.3081,-3.3081,-3.3081,-3.3081,-3.3081,-3.3081,-3.3081,-3.3081,-3.3081,-3.3081,-3.3081,-3.3081,-3.3081,-3.342,-3.4274,-3.4575,-3.519,-3.6295,-3.6358,-3.6358,-3.6358,-3.6358,-3.6358,-3.6358,-3.6358,-3.6358,-3.6358,-3.6358,-3.6358,-3.6358,-3.6358,-3.6358,-2.9957,-2.9093,-2.8105,-2.7779,-2.7369,-2.671,-2.5468,-2.5907,-2.6463,-2.6463,-2.6463,-2.6877,-2.8301,-2.9423,-2.9637,-2.8815,-3.0664,-3.2766,-3.4198,-3.5536,-3.6358,-3.6358,-3.6358,-3.6358,-3.6358,-3.6358,-3.6358,-3.6358,-3.6358,-3.6358,-3.6358,-3.6358,-3.6358,-3.6358,-3.6358,-3.6358,-3.6358,-3.6358,-3.6358,-3.637,-3.7342,-3.848,-3.9666,-3.9845,-4.0952,-4.2723,0.0,0.0,-4.2991,-4.2213,-4.2426,-4.319,-4.2243,-4.2441,-4.3329,-4.3329,-4.3329,-4.3329,-4.3329,-4.3329,-4.3329,-4.3329,-4.3329,-4.29,-4.1014,-4.1,-4.167,-4.185,-3.9508,-3.7428,-3.9623,-3.9271,-3.8121,-3.6883,-3.7415,-3.7442,-3.5211,-3.4726,-3.4399,-3.3294,-3.3081,-3.3081,-3.3081,-3.3081,-3.3081,-3.3081,-3.3081,-3.3081,-3.3081,-3.3081,-3.3081,-3.3081,-3.3081,-3.3307,-3.3847,-3.4399,-3.5152,-3.6169,-3.632,-3.6358,-3.6358,-3.6358,-3.6358,-3.6358,-3.6358,-3.6358,-3.6358,-3.6358,-3.6358,-3.6358,-3.6358,-3.6358,-3.25,-3.1636,-3.0264,-2.8498,-2.7543,-2.7052,-2.7247,-2.7592,-2.799,-2.799,-2.799,-2.8417,-2.9738,-2.9276,-2.8935,-2.9862,-3.1332,-3.2814,-3.4195,-3.5536,-3.6358,-3.6358,-3.6358,-3.6358,-3.6358,-3.6358,-3.6358,-3.6358,-3.6358,-3.6358,-3.6358,-3.6358,-3.6358,-3.6358,-3.6358,-3.6358,-3.6358,-3.6358,-3.6358,-3.6358,-3.6622,-3.7291,-3.8363,-3.9396,-4.0076,-4.0495,0.0,-4.2614,-4.1907,-4.2669,-4.316,-4.3235,-4.3145,-4.316,-4.3329,-4.3329,-4.3329,-4.3329,-4.3329,-4.3329,-4.3329,-4.3329,-4.3329,-4.325,-4.29,-4.2208,-4.1767,-4.2805,-4.1267,-3.9623,-4.1,-4.049,-3.936,-3.8121,-3.7939,-3.7442,-3.5211,-3.4726,-3.4399,-3.3294,-3.3081,-3.3081,-3.3081,-3.3081,-3.3081,-3.3081,-3.3081,-3.3081,-3.3081,-3.3081,-3.3081,-3.3081,-3.3081,-3.3307,-3.3847,-3.4399,-3.5002,-3.5629,-3.6107,-3.6358,-3.6358,-3.6358,-3.6358,-3.6358,-3.6358,-3.6358,-3.6358,-3.6358,-3.6358,-3.6358,-3.6358,-3.6358,-3.3081,-3.2179,-3.0961,-3.0067,-2.9266,-2.876,-2.9323,-2.9738,-2.9886,-2.9454,-2.9423,-2.9581,-3.0181,-3.0419,-3.1173,-3.3219,-3.3496,-3.3956,-3.5248,-3.6006,-3.6358,-3.6358,-3.6358,-3.6358,-3.6358,-3.6358,-3.6358,-3.6358,-3.6358,-3.6358,-3.6358,-3.6358,-3.6358,-3.6358,-3.6358,-3.6358,-3.6358,-3.6358,-3.6358,-3.6358,-3.6358,-3.7317,-3.9092,-3.9671,-4.028,-4.0938,0.0,-4.2639,-4.1695,-4.2823,-4.3329,-4.3329,-4.3329,-4.3329,-4.3329,-4.3329,-4.3329,-4.3329,-4.3329,-4.3329,-4.3329,-4.3329,-4.3329,-4.317,-4.2548,-4.2467,-4.2467,-4.2371,-4.0732,-3.9183,-4.0404,-3.9784,-3.8649,-3.7415,-3.7443,-3.7153,-3.5147,-3.4487,-3.4035,-3.3232,-3.3081,-3.3081,-3.3081,-3.3081,-3.3081,-3.3081,-3.3081,-3.3081,-3.3081,-3.3081,-3.3081,-3.3081,-3.3081,-3.3181,-3.3432,-3.396,-3.4763,-3.5918,-3.6219,-3.6358,-3.6358,-3.6358,-3.6358,-3.6358,-3.6358,-3.6358,-3.6358,-3.6358,-3.6358,-3.6358,-3.6358,-3.6358,-3.3081,-3.2352,-3.1626,-3.1626,-3.0796,-3.0201,-3.0748,-3.124,-3.1384,-3.083,-3.0811,-3.0902,-3.1209,-3.2118,-3.349,-3.5568,-3.5035,-3.4887,-3.6188,-3.6358,-3.6358,-3.6358,-3.6358,-3.6358,-3.6358,-3.6358,-3.6358,-3.6358,-3.6358,-3.6358,-3.6358,-3.6358,-3.6358,-3.6358,-3.6358,-3.6358,-3.6358,-3.6358,-3.6358,-3.6358,-3.6358,-3.7317,-3.9118,-3.9666,-4.0413,-4.1251,-4.2664,-4.2813,-4.206,-4.2962,-4.3329,-4.3329,-4.3329,-4.3329,-4.3235,-4.3006,-4.3036,-4.3235,-4.2991,-4.3051,-4.325,-4.2981,-4.29,-4.2725,-4.185,-4.2208,-4.2805,-4.2193,-4.0547,-3.9156,-4.0059,-3.9434,-3.8172,-3.6903,-3.6975,-3.6799,-3.4932,-3.4198,-3.3734,-3.3181,-3.3081,-3.3081,-3.3081,-3.3081,-3.3081,-3.3081,-3.3081,-3.3081,-3.3081,-3.3081,-3.3081,-3.3081,-3.3081,-3.3131,-3.3257,-3.3771,-3.4688,-3.6081,-3.6282,-3.6358,-3.6358,-3.6358,-3.6358,-3.6358,-3.6358,-3.6358,-3.6358,-3.6358,-3.6358,-3.6358,-3.6358,-3.6358,-3.3081,-3.3043,-3.2932,-3.2932,-3.1478,-3.0154,-3.0735,-3.1204,-3.1613,-3.206,-3.2139,-3.2576,-3.3848,-3.4128,-3.4338,-3.4556,-3.4447,-3.4887,-3.6188,-3.6358,-3.6358,-3.6358,-3.6358,-3.6358,-3.6358,-3.6358,-3.6358,-3.6358,-3.6358,-3.6358,-3.6358,-3.6358,-3.6358,-3.6358,-3.6358,-3.6358,-3.6358,-3.6358,-3.6358,-3.6358,-3.6358,-3.649,-3.6704,-3.8877,-3.9909,-4.0155,-4.2374,-4.3267,-4.319,-4.3235,-4.3329,-4.3329,-4.3329,-4.3329,-4.3175,-4.209,-4.2411,-4.316,-4.2075,-4.2426,-4.3155,-4.2111,-4.1684,-4.1684,-4.1587,-4.167,-4.1932,-4.29,-4.229,-4.1337,-4.142,-4.0661,-3.9311,-3.7612,-3.7276,-3.6695,-3.4439,-3.3922,-3.3734,-3.3181,-3.3081,-3.3081,-3.3081,-3.3081,-3.3081,-3.3081,-3.3081,-3.3081,-3.3081,-3.3081,-3.3081,-3.3081,-3.3081,-3.3282,-3.3796,-3.4349,-3.4926,-3.5567,-3.6081,-3.6358,-3.6358,-3.6358,-3.6358,-3.6358,-3.6358,-3.6358,-3.6358,-3.6358,-3.6358,-3.6358,-3.6358,-3.6358,-3.3081,-3.3081,-3.3081,-3.3081,-3.2487,-3.2056,-3.2635,-3.3113,-3.3386,-3.309,-3.3344,-3.3779,-3.4275,-3.5066,-3.5668,-3.5668,-3.5668,-3.5837,-3.6332,-3.6358,-3.6358,-3.6358,-3.6358,-3.6358,-3.6358,-3.6358,-3.6358,-3.6358,-3.6358,-3.6358,-3.6358,-3.6358,-3.6358,-3.6358,-3.6358,-3.6358,-3.6358,-3.6358,-3.6358,-3.6358,-3.6358,-3.6792,-3.745,-3.8368,-3.9153,-3.9996,-4.1561,-4.2237,-4.2243,-4.2243,-4.2639,-4.3329,-4.3329,-4.3329,-4.322,-4.2808,-4.2967,-4.3224,-4.2828,-4.2444,-4.2134,-4.1693,-4.1604,-4.1504,-4.0746,-4.1,-4.1504,-4.1267,-4.0845,-4.0575,-4.0575,-3.9939,-3.8819,-3.6702,-3.6194,-3.5817,-3.4237,-3.3633,-3.3319,-3.3119,-3.3081,-3.3081,-3.3081,-3.3081,-3.3081,-3.3081,-3.3081,-3.3081,-3.3081,-3.3081,-3.3081,-3.3081,-3.3081,-3.3156,-3.337,-3.3884,-3.4449,-3.5002,-3.5868,-3.6358,-3.6358,-3.6358,-3.6358,-3.6358,-3.6358,-3.6358,-3.6358,-3.6358,-3.6358,-3.6358,-3.6358,-3.6358,-3.3081,-3.3081,-3.3081,-3.3081,-3.3081,-3.3205,-3.3528,-3.4211,-3.4576,-3.4181,-3.46,-3.5055,-3.5055,-3.5824,-3.6358,-3.6358,-3.6358,-3.6358,-3.6358,-3.6358,-3.6358,-3.6358,-3.6358,-3.6358,-3.6358,-3.6358,-3.6188,-3.5837,-3.6163,-3.6188,-3.5824,-3.6175,-3.6358,-3.6358,-3.6358,-3.632,-3.615,-3.632,-3.632,-3.615,-3.632,-3.6988,-3.8123,-3.8123,-3.8762,-3.9999,-4.112,-4.1636,-4.1651,-4.2016,-4.2609,-4.3329,-4.3329,-4.3051,-4.2763,-4.2396,-4.221,-4.2175,-4.1809,-4.1368,-4.103,-4.0625,-4.0488,-4.0376,-3.9536,-3.9871,-4.0419,-4.0166,-3.9853,-3.9554,-3.936,-3.9139,-3.8337,-3.5608,-3.5272,-3.5227,-3.392,-3.3345,-3.3081,-3.3081,-3.3081,-3.3081,-3.3081,-3.3081,-3.3081,-3.3081,-3.3081,-3.3081,-3.3081,-3.3081,-3.3081,-3.3081,-3.3081,-3.3081,-3.3081,-3.3583,-3.406,-3.4437,-3.5491,-3.6182,-3.6358,-3.6358,-3.6358,-3.6358,-3.6358,-3.6358,-3.6358,-3.6358,-3.6358,-3.6358,-3.6358,-3.6358,-3.3081,-3.3081,-3.3081,-3.3081,-3.3081,-3.3081,-3.3081,-3.3938,-3.4879,-3.5401,-3.5993,-3.6358,-3.6358,-3.6358,-3.6358,-3.6358,-3.6358,-3.6358,-3.6358,-3.6358,-3.6358,-3.6358,-3.6358,-3.6358,-3.6358,-3.6358,-3.5849,-3.4469,-3.5585,-3.5742,-3.4445,-3.568,-3.6358,-3.6358,-3.6358,-3.6138,-3.5523,-3.6138,-3.6031,-3.5523,-3.6138,-3.6975,-3.811,-3.8097,-3.8773,-3.996,-4.1083,-4.1571,-4.1695,-4.2808,-4.3235,-4.3235,-4.3329,-4.2609,-4.1483,-4.0379,-3.9881,-3.972,-3.8572,-3.8864,-3.9685,-3.8498,-3.8107,-3.8107,-3.8107,-3.8107,-3.8425,-4.0053,-3.9786,-3.8794,-3.82,-3.849,-3.8133,-3.474,-3.4792,-3.5123,-3.3439,-3.3081,-3.3081,-3.3081,-3.3081,-3.3081,-3.3081,-3.3081,-3.3081,-3.3081,-3.3081,-3.3081,-3.3081,-3.3081,-3.3081,-3.3081,-3.3081,-3.3081,-3.3081,-3.3583,-3.3884,-3.3897,-3.4926,-3.578,-3.6332,-3.6358,-3.6358,-3.6358,-3.6358,-3.6358,-3.6358,-3.6358,-3.6358,-3.6358,-3.6358,-3.6358,-3.3081,-3.3081,-3.3081,-3.3081,-3.3081,-3.3081,-3.3081,-3.3938,-3.493,-3.5906,-3.6307,-3.6358,-3.6358,-3.6358,-3.6358,-3.6358,-3.6358,-3.6358,-3.6358,-3.6358,-3.6358,-3.6358,-3.6358,-3.6358,-3.6358,-3.5536,-3.4875,-3.4433,-3.3877,-3.3545,-3.3779,-3.4135,-3.46,-3.5211,-3.5211,-3.5092,-3.4924,-3.5114,-3.5114,-3.4924,-3.5092,-3.5837,-3.6899,-3.7732,-3.8803,-3.9932,-4.0245,-4.0842,-4.1651,-4.1922,-4.2075,-4.2213,-4.2991,-4.2609,-4.1666,-4.209,-4.1269,-3.9974,-4.0406,-3.9735,-3.8595,-3.8188,-3.8107,-3.786,-3.6687,-3.691,-3.7382,-3.6639,-3.6217,-3.5849,-3.5279,-3.5253,-3.5131,-3.4136,-3.3844,-3.3674,-3.3192,-3.3081,-3.3081,-3.3081,-3.3081,-3.3081,-3.3081,-3.3081,-3.3081,-3.3081,-3.3081,-3.3081,-3.3081,-3.3081,-3.3081,-3.3081,-3.3081,-3.3081,-3.3081,-3.3232,-3.3483,-3.3872,-3.4211,-3.4813,-3.5755,-3.6157,-3.6358,-3.6358,-3.6358,-3.6358,-3.6358,-3.6358,-3.6358,-3.6358,-3.6358,-3.6358,-3.3639,-3.3379,-3.3081,-3.3081,-3.3081,-3.3192,-3.3366,-3.3897,-3.4726,-3.5769,-3.6018,-3.615,-3.6345,-3.6358,-3.6358,-3.6358,-3.6358,-3.6358,-3.6358,-3.6358,-3.6358,-3.6358,-3.6358,-3.6358,-3.6358,-3.5043,-3.3875,-3.3342,-3.2801,-3.252,-3.2451,-3.347,-3.4169,-3.4644,-3.4737,-3.4625,-3.4421,-3.4595,-3.4624,-3.44,-3.4578,-3.5039,-3.576,-3.6437,-3.7491,-3.8898,-3.9097,-4.011,-4.1596,-4.1097,-4.0938,-4.0981,-4.168,-4.1272,-4.0307,-4.1012,-4.0115,-3.8593,-3.9047,-3.8209,-3.7028,-3.6832,-3.6742,-3.6586,-3.5486,-3.5723,-3.6108,-3.5212,-3.473,-3.435,-3.4293,-3.3893,-3.3571,-3.3571,-3.3319,-3.3081,-3.3081,-3.3081,-3.3081,-3.3081,-3.3081,-3.3081,-3.3081,-3.3081,-3.3081,-3.3081,-3.3081,-3.3081,-3.3081,-3.3081,-3.3081,-3.3081,-3.3081,-3.3081,-3.3081,-3.3081,-3.3219,-3.3558,-3.3771,-3.4198,-3.4864,-3.5629,-3.6144,-3.6358,-3.6358,-3.6358,-3.6358,-3.6358,-3.6358,-3.6358,-3.6358,-3.6358,-3.4298,-3.3814,-3.3081,-3.3081,-3.3081,-3.3217,-3.3677,-3.3838,-3.4141,-3.5226,-3.5412,-3.5561,-3.6188,-3.6332,-3.6332,-3.6358,-3.6358,-3.6358,-3.6358,-3.6345,-3.6332,-3.6332,-3.6307,-3.6188,-3.6043,-3.4457,-3.2966,-3.1698,-3.2178,-3.2081,-3.1095,-3.3232,-3.4447,-3.4575,-3.4575,-3.4297,-3.3832,-3.4308,-3.4284,-3.3814,-3.4276,-3.4551,-3.459,-3.4794,-3.5749,-3.7247,-3.7748,-3.9149,-4.1099,-3.9999,-3.9682,-3.971,-3.9757,-3.8993,-3.7986,-3.8053,-3.7339,-3.6188,-3.5775,-3.5537,-3.5366,-3.4876,-3.4726,-3.4713,-3.4663,-3.465,-3.4704,-3.5128,-3.4555,-3.3958,-3.4405,-3.3797,-3.3081,-3.3081,-3.3081,-3.3081,-3.3081,-3.3081,-3.3081,-3.3081,-3.3081,-3.3081,-3.3081,-3.3081,-3.3081,-3.3081,-3.3081,-3.3081,-3.3081,-3.3081,-3.3081,-3.3081,-3.3081,-3.3081,-3.3081,-3.3081,-3.3081,-3.3081,-3.3545,-3.3847,-3.3897,-3.4964,-3.578,-3.6282,-3.6332,-3.6358,-3.6358,-3.6358,-3.6358,-3.6358,-3.6358,-3.6358,-3.3347,-3.3242,-3.3081,-3.3081,-3.3081,-3.3093,-3.323,-3.3283,-3.3596,-3.4665,-3.4844,-3.5055,-3.5561,-3.5692,-3.5849,-3.6332,-3.6358,-3.6358,-3.6358,-3.6006,-3.5692,-3.5692,-3.5355,-3.4731,-3.3707,-3.2335,-3.1349,-3.1086,-3.0162,-3.0314,-3.1624,-3.2171,-3.281,-3.342,-3.3432,-3.3383,-3.3295,-3.3345,-3.3383,-3.323,-3.3366,-3.3477,-3.3515,-3.5344,-3.63,-3.669,-3.6748,-3.7103,-3.757,-3.735,-3.7795,-3.8605,-3.8556,-3.7891,-3.6976,-3.7894,-3.6814,-3.5175,-3.5999,-3.5683,-3.4817,-3.47,-3.4726,-3.4638,-3.4211,-3.4073,-3.4048,-3.3728,-3.3417,-3.3305,-3.3424,-3.324,-3.3081,-3.3081,-3.3081,-3.3081,-3.3081,-3.3081,-3.3081,-3.3081,-3.3081,-3.3081,-3.3081,-3.3081,-3.3081,-3.3081,-3.3081,-3.3081,-3.3081,-3.3081,-3.3081,-3.3081,-3.3081,-3.3081,-3.3081,-3.3081,-3.3081,-3.3081,-3.3194,-3.3445,-3.3884,-3.4964,-3.5604,-3.5717,-3.6144,-3.6358,-3.6358,-3.6358,-3.6358,-3.6358,-3.6358,-3.6358,-3.3725,-3.3503,-3.3081,-3.3081,-3.3081,-3.3081,-3.3081,-3.3081,-3.323,-3.3814,-3.4123,-3.447,-3.5045,-3.5139,-3.5223,-3.5536,-3.5561,-3.5561,-3.5561,-3.5355,-3.5139,-3.508,-3.4904,-3.428,-3.2986,-3.2055,-3.1191,-3.0621,-3.0158,-3.0429,-3.154,-3.2167,-3.2648,-3.3068,-3.3081,-3.3081,-3.3081,-3.3081,-3.3081,-3.3081,-3.3081,-3.3081,-3.3179,-3.4577,-3.5525,-3.6058,-3.5778,-3.5943,-3.6483,-3.5865,-3.6006,-3.6535,-3.6564,-3.6128,-3.5673,-3.632,-3.5716,-3.4704,-3.5133,-3.4829,-3.43,-3.3985,-3.3935,-3.3884,-3.3596,-3.3508,-3.3445,-3.3156,-3.3081,-3.3081,-3.3081,-3.3081,-3.3081,-3.3081,-3.3081,-3.3081,-3.3081,-3.3081,-3.3081,-3.3081,-3.3081,-3.3081,-3.3081,-3.3081,-3.3081,-3.3081,-3.3081,-3.3081,-3.3081,-3.3081,-3.3081,-3.3081,-3.3081,-3.3081,-3.3081,-3.3081,-3.3081,-3.3081,-3.3081,-3.3206,-3.3495,-3.4311,-3.5002,-3.5449,-3.583,-3.6094,-3.6358,-3.6358,-3.6358,-3.6358,-3.5763,-3.5463,-3.4225,-3.3789,-3.3081,-3.3081,-3.3081,-3.3081,-3.3081,-3.3081,-3.3081,-3.3081,-3.3477,-3.3938,-3.4427,-3.455,-3.4551,-3.4681,-3.4681,-3.4681,-3.4681,-3.4656,-3.4603,-3.4594,-3.4525,-3.3951,-3.2746,-3.2205,-3.149,-3.0477,-3.0913,-3.132,-3.1491,-3.25,-3.3081,-3.3081,-3.3081,-3.3081,-3.3081,-3.3081,-3.3081,-3.3081,-3.3081,-3.3081,-3.3081,-3.3528,-3.4264,-3.5154,-3.4676,-3.5003,-3.5811,-3.4852,-3.4414,-3.4414,-3.4414,-3.4414,-3.4452,-3.4463,-3.4426,-3.4376,-3.3947,-3.3759,-3.3684,-3.3219,-3.3081,-3.3081,-3.3081,-3.3081,-3.3081,-3.3081,-3.3081,-3.3081,-3.3081,-3.3081,-3.3081,-3.3081,-3.3081,-3.3081,-3.3081,-3.3081,-3.3081,-3.3081,-3.3081,-3.3081,-3.3081,-3.3081,-3.3081,-3.3081,-3.3081,-3.3081,-3.3081,-3.3081,-3.3081,-3.3081,-3.3081,-3.3081,-3.3081,-3.3081,-3.3081,-3.3081,-3.3081,-3.3081,-3.3081,-3.352,-3.4223,-3.524,-3.5454,-3.5768,-3.6219,-3.632,-3.6263,-3.6061,-3.4884,-3.4288,-3.323,-3.3205,-3.3081,-3.3081,-3.3081,-3.3081,-3.3081,-3.3081,-3.3081,-3.3081,-3.3192,-3.3366,-3.3938,-3.403,-3.4121,-3.4574,-3.4699,-3.4699,-3.4699,-3.4272,-3.3994,-3.3989,-3.3627,-3.2784,-3.1504,-3.1344,-3.1221,-3.1085,-3.1134,-3.1651,-3.2771,-3.3043,-3.3081,-3.3081,-3.3081,-3.3081,-3.3081,-3.3081,-3.3081,-3.3081,-3.3081,-3.3081,-3.3081,-3.3192,-3.3328,-3.3477,-3.3354,-3.3379,-3.3515,-3.3366,-3.3341,-3.3341,-3.3341,-3.3341,-3.3341,-3.3318,-3.333,-3.333,-3.3194,-3.3181,-3.3181,-3.3106,-3.3081,-3.3081,-3.3081,-3.3081,-3.3081,-3.3081,-3.3081,-3.3081,-3.3081,-3.3081,-3.3081,-3.3081,-3.3081,-3.3081,-3.3081,-3.3081,-3.3081,-3.3081,-3.3081,-3.3081,-3.3081,-3.3081,-3.3081,-3.3081,-3.3081,-3.3081,-3.3081,-3.3081,-3.3081,-3.3081,-3.3081,-3.3081,-3.3081,-3.3081,-3.3081,-3.3081,-3.3081,-3.3081,-3.3081,-3.3156,-3.3483,-3.411,-3.5064,-3.5579,-3.5655,-3.6132,-3.5763,-3.4678,-3.4483,-3.3773,-3.3081,-3.3081,-3.3081,-3.3081,-3.3081,-3.3081,-3.3081,-3.3081,-3.3081,-3.3081,-3.3081,-3.3192,-3.3379,-3.3477,-3.3515,-3.3789,-3.3801,-3.3801,-3.3801,-3.3627,-3.3477,-3.3477,-3.3217,-3.261,-3.1332,-3.1865,-3.1944,-3.1283,-3.1884,-3.2487,-3.3068,-3.3081,-3.3081,-3.3081,-3.3081,-3.3081,-3.3081,-3.3081,-3.3081,-3.3081,-3.3081,-3.3081,-3.3081,-3.3081,-3.3081,-3.3081,-3.3081,-3.3081,-3.3081,-3.3081,-3.3081,-3.3081,-3.3081,-3.3081,-3.3081,-3.3081,-3.3081,-3.3081,-3.3081,-3.3081,-3.3081,-3.3081,-3.3081,-3.3081,-3.3081,-3.3081,-3.3081,-3.3081,-3.3081,-3.3081,-3.3081,-3.3081,-3.3081,-3.3081,-3.3081,-3.3081,-3.3081,-3.3081,-3.3081,-3.3081,-3.3081,-3.3081,-3.3081,-3.3081,-3.3081,-3.3081,-3.3081,-3.3081,-3.3081,-3.3081,-3.3081,-3.3081,-3.3081,-3.3081,-3.3081,-3.3081,-3.3081,-3.3081,-3.3081,-3.3081,-3.3081,-3.3081,-3.3194,-3.3432,-3.4223,-3.4926,-3.5542,-3.4994,-3.4667,-3.4385,-3.2855,-3.1735,-3.3081,-3.2895,-3.2648,-3.3043,-3.2895,-3.2746,-3.3043,-3.3081,-3.3081,-3.3081,-3.3081,-3.3081,-3.3081,-3.3081,-3.3081,-3.3081,-3.3081,-3.3081,-3.3081,-3.3081,-3.3081,-3.3081,-3.3081,-3.2759,-3.1773,-3.25,-3.2746,-3.1761,-3.2598,-3.3081,-3.3081,-3.3081,-3.3081,-3.3081,-3.3081,-3.3081,-3.3081,-3.3081,-3.3081,-3.3081,-3.3081,-3.3081,-3.3081,-3.3081,-3.3081,-3.3081,-3.3081,-3.3081,-3.3081,-3.3081,-3.3081,-3.3081,-3.3081,-3.3081,-3.3081,-3.3081,-3.3081,-3.3081,-3.3081,-3.3081,-3.3081,-3.3081,-3.3081,-3.3081,-3.3081,-3.3081,-3.3081,-3.3081,-3.3081,-3.3081,-3.3081,-3.3081,-3.3081,-3.3081,-3.3081,-3.3081,-3.3081,-3.3081,-3.3081,-3.3081,-3.3081,-3.3081,-3.3081,-3.3081,-3.3081,-3.3081,-3.3081,-3.3081,-3.3081,-3.3081,-3.3081,-3.3081,-3.3081,-3.3081,-3.3081,-3.3081,-3.3081,-3.3081,-3.3081,-3.3081,-3.3081,-3.3081,-3.3081,-3.3081,-3.3196,-3.369,-3.4644,-3.3837,-3.3382,-3.318,-3.1181,-3.012,-3.3081,-3.2204,-3.1614,-3.2784,-3.2191,-3.1626,-3.2784,-3.3081,-3.3081,-3.3081,-3.3081,-3.3081,-3.3081,-3.3081,-3.3081,-3.3081,-3.3081,-3.3081,-3.3081,-3.3081,-3.3081,-3.3081,-3.3081,-3.3068,-3.3043,-3.3056,-3.3068,-3.3043,-3.3056,-3.3081,-3.3081,-3.3081,-3.3081,-3.3081,-3.3081,-3.3081,-3.3081,-3.3081,-3.3081,-3.3081,-3.3081,-3.3081,-3.3081,-3.3081,-3.3081,-3.3081,-3.3081,-3.3081,-3.3081,-3.3081,-3.3081,-3.3081,-3.3081,-3.3081,-3.3081,-3.3081,-3.3081,-3.3081,-3.3081,-3.3081,-3.3081,-3.3081,-3.3081,-3.3081,-3.3081,-3.3081,-3.3081,-3.3081,-3.3081,-3.3081,-3.3081,-3.3081,-3.3081,-3.3081,-3.3081,-3.3081,-3.3081,-3.3081,-3.3081,-3.3081,-3.3081,-3.3081,-3.3081,-3.3081,-3.3081,-3.3081,-3.3081,-3.3081,-3.3081,-3.3081,-3.3081,-3.3081,-3.3081,-3.3081,-3.3081,-3.3081,-3.3081,-3.3081,-3.3081,-3.3081,-3.3081,-3.3081,-3.3081,-3.3081,-3.1901,-3.1633,-3.2309,-3.3101,-3.2311,-2.9992,-3.0221,-2.9608,-3.2115,-3.1532,-3.1137,-3.0836,-3.0949,-3.1332,-3.1773,-3.2487,-3.3081,-3.3081,-3.3081,-3.3081,-3.3081,-3.3081,-3.3081,-3.3081,-3.3081,-3.3081,-3.3081,-3.3081,-3.3081,-3.3081,-3.3081,-3.3081,-3.3081,-3.3081,-3.3081,-3.3081,-3.3081,-3.3081,-3.3081,-3.3081,-3.3081,-3.3081,-3.3081,-3.3081,-3.3081,-3.3081,-3.3081,-3.3081,-3.3081,-3.3081,-3.3081,-3.3081,-3.3081,-3.3081,-3.3081,-3.3081,-3.3081,-3.3081,-3.3081,-3.3081,-3.3081,-3.3081,-3.3081,-3.3081,-3.3081,-3.3081,-3.3081,-3.3081,-3.3081,-3.3081,-3.3081,-3.3081,-3.3081,-3.3081,-3.3081,-3.3081,-3.3081,-3.3081,-3.3081,-3.3081,-3.3081,-3.3081,-3.3081,-3.3081,-3.3081,-3.3081,-3.3081,-3.3081,-3.3081,-3.3081,-3.3081,-3.3081,-3.3081,-3.3081,-3.3081,-3.3081,-3.3081,-3.3081,-3.3081,-3.3081,-3.3081,-3.3081,-3.3081,-3.3081,-3.3081,-3.3081,-3.3081,-3.3081,-3.3081,-3.3081,-3.2698,-3.1865,-3.14,-3.1484,-3.2122,-3.0999,-3.0219,-2.9656,-2.9204,-2.8804,-3.2039,-3.1506,-3.1043,-3.0182,-3.0289,-3.066,-3.1122,-3.1884,-3.261,-3.3043,-3.3081,-3.3081,-3.3081,-3.3081,-3.3081,-3.3081,-3.3081,-3.3081,-3.3081,-3.3081,-3.3081,-3.3081,-3.3081,-3.3081,-3.3081,-3.3081,-3.3081,-3.3081,-3.3081,0.0,-3.3081,-3.3081,-3.3081,-3.3081,-3.3081,-3.3081,-3.3081,-3.3081,-3.3081,-3.3081,-3.3081,-3.3081,-3.3081,-3.3081,-3.3081,-3.3081,-3.3081,-3.3081,-3.3081,-3.3081,-3.3081,-3.3081,-3.3081,-3.3081,-3.3081,-3.3081,-3.3081,-3.3081,-3.3081,-3.3081,-3.3081,-3.3081,-3.3081,-3.3081,-3.3081,-3.3081,-3.3081,-3.3081,-3.3081,-3.3081,-3.3081,-3.3081,-3.3081,-3.3081,-3.3081,-3.3081,-3.3081,-3.3081,-3.3081,-3.3081,-3.3081,-3.3081,-3.3081,-3.3081,-3.3081,-3.3081,-3.3081,-3.3081,-3.3081,-3.3081,-3.3081,-3.3081,-3.3081,-3.3081,-3.3081,-3.3081,-3.3081,-3.3081,-3.3081,-3.3081,-3.3081,-3.3081,-3.2513,-3.1211,-3.0765,-3.058,-3.056,-2.9246,-2.8666,-2.8737,-2.8281,-2.8154,0.0,0.0,0.0,-3.1089,-3.0208,-2.9617,-3.079,-3.1136,-3.1528,-3.2796,-3.3068,-3.3081,-3.3068,-3.3081,-3.3081,-3.3081,-3.3081,-3.3081,-3.3081,-3.3081,-3.3081,-3.3081,-3.3081,-3.3081,-3.3081,-3.3081,-3.3081,-3.3081,-3.3081,-3.3081,-3.3081,-3.3081,-3.3081,-3.3081,-3.3081,-3.3081,-3.3081,-3.3081,-3.3081,-3.3081,-3.3081,-3.3081,-3.3081,-3.3081,-3.3081,-3.3081,-3.3081,-3.3081,-3.3081,-3.3081,-3.3081,-3.3081,-3.3081,-3.3081,-3.3081,-3.3081,-3.3081,-3.3081,-3.3081,-3.3081,-3.3081,-3.3081,-3.3081,-3.3081,-3.3081,-3.3081,-3.3081,-3.3081,-3.3081,-3.3081,-3.3081,-3.3081,-3.3081,-3.3081,-3.3081,-3.3081,-3.3081,-3.3081,-3.3081,-3.3081,-3.3081,-3.3081,-3.3081,-3.3081,-3.3081,-3.3081,-3.3081,-3.3081,-3.3081,-3.3081,-3.3081,-3.3081,-3.3081,-3.3081,-3.3081,-3.3081,-3.3081,-3.3081,-3.3081,-3.3081,-3.3081,-3.3068,-3.2426,-3.1134,-2.9943,-2.8773,-2.7494,-2.7944,-2.7737,-2.7021,-2.7471,-2.791,-3.0866,0.0,0.0,0.0,0.0,0.0,-2.85,-2.9239,-3.0267,-3.1476,-3.1689,-3.2052,-3.2896,-3.3081,-3.3081,-3.3081,-3.3081,-3.3081,-3.3081,-3.3081,-3.3081,-3.3081,-3.3081,-3.3081,-3.3081,-3.3081,-3.3081,0.0,-3.3081,-3.3081,-3.3081,-3.3081,-3.3081,-3.3081,-3.3081,-3.3081,-3.3081,-3.3081,-3.3081,-3.3081,-3.3081,-3.3081,-3.3081,-3.3081,-3.3081,-3.3081,-3.3081,-3.3081,-3.3081,-3.3081,-3.3081,-3.3081,-3.3081,-3.3081,-3.3081,-3.3081,-3.3081,-3.3081,-3.3081,-3.3081,-3.3081,-3.3081,-3.3081,-3.3081,-3.3081,-3.3081,-3.3081,-3.3081,-3.3081,-3.3081,-3.3081,-3.3081,-3.3081,-3.3081,-3.3081,-3.3081,-3.3081,-3.3081,-3.3081,-3.3081,-3.3081,-3.3081,-3.3081,-3.3081,-3.3081,-3.3081,-3.3081,-3.3081,-3.3081,-3.3081,-3.3081,-3.3081,-3.3081,-3.3081,-3.3081,-3.3081,-3.3081,-3.3081,-3.3081,-3.3081,-3.3081,-3.2239,-3.1134,-2.9943,-2.868,-2.7494,-2.6197,-2.6645,-2.6883,-2.7031,-2.7773,-2.8184,-3.0676,-3.0135,-2.959,-2.7125,0.0,0.0,-2.8226,-2.8866,-2.9863,-3.1589,-3.1965,-3.2239,-3.2982,-3.3081,-3.3081,-3.3081,-3.3081,-3.3081,-3.3081,-3.3081,-3.3081,-3.3081,-3.3081,-3.3081,-3.3081,-3.3081,-3.3081,-3.3081,-3.3081,-3.3081,-3.3081,-3.3081,-3.3081,-3.3081,-3.3081,-3.3081,-3.3081,-3.3081,-3.3081,-3.3081,-3.3081,-3.3081,-3.3081,-3.3081,-3.3081,-3.3081,-3.3081,-3.3081,-3.3081,-3.3081,-3.3081,-3.3081,-3.3081,-3.3081,-3.3081,-3.3081,-3.3081,-3.3081,-3.3081,-3.3081,-3.3081,-3.3081,-3.3081,-3.3081,-3.3081,-3.3081,-3.3081,-3.3081,-3.3081,-3.3081,-3.3081,-3.3081,-3.3081,-3.3081,-3.3081,-3.3081,-3.3081,-3.3081,-3.3081,-3.3081,-3.3081,-3.3081,-3.3081,-3.3081,-3.3081,-3.3081,-3.3081,-3.3081,-3.3081,-3.3081,-3.3081,-3.3081,-3.3081,-3.3081,-3.3081,-3.3081,-3.3081,-3.3081,-3.3081,-3.3081,-3.3081,-3.2426,-3.1146,-2.9407,-2.868,-2.7494,-2.5742,-2.5986,-2.6426,-2.7031,-2.7715,-2.8125,-3.1589,-3.1122,-3.0496,-2.8132,-2.7494,0.0,-2.8773,-2.8947,-2.9681,-3.1977,-3.2525,-3.2525,-3.2612,-3.2711,-3.2711,-3.2711,-3.2797,-3.2982,-3.3068,-3.3081,-3.3081,-3.3081,-3.3081,-3.3081,-3.3081,-3.3081,-3.3081,-3.3081,-3.3081,-3.3081,-3.3081,-3.3081,-3.3081,-3.3081,-3.3081,-3.3081,-3.3081,-3.3081,-3.3081,-3.3081,-3.3081,-3.3081,-3.3081,-3.3081,-3.3081,-3.3081,-3.3081,-3.3081,-3.3081,-3.3081,-3.3081,-3.3081,-3.3081,-3.3081,-3.3081,-3.3081,-3.3081,-3.3081,-3.3081,-3.3081,-3.3081,-3.3081,-3.3081,-3.3081,-3.3081,-3.3081,-3.3081,-3.3081,-3.3081,-3.3081,-3.3081,-3.3081,-3.3081,-3.3081,-3.3081,-3.3081,-3.3081,-3.3081,-3.3081,-3.3081,-3.3081,-3.3081,-3.3081,-3.3081,-3.3081,-3.3081,-3.3081,-3.3081,-3.3081,-3.3081,-3.3081,-3.3081,-3.3081,-3.3081,-3.3081,-3.3081,-3.3081,-3.3081,-3.3081,-3.3081,-3.3081,-3.2982,-3.1789,-2.9407,-2.9131,-2.7945,-2.5742,-2.5781,-2.623,-2.7021,-2.7461,-2.7891,-3.1589,-3.0496,-2.9407,-2.7955,-2.6849,0.0,-2.638,-2.638,-2.6839,-2.8319,-2.8691,-2.8958,-2.9954,-3.0135,-3.0135,-3.0135,-3.0956,-3.1952,-3.2982,-3.3081,-3.3081,-3.3081,-3.3081,-3.3081,-3.3081,-3.3081,-3.3081,-3.3081,-3.3081,-3.3081,-3.3081,-3.3081,-3.3081,-3.3081,-3.3081,-3.3081,-3.3081,-3.3081,-3.3081,-3.3081,-3.3081,-3.3081,-3.3081,-3.3081,-3.3081,-3.3081,-3.3081,-3.3081,-3.3081,-3.3081,-3.3081,-3.3081,-3.3081,-3.3081,-3.3081,-3.3081,-3.3081,-3.3081,-3.3081,-3.3081,-3.3081,-3.3081,-3.3081,-3.3081,-3.3081,-3.3081,-3.3081,-3.3081,-3.3081,-3.3081,-3.3081,-3.3081,-3.3081,-3.3081,-3.3081,-3.3081,-3.3081,-3.3081,-3.3081,-3.3081,-3.3081,-3.3081,-3.3081,-3.3081,-3.3081,-3.3081,-3.3081,-3.3081,-3.3081,-3.3081,-3.3081,-3.3081,-3.3081,-3.3081,-3.3081,-3.3081,-3.3081,-3.3081,-3.3081,-3.3081,-3.3081,-3.214,-3.0866,-2.9407,-2.7484,-2.6197,-2.5742,-2.6094,-2.6523,-2.7021,-2.7461,-2.7891,-3.1589,-3.0316,-2.9131,-2.7861,-2.6668,0.0,0.0,-2.6668,-2.703,-2.8226,-2.8495,-2.868,-2.9315,-2.9407,-2.9407,-2.9407,-3.0406,-3.1223,-3.1235,-3.2339,-3.3081,-3.3081,-3.3081,-3.3081,-3.3081,-3.3081,-3.3081,-3.3081,-3.3081,-3.3081,-3.3081,-3.3081,-3.3081,-3.3081,-3.3081,-3.3081,-3.3081,-3.3081,-3.3081,-3.3081,-3.3081,-3.3081,-3.3081,-3.3081,-3.3081,-3.3081,-3.3081,-3.3081,-3.3081,-3.3081,-3.3081,-3.3081,-3.3081,-3.3081,-3.3081,-3.3081,-3.3081,-3.3081,-3.3081,-3.3081,-3.3081,-3.3081,-3.3081,-3.3081,-3.3081,-3.3081,-3.3081,-3.3081,-3.3081,-3.3081,-3.3081,-3.3081,-3.3081,-3.3081,-3.3081,-3.3081,-3.3081,-3.3081,-3.3081,-3.3081,-3.3081,-3.3081,-3.3081,-3.3081,-3.3081,-3.3081,-3.3081,-3.3081,-3.3081,-3.3081,-3.3081,-3.3081,-3.3081,-3.3081,-3.3081,-3.3081,-3.3081,-3.3081,-3.3081,-3.3081,-3.3081,-3.2513,-3.1323,-2.9407,-2.6924,-2.5742,-2.5742,-2.5957,-2.6396,-2.7021,-2.7236,-2.7685,-3.1865,-3.0687,-2.9498,-2.8495,-2.721,-2.6294,0.0,0.0,0.0,-2.8495,-2.8669,-2.8669,-2.8669,-2.8669,-2.8637,-2.8538,-2.9704,-3.0101,-2.9101,-3.0897,-3.2426,-3.2426,-3.2797,-3.2982,-3.2797,-3.2698,-3.2797,-3.3068,-3.2884,-3.2797,-3.3081,-3.3081,-3.3081,-3.3081,-3.3081,-3.3081,-3.3081,-3.3081,-3.3081,-3.3081,-3.3081,-3.3081,-3.3081,-3.3081,-3.3081,-3.3081,-3.3081,-3.3081,-3.3081,-3.3081,-3.3081,-3.3081,-3.3081,-3.3081,-3.3081,-3.3081,-3.3081,-3.3081,-3.3081,-3.3081,-3.3081,-3.3081,-3.3081,-3.3081,-3.3081,-3.3081,-3.3081,-3.3081,-3.3081,-3.3081,-3.3081,-3.3081,-3.3081,-3.3081,-3.3081,-3.3081,-3.3081,-3.3081,-3.3081,-3.3081,-3.3081,-3.3081,-3.3081,-3.3081,-3.3081,-3.3081,-3.3081,-3.3081,-3.3081,-3.3081,-3.3081,-3.3081,-3.3081,-3.3081,-3.3081,-3.3081,-3.3081,-3.3081,-3.2884,-3.2797,-3.3081,-3.2612,-3.1424,-2.9407,-2.6924,-2.5742,-2.5742,-2.5742,-2.6182,-2.7012,-2.7012,-2.7471,-3.2884,-3.1965,-3.0944,-3.0855,-2.9039,-2.74,-2.7589,0.0,-2.5917,-2.611,0.0,-2.61,-2.61,0.0,0.0,-2.566,-2.6941,-2.7806,-2.7299,-2.8682,-2.9863,-2.9863,-3.1789,-3.2698,-3.15,-3.14,-3.1865,-3.2982,-3.2052,-3.1877,-3.3068,-3.3081,-3.3081,-3.3081,-3.3081,-3.3081,-3.3081,-3.3081,-3.3081,-3.3081,-3.3081,-3.3081,-3.3081,-3.3081,-3.3081,-3.3081,-3.3081,-3.3081,-3.3081,-3.3081,-3.3081,-3.3081,-3.3081,-3.3081,-3.3081,-3.3081,-3.3081,-3.3081,-3.3081,-3.3081,-3.3081,-3.3081,-3.3081,-3.3081,-3.3081,-3.3081,-3.3081,-3.3081,-3.3081,-3.3081,-3.3081,-3.3081,-3.3081,-3.3081,-3.3081,-3.3081,-3.3081,-3.3081,-3.3081,-3.3081,-3.3081,-3.3081,-3.3081,-3.3081,-3.3081,-3.3081,-3.3081,-3.3081,-3.3081,-3.3081,-3.3081,-3.3081,-3.3081,-3.3081,-3.3081,-3.3081,-3.3081,-3.3081,-3.2052,-3.1965,-3.3068,-3.0956,-2.9681,-2.9407,-2.6924,-2.5742,-2.5742,-2.5742,-2.6182,-2.7012,-2.7012,-2.7471,-3.298,-3.2152,-3.1223,-3.1223,-2.9954,-2.8495,-2.7767,-2.722,-2.6572,-2.583,0.0,0.0,0.0,0.0,0.0,0.0,-2.6632,-2.7243,-2.632,-2.8086,-2.9407,-2.9407,-3.0316,0.0,-3.1211,-3.0949,-3.1317,-3.2481,-3.1211,-3.0858,-3.2089,-3.2102,-3.2102,-3.2102,-3.2102,-3.2102,-3.2102,-3.2416,-3.2579,-3.2579,-3.2918,-3.3081,-3.3081,-3.3081,-3.3081,-3.3081,-3.3081,-3.3081,-3.3081,-3.3081,-3.3081,-3.3081,-3.3081,-3.3081,-3.3081,-3.3081,-3.3081,-3.3081,-3.3081,-3.3081,-3.3081,-3.3081,-3.3081,-3.3081,-3.3081,-3.3081,-3.3081,-3.3081,-3.3081,-3.3081,-3.3081,-3.3081,-3.3081,-3.3081,-3.3081,-3.3081,-3.3081,-3.3081,-3.3081,-3.3081,-3.3081,-3.3081,-3.3081,-3.3081,-3.3081,-3.3081,-3.3081,-3.3081,-3.3081,-3.3081,-3.3081,-3.3081,-3.3081,-3.3081,-3.3081,-3.3081,-3.3081,-3.3081,-3.1865,-3.1134,-3.0956,-2.9326,-2.8319,-2.8319,-2.6562,-2.5742,-2.5742,-2.5742,-2.6182,-2.7012,-2.7012,-2.7471,-3.2679,-3.2192,-3.1396,-3.1276,-3.0316,-2.9039,-2.7861,-2.7305,-2.6849,-2.5927,-2.5742,0.0,0.0,0.0,-2.5693,-2.5576,0.0,-2.6672,-2.5496,-2.7025,-2.8196,-2.8196,-2.8444,-2.8992,0.0,-2.9753,-2.9966,-3.1462,-3.0145,-2.993,-3.1304,-3.1386,-3.1386,-3.1386,-3.1386,-3.1386,-3.1386,-3.1788,-3.1989,-3.1989,-3.2416,-3.2692,-3.2842,-3.2842,-3.293,-3.3081,-3.3081,-3.3081,-3.3081,-3.3081,-3.3081,-3.3081,-3.3081,-3.3081,-3.3081,-3.3081,-3.3081,-3.3081,-3.3081,-3.3081,-3.3081,-3.3081,-3.3081,-3.3081,-3.3081,-3.3081,-3.3081,-3.3081,-3.3081,-3.3081,-3.3081,-3.3081,-3.3081,-3.3081,-3.3081,-3.3081,-3.3081,-3.3081,-3.3081,-3.3081,-3.3081,-3.3081,-3.3081,-3.3081,-3.3081,-3.3081,-3.3081,-3.3081,-3.3081,-3.3081,-3.3081,-3.3081,-3.3081,-3.3081,-3.3081,-3.3081,-3.2797,-3.2152,-3.15,-3.0496,-2.8947,-2.8038,-2.7589,-2.7589,-2.639,-2.5742,-2.5742,-2.5742,-2.6182,-2.7012,-2.7012,-2.7471,-3.2089,-3.224,-3.2015,-3.1368,-3.0316,-2.9039,-2.7861,-2.6668,-2.5732,-2.5732,-2.5742,-2.5742,-2.5742,-2.5742,-2.5596,-2.5166,-2.5449,0.0,0.0,-2.4908,-2.5277,-2.5277,-2.5961,-2.684,0.0,-2.7084,-2.7426,-2.9701,-2.8729,-2.8963,-3.1304,-3.1386,-3.1386,-3.1386,-3.1386,-3.1386,-3.1386,-3.1411,-3.1411,-3.1411,-3.1436,-3.1725,-3.224,-3.224,-3.2554,-3.3081,-3.3081,-3.3081,-3.3081,-3.3081,-3.3081,-3.3081,-3.3081,-3.3081,-3.3081,-3.3081,-3.3081,-3.3081,-3.3081,-3.3081,-3.3081,-3.3081,-3.3081,-3.3081,-3.3081,-3.3081,-3.3081,-3.3081,-3.3081,-3.3081,-3.3081,-3.3081,-3.3081,-3.3081,-3.3081,-3.3081,-3.3081,-3.3081,-3.3081,-3.3081,-3.3081,-3.3081,-3.3081,-3.3081,-3.3081,-3.3081,-3.3081,-3.3081,-3.3081,-3.3081,-3.3081,-3.3081,-3.3081,-3.3081,-3.3081,-3.3081,-3.2064,-2.9681,-3.0586,-3.0135,-2.7778,-2.7589,-2.7589,-2.7589,-2.639,-2.5742,-2.5742,-2.5742,-2.6182,-2.7012,-2.7012,-2.7471,0.0,0.0,-3.1718,-3.1821,0.0,-3.0795,-2.9157,-2.8495,-2.7945,-2.7125,-2.6294,-2.5917,-2.6754,-2.6294,-2.5684,-2.5537,-2.5391,-2.5185,0.0,-2.4482,-2.4219,-2.4219,-2.548,-2.6441,-2.6885,-2.6944,-2.7617,-2.9059,-2.848,-2.8712,-3.0253,-3.0331,-3.0331,-3.0331,-3.0331,-3.0331,-3.0331,-3.0696,-3.0871,-3.0884,-3.1223,-3.1486,-3.1675,-3.1675,-3.1775,-3.1976,-3.2353,-3.2503,-3.2541,-3.2918,-3.3081,-3.3081,-3.3081,-3.3081,-3.3081,-3.3081,-3.3081,-3.3081,-3.3081,-3.3081,-3.3081,-3.3081,-3.3081,-3.3081,-3.3081,-3.3081,-3.3081,-3.3081,-3.3081,-3.3081,-3.3081,-3.3081,-3.3081,-3.3081,-3.3081,-3.3081,-3.3081,-3.3081,-3.3081,-3.3081,-3.3081,-3.3081,-3.3081,-3.3081,-3.3081,-3.3081,-3.3081,-3.3081,-3.3081,-3.3081,-3.3081,-3.3081,-3.3081,-3.3081,-3.3081,-3.3081,-3.2064,-2.959,-2.9761,-2.8947,-2.6476,-2.639,-2.639,-2.639,-2.5927,-2.5742,-2.5742,-2.6025,-2.6465,-2.7021,-2.7314,-2.7754,-3.0972,-3.1122,0.0,-3.1264,-3.1304,0.0,-2.9476,0.0,-2.8921,-2.8369,-2.7579,-2.7305,-2.8132,-2.7579,-2.6788,-2.6265,-2.5899,-2.5505,0.0,-2.4004,-2.3555,-2.3555,-2.4484,-2.5347,-2.5767,-2.5764,-2.6594,-2.8514,-2.7951,-2.8199,-2.9702,-2.9792,-2.9792,-2.9792,-2.9792,-2.9792,-2.9792,-3.0143,-3.0319,-3.0331,-3.067,-3.0922,-3.1122,-3.1122,-3.1223,-3.1411,-3.1763,-3.2026,-3.224,-3.2616,-3.2893,-3.3081,-3.3081,-3.3081,-3.3081,-3.3081,-3.3081,-3.3081,-3.3081,-3.3081,-3.3081,-3.3081,-3.3081,-3.3081,-3.3081,-3.3081,-3.3081,-3.3081,-3.3081,-3.3081,-3.3081,-3.3081,-3.3081,-3.3081,-3.3081,-3.3081,-3.3081,-3.3081,-3.3081,-3.3081,-3.3081,-3.3081,-3.3081,-3.3081,-3.3081,-3.3081,-3.3081,-3.3081,-3.3081,-3.3081,-3.3081,-3.3081,-3.3081,-3.2896,-3.2426,-3.2426,-3.1424,-2.8958,-2.8773,-2.7851,-2.5732,-2.5742,-2.581,-2.5967,-2.582,-2.5889,-2.6191,-2.6328,-2.668,-2.7256,-2.7539,-2.7891]},{"header":{"parameterUnit":"m.s-1","parameterCategory":1,"la1":30.6,"la2":29.2853,"lo1":-89.7004,"lo2":-87.6739,"dy":0.0162,"dx":0.0183,"nx":112,"ny":82,"refTime":"2023-03-23T06:00:00:Z","depth":0,"parameterNumber":3,"parameterNumberName":"V-component_of_WINDS"},"data":[0.0,0.0,0.0,0.0,0.0,0.0,0.0,0.0,0.0,0.0,0.0,0.0,0.0,0.0,0.0,0.0,0.0,0.0,0.0,0.0,0.0,0.0,0.0,0.0,0.0,0.0,0.0,0.0,0.0,0.0,0.0,0.0,0.0,0.0,0.0,0.0,0.0,0.0,0.0,0.0,0.0,0.0,0.0,0.0,0.0,0.0,0.0,0.0,0.0,0.0,0.0,0.0,0.0,0.0,0.0,0.0,0.0,0.0,0.0,0.0,0.0,0.0,0.0,0.0,0.0,0.0,0.0,0.0,0.0,0.0,0.0,0.0,0.0,0.0,0.0,0.0,0.0,0.0,0.0,0.0,0.0,0.0,0.0,0.0,0.0,0.0,0.0,0.0,0.0,0.0,-3.6337,-3.5554,-3.5504,-3.5504,-3.5504,-3.5504,-3.5504,-3.5504,0.0,0.0,0.0,0.0,0.0,0.0,0.0,0.0,0.0,0.0,0.0,0.0,0.0,0.0,0.0,0.0,0.0,0.0,0.0,0.0,0.0,0.0,0.0,0.0,0.0,0.0,0.0,0.0,0.0,0.0,0.0,0.0,0.0,0.0,0.0,0.0,0.0,0.0,0.0,0.0,0.0,0.0,0.0,0.0,0.0,0.0,0.0,0.0,0.0,0.0,0.0,0.0,0.0,0.0,0.0,0.0,0.0,0.0,0.0,0.0,0.0,0.0,0.0,0.0,0.0,0.0,0.0,0.0,0.0,0.0,0.0,0.0,0.0,0.0,0.0,0.0,0.0,0.0,0.0,0.0,0.0,0.0,0.0,0.0,0.0,0.0,0.0,0.0,0.0,0.0,0.0,0.0,0.0,0.0,0.0,0.0,0.0,0.0,0.0,0.0,0.0,0.0,0.0,0.0,-3.6337,-3.5554,-3.5504,-3.5504,-3.5504,-3.5504,-3.5504,-3.5504,0.0,0.0,0.0,0.0,0.0,0.0,0.0,0.0,0.0,0.0,0.0,0.0,0.0,0.0,0.0,0.0,0.0,0.0,0.0,0.0,0.0,0.0,0.0,0.0,0.0,0.0,0.0,0.0,0.0,0.0,0.0,0.0,0.0,0.0,0.0,0.0,0.0,0.0,0.0,0.0,0.0,0.0,0.0,0.0,0.0,0.0,0.0,0.0,0.0,0.0,0.0,0.0,0.0,0.0,0.0,0.0,0.0,0.0,0.0,0.0,0.0,0.0,0.0,0.0,0.0,0.0,0.0,0.0,0.0,0.0,0.0,0.0,0.0,0.0,0.0,0.0,0.0,0.0,0.0,0.0,0.0,0.0,0.0,0.0,0.0,0.0,0.0,0.0,0.0,0.0,0.0,0.0,0.0,0.0,0.0,0.0,0.0,0.0,0.0,0.0,0.0,0.0,0.0,-3.6243,-3.5672,-3.4758,-3.4691,-3.4476,-3.3973,-3.3905,-3.4124,-3.4624,-3.4691,0.0,0.0,0.0,0.0,0.0,0.0,0.0,0.0,0.0,0.0,0.0,0.0,0.0,0.0,0.0,0.0,0.0,0.0,0.0,0.0,0.0,0.0,0.0,0.0,0.0,0.0,0.0,0.0,0.0,0.0,0.0,0.0,0.0,0.0,0.0,0.0,0.0,0.0,0.0,0.0,0.0,0.0,0.0,0.0,0.0,0.0,0.0,0.0,0.0,0.0,0.0,0.0,0.0,0.0,0.0,0.0,0.0,0.0,0.0,0.0,0.0,0.0,0.0,0.0,0.0,0.0,0.0,0.0,0.0,0.0,0.0,0.0,0.0,0.0,0.0,0.0,0.0,0.0,0.0,0.0,0.0,0.0,0.0,0.0,0.0,0.0,0.0,0.0,0.0,0.0,0.0,0.0,0.0,0.0,0.0,0.0,0.0,0.0,0.0,0.0,0.0,0.0,-3.5133,-3.4773,-3.3808,-3.3671,-3.338,-3.2664,-3.2593,-3.3031,-3.3945,-3.4027,0.0,0.0,0.0,0.0,0.0,0.0,0.0,0.0,0.0,0.0,0.0,0.0,0.0,0.0,0.0,0.0,0.0,0.0,0.0,0.0,0.0,0.0,0.0,0.0,0.0,0.0,0.0,0.0,0.0,0.0,0.0,0.0,0.0,0.0,0.0,0.0,0.0,0.0,0.0,0.0,0.0,0.0,0.0,0.0,0.0,0.0,0.0,0.0,0.0,0.0,0.0,0.0,0.0,0.0,0.0,0.0,0.0,0.0,0.0,0.0,0.0,0.0,0.0,0.0,0.0,0.0,0.0,0.0,0.0,0.0,0.0,0.0,0.0,0.0,0.0,0.0,0.0,0.0,0.0,0.0,0.0,0.0,0.0,0.0,0.0,0.0,0.0,0.0,0.0,0.0,0.0,0.0,0.0,0.0,0.0,0.0,0.0,0.0,0.0,0.0,0.0,0.0,-3.4095,-3.3739,-3.282,-3.2678,-3.2664,-3.2593,-3.2593,-3.3031,-3.3945,-3.4027,0.0,0.0,0.0,0.0,0.0,0.0,0.0,0.0,0.0,0.0,0.0,0.0,0.0,0.0,0.0,0.0,0.0,0.0,0.0,0.0,0.0,0.0,0.0,0.0,0.0,0.0,0.0,0.0,0.0,0.0,0.0,0.0,0.0,0.0,0.0,0.0,0.0,0.0,0.0,0.0,0.0,0.0,0.0,0.0,0.0,0.0,0.0,0.0,0.0,0.0,0.0,0.0,0.0,0.0,0.0,0.0,0.0,0.0,0.0,0.0,0.0,0.0,0.0,0.0,0.0,0.0,0.0,0.0,0.0,0.0,0.0,0.0,0.0,0.0,0.0,0.0,0.0,0.0,0.0,0.0,0.0,0.0,0.0,0.0,0.0,0.0,0.0,0.0,0.0,0.0,0.0,0.0,0.0,0.0,0.0,0.0,0.0,0.0,0.0,0.0,0.0,0.0,-3.492,-3.4543,-3.3602,-3.2961,-3.2393,-3.1742,-3.1193,-3.1476,-3.3031,0.0,0.0,0.0,0.0,0.0,0.0,0.0,0.0,0.0,0.0,0.0,0.0,0.0,0.0,0.0,0.0,0.0,0.0,0.0,0.0,0.0,0.0,0.0,0.0,0.0,0.0,0.0,0.0,0.0,0.0,0.0,0.0,0.0,0.0,0.0,0.0,0.0,0.0,0.0,0.0,0.0,0.0,0.0,0.0,0.0,0.0,0.0,0.0,0.0,0.0,0.0,0.0,0.0,0.0,0.0,0.0,0.0,0.0,0.0,0.0,0.0,0.0,0.0,0.0,0.0,0.0,0.0,0.0,0.0,0.0,0.0,0.0,0.0,0.0,0.0,0.0,0.0,0.0,0.0,0.0,0.0,0.0,0.0,0.0,0.0,0.0,0.0,0.0,0.0,0.0,0.0,0.0,0.0,0.0,0.0,0.0,0.0,0.0,0.0,0.0,0.0,0.0,-3.5067,-3.5052,-3.4624,-3.3671,-3.2961,-3.2249,-3.1241,-3.062,-3.0921,-3.2536,0.0,0.0,0.0,0.0,0.0,0.0,0.0,0.0,0.0,0.0,0.0,0.0,0.0,0.0,0.0,0.0,0.0,0.0,0.0,0.0,0.0,0.0,0.0,0.0,0.0,0.0,0.0,0.0,0.0,0.0,0.0,0.0,0.0,0.0,0.0,0.0,0.0,0.0,0.0,0.0,0.0,0.0,0.0,0.0,0.0,0.0,0.0,0.0,0.0,0.0,0.0,0.0,0.0,0.0,0.0,0.0,0.0,0.0,0.0,0.0,0.0,0.0,0.0,0.0,0.0,0.0,0.0,0.0,0.0,0.0,0.0,0.0,0.0,0.0,0.0,0.0,0.0,0.0,0.0,0.0,0.0,0.0,0.0,0.0,0.0,0.0,0.0,0.0,0.0,0.0,0.0,0.0,0.0,0.0,0.0,0.0,0.0,0.0,0.0,0.0,0.0,0.0,-3.4163,-3.4027,-3.3671,-3.2749,-3.2593,-3.2249,-3.1328,-3.118,-3.1623,0.0,0.0,0.0,0.0,0.0,0.0,0.0,0.0,0.0,0.0,0.0,0.0,0.0,0.0,0.0,0.0,0.0,0.0,0.0,0.0,0.0,0.0,0.0,0.0,0.0,0.0,0.0,0.0,0.0,0.0,0.0,0.0,0.0,0.0,0.0,0.0,0.0,0.0,0.0,0.0,0.0,0.0,0.0,0.0,0.0,0.0,0.0,0.0,0.0,0.0,0.0,0.0,0.0,0.0,0.0,0.0,0.0,0.0,0.0,0.0,0.0,0.0,0.0,0.0,0.0,0.0,0.0,0.0,0.0,0.0,0.0,0.0,0.0,0.0,0.0,0.0,0.0,0.0,0.0,0.0,0.0,0.0,0.0,0.0,0.0,0.0,0.0,0.0,0.0,0.0,0.0,0.0,0.0,0.0,0.0,0.0,0.0,0.0,0.0,0.0,0.0,0.0,0.0,-3.5067,-3.5067,-3.492,-3.4706,-3.3394,-3.2915,-3.3775,-3.1951,-3.1985,-3.481,0.0,0.0,0.0,0.0,0.0,0.0,0.0,0.0,0.0,0.0,0.0,0.0,0.0,0.0,0.0,0.0,0.0,0.0,0.0,0.0,0.0,0.0,0.0,0.0,0.0,0.0,0.0,0.0,0.0,0.0,0.0,0.0,0.0,0.0,0.0,0.0,0.0,0.0,0.0,0.0,0.0,0.0,0.0,0.0,0.0,0.0,0.0,0.0,0.0,0.0,0.0,0.0,0.0,0.0,0.0,0.0,0.0,0.0,0.0,0.0,0.0,0.0,0.0,0.0,0.0,0.0,0.0,0.0,0.0,0.0,0.0,0.0,0.0,0.0,0.0,0.0,0.0,0.0,0.0,0.0,0.0,0.0,0.0,0.0,0.0,0.0,0.0,0.0,0.0,0.0,0.0,0.0,0.0,0.0,0.0,0.0,0.0,0.0,0.0,0.0,0.0,0.0,-3.5504,-3.5729,-3.5893,-3.5893,-3.5073,-3.478,-3.5379,-3.3804,-3.3519,-3.5277,0.0,0.0,0.0,0.0,0.0,0.0,0.0,0.0,0.0,0.0,0.0,0.0,0.0,0.0,0.0,0.0,0.0,0.0,0.0,0.0,0.0,0.0,0.0,0.0,0.0,0.0,0.0,0.0,0.0,0.0,0.0,0.0,0.0,0.0,0.0,0.0,0.0,0.0,0.0,0.0,0.0,0.0,0.0,0.0,0.0,0.0,0.0,0.0,0.0,0.0,0.0,0.0,0.0,0.0,0.0,0.0,0.0,0.0,0.0,0.0,0.0,0.0,0.0,0.0,0.0,0.0,0.0,0.0,0.0,0.0,0.0,0.0,0.0,0.0,0.0,0.0,0.0,0.0,0.0,0.0,0.0,0.0,0.0,0.0,0.0,0.0,0.0,0.0,0.0,0.0,0.0,0.0,0.0,0.0,0.0,0.0,0.0,0.0,0.0,0.0,0.0,0.0,-3.5594,-3.6163,-3.6567,-3.6567,-3.7007,-3.699,-3.6286,-3.6072,-3.5638,-3.4943,0.0,0.0,0.0,0.0,0.0,0.0,0.0,0.0,0.0,0.0,0.0,0.0,0.0,0.0,0.0,0.0,0.0,0.0,0.0,0.0,0.0,0.0,0.0,0.0,0.0,0.0,0.0,0.0,0.0,0.0,0.0,0.0,0.0,0.0,0.0,0.0,0.0,0.0,0.0,0.0,0.0,0.0,0.0,0.0,0.0,0.0,0.0,0.0,0.0,0.0,0.0,0.0,0.0,0.0,0.0,0.0,0.0,0.0,0.0,0.0,-3.9582,0.0,0.0,0.0,0.0,0.0,0.0,0.0,0.0,0.0,0.0,0.0,0.0,0.0,0.0,0.0,0.0,0.0,0.0,0.0,0.0,0.0,0.0,0.0,0.0,0.0,0.0,0.0,0.0,0.0,0.0,0.0,0.0,0.0,0.0,0.0,0.0,0.0,0.0,0.0,0.0,0.0,-3.6282,-3.6821,-3.721,-3.721,-3.6649,-3.6702,-3.7827,-3.6442,-3.6358,-3.8179,-3.7738,0.0,0.0,0.0,0.0,0.0,0.0,0.0,0.0,0.0,0.0,0.0,0.0,0.0,0.0,0.0,0.0,0.0,0.0,0.0,0.0,0.0,0.0,0.0,0.0,0.0,0.0,0.0,0.0,0.0,0.0,0.0,0.0,0.0,0.0,0.0,0.0,0.0,0.0,0.0,0.0,0.0,0.0,0.0,0.0,0.0,0.0,0.0,0.0,0.0,0.0,0.0,0.0,0.0,0.0,0.0,0.0,0.0,0.0,0.0,0.0,-4.0022,0.0,0.0,0.0,0.0,0.0,0.0,0.0,0.0,0.0,0.0,0.0,0.0,0.0,0.0,0.0,0.0,0.0,0.0,0.0,0.0,0.0,0.0,0.0,0.0,0.0,0.0,0.0,0.0,0.0,0.0,0.0,0.0,0.0,0.0,0.0,0.0,0.0,0.0,0.0,0.0,-3.6926,-3.7479,-3.7883,-3.7883,-3.7715,-3.7969,-3.8784,-3.796,-3.7721,-3.8605,-3.862,0.0,0.0,0.0,0.0,0.0,0.0,0.0,0.0,0.0,0.0,0.0,0.0,0.0,0.0,0.0,0.0,0.0,0.0,0.0,0.0,0.0,0.0,0.0,0.0,0.0,0.0,0.0,0.0,0.0,0.0,0.0,0.0,0.0,0.0,0.0,0.0,0.0,0.0,0.0,0.0,0.0,0.0,0.0,0.0,0.0,0.0,0.0,0.0,0.0,0.0,0.0,0.0,0.0,-3.63,-3.6383,-3.7281,-3.7601,-3.8308,-3.9177,-4.01,-4.0177,-3.9699,-4.039,0.0,0.0,0.0,0.0,0.0,0.0,0.0,0.0,0.0,0.0,0.0,0.0,0.0,0.0,0.0,0.0,0.0,0.0,0.0,0.0,0.0,0.0,0.0,0.0,-3.992,-3.9809,-4.1229,0.0,0.0,0.0,0.0,0.0,0.0,0.0,0.0,0.0,0.0,0.0,-3.7584,-3.8153,-3.8571,-3.8571,-3.908,-3.9424,-3.9424,-3.9424,-3.9017,-3.8144,-3.8943,-3.9017,0.0,0.0,0.0,0.0,0.0,0.0,0.0,0.0,0.0,0.0,0.0,0.0,0.0,0.0,0.0,0.0,0.0,0.0,0.0,0.0,0.0,0.0,0.0,0.0,0.0,0.0,0.0,0.0,0.0,0.0,0.0,0.0,-3.6274,-3.4515,0.0,0.0,0.0,0.0,0.0,0.0,0.0,0.0,0.0,0.0,0.0,0.0,0.0,-3.354,-3.4727,-3.4766,-3.4899,-3.5102,-3.4966,-3.4979,-3.5142,-3.6958,-3.7904,-3.8069,-3.9147,0.0,-3.9489,-4.0332,0.0,0.0,0.0,0.0,0.0,0.0,0.0,0.0,0.0,0.0,0.0,0.0,0.0,0.0,0.0,0.0,0.0,0.0,0.0,0.0,0.0,0.0,-3.9538,-3.9538,-3.9481,-3.9481,0.0,-3.9681,-3.9538,-3.9538,-3.9406,0.0,0.0,0.0,0.0,0.0,0.0,0.0,-3.8257,-3.8856,-3.929,-3.929,-3.9364,-3.9424,-3.9424,-3.9424,-3.9337,-3.9177,-3.9337,-3.9337,-3.9177,-3.9177,0.0,0.0,0.0,0.0,0.0,0.0,0.0,0.0,0.0,0.0,0.0,0.0,0.0,0.0,0.0,0.0,0.0,0.0,0.0,0.0,0.0,0.0,0.0,0.0,0.0,0.0,0.0,0.0,0.0,-3.6817,-3.551,-3.4853,-3.4143,-3.3805,0.0,0.0,0.0,0.0,0.0,0.0,0.0,0.0,0.0,-3.0153,-3.1277,-3.2298,-3.3181,-3.3592,-3.3797,-3.3797,-3.3797,-3.4108,-3.4746,-3.5615,-3.6724,-3.7829,-3.8308,-3.8855,-3.9424,-3.9793,-4.0239,-4.069,0.0,0.0,0.0,0.0,-4.1609,-4.1933,-4.1412,-4.128,-4.128,-4.128,0.0,0.0,0.0,0.0,0.0,0.0,0.0,0.0,0.0,0.0,-3.9424,-3.9424,-3.9424,-3.9424,-3.9424,-3.9424,-3.9424,0.0,-3.9424,-3.9424,-3.9424,0.0,0.0,0.0,0.0,-3.8975,-3.8975,-3.923,-3.9424,-3.9424,-3.9424,-3.9424,-3.9424,-3.9424,-3.9424,-3.9424,-3.9424,-3.9424,-3.9424,-3.9424,-3.9424,0.0,0.0,0.0,0.0,0.0,0.0,0.0,0.0,0.0,0.0,0.0,0.0,0.0,0.0,0.0,0.0,0.0,0.0,0.0,0.0,0.0,0.0,0.0,0.0,0.0,0.0,0.0,0.0,-3.5413,-3.453,-3.4394,-3.3115,-3.2522,0.0,0.0,0.0,0.0,0.0,0.0,-2.7702,-2.7528,-2.7722,-2.8457,-2.9815,-3.0902,-3.1443,-3.2585,-3.3081,-3.3081,-3.3081,-3.3556,-3.4275,-3.4594,-3.5534,-3.7035,-3.7601,-3.8234,-3.9017,-3.9265,-3.9793,-4.0309,-3.9666,-4.0185,-4.1295,-4.0638,-4.0758,-4.1229,-4.0569,-4.0378,-4.0378,-4.0378,-4.0378,-4.05,-4.1412,0.0,0.0,0.0,0.0,-4.0378,-4.0378,-3.9864,-3.9424,-3.9424,-3.9424,-3.9424,-3.9424,-3.9424,-3.9424,0.0,-3.9424,-3.9424,-3.9424,0.0,0.0,-3.9424,-3.9424,-3.9424,-3.9424,-3.9424,-3.9424,-3.9424,-3.9424,-3.9424,-3.9424,-3.9424,-3.9424,-3.9424,-3.9424,-3.9424,-3.9424,-3.9424,-3.9424,-3.9424,0.0,0.0,0.0,0.0,0.0,0.0,0.0,0.0,0.0,0.0,0.0,0.0,0.0,0.0,0.0,0.0,0.0,0.0,0.0,0.0,0.0,0.0,0.0,0.0,0.0,0.0,0.0,0.0,0.0,-3.1536,-3.1315,0.0,0.0,0.0,0.0,-2.9592,-2.8046,-2.6645,-2.5577,-2.5941,-2.595,-2.5387,-2.7698,-2.9116,-2.9545,-3.1865,-3.3081,-3.3081,-3.3081,-3.3154,-3.324,-3.4275,-3.4746,-3.4979,-3.6958,-3.7829,-3.7994,-3.8943,-3.9424,-3.9481,-3.9409,-3.9481,-3.9553,-3.9481,-3.9481,-3.9538,-3.9481,-3.9481,-3.9481,-3.9481,-3.9481,-3.961,-4.05,-4.0185,0.0,0.0,-4.0115,-3.9481,-3.9481,-3.9409,-3.9424,-3.9424,-3.9424,-3.9424,-3.9424,-3.9424,-3.9424,0.0,-3.9424,-3.9424,-3.9424,0.0,-3.9424,-3.9424,-3.9424,-3.9424,-3.9424,-3.9424,-3.9424,-3.9424,-3.9424,-3.9424,-3.9424,-3.9424,-3.9424,-3.9424,-3.9424,-3.9424,-3.9424,-3.9424,-3.9424,-3.9424,-3.9424,0.0,0.0,0.0,0.0,0.0,0.0,0.0,0.0,0.0,0.0,0.0,0.0,0.0,0.0,0.0,0.0,0.0,0.0,0.0,0.0,0.0,0.0,0.0,0.0,0.0,0.0,0.0,0.0,-3.2961,-3.1415,0.0,-3.0113,-2.8555,-2.7348,-2.6914,-2.5711,-2.5064,-2.5207,-2.5388,-2.5865,-2.6679,-2.7524,-2.8873,-3.0586,-3.1412,-3.2326,-3.3081,-3.3081,-3.3081,-3.3081,-3.3471,-3.4037,-3.4746,-3.6146,-3.7175,-3.7904,-3.8943,-3.9424,-3.9424,-3.9424,-3.9424,-3.9424,-3.9424,-3.9424,-3.9424,-3.9424,-3.9424,-3.9424,-3.9424,-3.9424,-3.9481,-3.9809,-3.9681,-3.9481,-3.9809,-3.961,-3.9424,-3.9424,-3.9424,-3.9424,-3.9424,-3.9424,-3.9424,-3.9424,-3.9424,-3.9424,-3.9424,-3.9424,-3.9424,-3.9424,-3.9424,-3.9424,-3.9424,-3.9424,-3.9424,-3.9424,-3.9424,-3.9424,-3.9424,-3.9424,-3.9424,-3.9424,-3.9424,-3.9424,-3.9424,-3.9424,-3.9424,-3.9424,-3.9424,-3.9424,-3.9424,-3.9424,-3.9424,0.0,0.0,0.0,0.0,0.0,0.0,0.0,0.0,0.0,0.0,0.0,0.0,0.0,0.0,0.0,0.0,0.0,0.0,0.0,0.0,0.0,0.0,0.0,0.0,0.0,-3.4263,-3.282,-3.3449,-3.1355,-2.9817,-2.9892,-2.8322,-2.6993,-2.6302,-2.5365,-2.4914,-2.5134,-2.5215,-2.5984,-2.7579,-2.7945,-2.9131,-3.1211,-3.1589,-3.2239,-3.3081,-3.3081,-3.3081,-3.3081,-3.3081,-3.3471,-3.4191,-3.5278,-3.6304,-3.7343,-3.8383,-3.9104,-3.9424,-3.9424,-3.9424,-3.9424,-3.9424,-3.9424,-3.9424,-3.9424,-3.9424,-3.9424,-3.9424,-3.9424,-3.9424,-3.9424,-3.9424,-3.9424,-3.9424,-3.9424,-3.9424,-3.9424,-3.9424,-3.9424,-3.9424,-3.9424,-3.9424,-3.9424,-3.9424,-3.9424,-3.9424,-3.9424,-3.9424,-3.9424,-3.9424,-3.9424,-3.9424,-3.9424,-3.9424,-3.9424,-3.9424,-3.9424,-3.9424,-3.9424,-3.9424,-3.9424,-3.9424,-3.9424,-3.9424,-3.9424,-3.9424,-3.9424,-3.9424,-3.9529,-3.9753,-3.9753,-3.9649,-3.9424,0.0,0.0,0.0,0.0,0.0,0.0,0.0,0.0,0.0,0.0,0.0,0.0,0.0,0.0,0.0,0.0,0.0,0.0,0.0,0.0,0.0,0.0,0.0,-3.6615,-3.4263,-3.2593,-3.2593,-3.0934,-3.003,-3.0478,-2.9582,-2.8596,-2.7906,-2.7248,-2.6352,-2.5183,-2.5498,-2.6294,-2.7589,-2.8773,-2.9954,-3.1223,-3.2426,-3.3081,-3.3081,-3.3081,-3.3081,-3.3081,-3.3081,-3.3081,-3.3154,-3.4191,-3.5278,-3.6277,-3.7343,-3.8472,-3.9424,-3.9424,-3.9424,-3.9424,-3.9424,-3.9424,-3.9424,-3.9424,-3.9424,-3.9424,-3.9424,-3.9424,-3.9424,-3.9424,-3.9424,-3.9424,-3.9424,-3.9424,-3.9424,-3.9424,-3.9424,-3.9424,-3.9424,-3.9424,-3.9424,-3.9424,-3.9424,-3.9424,-3.9424,-3.9424,-3.9424,-3.9424,-3.9424,-3.9424,-3.9424,-3.9424,0.0,-3.9424,-3.9424,-3.9424,-3.9424,-3.9424,-3.9424,-3.9424,-3.9424,-3.9424,-3.9424,-3.9424,-3.9424,-3.9424,-3.9424,-3.9723,-4.0352,-4.0367,-4.0053,-3.9424,0.0,0.0,0.0,0.0,0.0,0.0,0.0,0.0,0.0,0.0,0.0,0.0,0.0,0.0,0.0,0.0,0.0,0.0,0.0,0.0,0.0,-3.7712,-3.6615,-3.6615,-3.4263,-3.2593,-3.2593,-3.1287,-3.0102,-2.9464,-2.9486,-2.8889,-2.728,-2.6996,-2.6496,-2.5537,-2.6502,-2.722,-2.7589,-2.8773,-2.9954,-3.1223,-3.1589,-3.2152,-3.3081,-3.3081,-3.3081,-3.3081,-3.3081,-3.3081,-3.3154,-3.4191,-3.5278,-3.6277,-3.7343,-3.8472,-3.9424,-3.9424,-3.9424,-3.9424,-3.9424,-3.9424,-3.9424,-3.9424,-3.9424,-3.9424,-3.9424,-3.9424,-3.9424,-3.9424,-3.9424,-3.9424,-3.9424,-3.9424,-3.9424,-3.9424,-3.9424,-3.9424,-3.9424,-3.9424,-3.9424,-3.9424,-3.9424,-3.9424,-3.9424,-3.9424,-3.9424,-3.9424,-3.9424,-3.9424,-3.9424,-3.9424,0.0,-3.9424,-3.9424,-3.9424,-3.9424,-3.9424,-3.9424,-3.9424,-3.9424,-3.9424,-3.9424,-3.9424,-3.9424,-3.9424,-3.9424,-3.9514,-3.9694,-3.9694,-3.9604,0.0,0.0,0.0,0.0,0.0,0.0,0.0,0.0,0.0,0.0,0.0,0.0,0.0,0.0,0.0,0.0,0.0,0.0,0.0,0.0,0.0,0.0,-3.7456,-3.66,-3.6547,-3.4864,-3.3409,-3.298,-3.2154,-3.1225,-3.0367,-3.0601,-3.004,-2.813,-2.8437,-2.8017,-2.6552,-2.7673,-2.8588,-2.9131,-2.9772,-3.0777,-3.1952,-3.1965,-3.2339,-3.3081,-3.3081,-3.3081,-3.3081,-3.3081,-3.3081,-3.3154,-3.3797,-3.4664,-3.5668,-3.6696,-3.7738,0.0,0.0,0.0,0.0,0.0,-3.9424,-3.9424,-3.9424,-3.9424,-3.9424,-3.9424,-3.9424,-3.9424,-3.9424,-3.9424,-3.9424,-3.9424,-3.9424,-3.9424,-3.9424,-3.9424,-3.9424,-3.9424,-3.9424,-3.9424,-3.9424,-3.9424,-3.9424,-3.9424,-3.9424,0.0,-3.9424,-3.9424,-3.9424,-3.9424,-3.9424,-3.9424,-3.9424,-3.9424,-3.9424,-3.9424,-3.9424,-3.9424,-3.9424,-3.9424,0.0,0.0,0.0,-3.9424,-3.9424,-3.9694,0.0,0.0,0.0,-3.9828,-3.9828,0.0,0.0,0.0,-3.9963,-4.0377,0.0,0.0,0.0,0.0,0.0,0.0,0.0,0.0,0.0,0.0,0.0,0.0,0.0,0.0,0.0,0.0,-3.7541,-3.669,-3.661,-3.5889,-3.4924,-3.3688,-3.3261,-3.2854,-3.2248,-3.2277,-3.1528,-2.9738,-3.0586,-3.0135,-2.7778,-2.8855,0.0,0.0,0.0,-3.1965,-3.3081,-3.3081,-3.3081,-3.3081,-3.3081,-3.3081,-3.3081,-3.3081,-3.3081,-3.3081,-3.3081,-3.3797,-3.4897,-3.5748,-3.6696,-3.7919,-3.8943,-3.9424,-3.9424,-3.9424,-3.9424,-3.9424,-3.9424,0.0,0.0,-3.9424,-3.9424,-3.9424,-3.9424,-3.9424,-3.9424,-3.9424,-3.9424,-3.9424,-3.9424,-3.9424,-3.9424,-3.9424,-3.9424,-3.9424,-3.9424,-3.9424,-3.9424,-3.9424,-3.9424,-3.9424,-3.9424,-3.9424,-3.9424,-3.9424,-3.9424,-3.9424,-3.9424,-3.9424,-3.9424,-3.9424,0.0,0.0,-3.9424,-3.9424,-3.9424,-3.9424,-3.9424,-3.9424,-3.9424,-3.9978,-4.0023,-3.9424,-4.0068,-4.0397,-4.0397,-4.0472,-4.0846,-4.1474,-4.0816,-4.1276,0.0,0.0,0.0,0.0,0.0,0.0,0.0,0.0,0.0,0.0,0.0,0.0,0.0,0.0,0.0,-3.8885,-3.8007,-3.7367,-3.7256,-3.7521,-3.6892,-3.4516,-3.3853,-3.3258,-3.2273,-3.2641,-3.2315,-3.0944,-3.1045,-3.0135,-2.7778,-2.9681,-3.0496,-2.9772,-3.1689,-3.2884,-3.3081,-3.3081,-3.3081,-3.3081,0.0,0.0,-3.3081,-3.3081,-3.3081,-3.3081,-3.3081,-3.4178,-3.5894,-3.5197,-3.6081,-3.7919,-3.8943,-3.9424,-3.9424,-3.9424,-3.9424,-3.9424,-3.9424,-3.9424,-3.9424,-3.9424,-3.9424,-3.9424,-3.9424,-3.9424,0.0,-3.9424,-3.9424,-3.9424,-3.9424,-3.9424,-3.9424,-3.9424,-3.9424,-3.9424,-3.9424,-3.9424,-3.9424,-3.9424,-3.9424,-3.9424,-3.9424,-3.9424,-3.9424,-3.9424,-3.9424,-3.9424,-3.9424,-3.9424,-3.9424,-3.9424,-3.9424,-3.9424,-3.9424,-3.9424,-3.9424,-3.9424,-3.9424,-3.9424,-3.9424,-3.9544,-3.9544,-3.9424,-4.0068,-4.0397,-4.0397,-4.0935,-4.1534,-4.2147,-4.1504,-4.1686,0.0,0.0,0.0,0.0,0.0,0.0,0.0,0.0,0.0,0.0,0.0,-4.3032,-4.2483,0.0,-4.0577,-3.9527,-3.8994,-3.8558,-3.8,-3.8182,-3.7504,-3.5141,-3.493,-3.4351,-3.2798,-3.2905,-3.2612,-3.1311,-3.1777,-3.1323,-2.9498,-3.1146,-3.1877,-3.1235,-3.2426,-3.3081,-3.3081,-3.3081,-3.3081,-3.3081,-3.3081,-3.3081,-3.3081,-3.3081,-3.3081,-3.3081,-3.3081,-3.3713,-3.4719,-3.5197,-3.671,-3.8664,-3.9534,-3.9709,-3.9424,-3.9424,-3.9634,-3.9903,-3.9903,-4.0127,-4.0397,-4.0397,-4.0397,-4.0397,-4.0397,-4.0172,-3.9903,-3.9903,-3.9679,-3.9424,-3.9424,-3.9424,-3.9424,-3.9424,-3.9424,-3.9424,-3.9424,-3.9424,-3.9424,-3.9424,-3.9424,-3.9424,-3.9424,-3.9424,-3.9424,-3.9424,-3.9424,-3.9424,-3.9424,-3.9424,-3.9424,-3.9424,-3.9424,-3.9424,-3.9424,-3.9424,-3.9424,-3.9424,-3.9424,-3.9424,-3.9424,-3.9424,-3.9574,-3.9903,-4.0232,-4.0726,-4.1384,-4.1713,-4.2207,-4.2836,-4.2521,-4.2536,0.0,0.0,0.0,0.0,0.0,0.0,0.0,-4.483,-4.4726,-4.4251,-4.36,-4.3137,-4.3127,-4.2573,-4.175,-4.0567,-4.0216,-3.9771,-3.8925,-3.8712,-3.7827,-3.5739,-3.5921,-3.5507,-3.3543,-3.324,-3.2698,-3.1677,-3.2513,-3.2513,-3.1311,-3.2426,-3.2982,-3.2711,-3.2982,-3.3081,-3.3081,-3.3081,-3.3081,-3.3081,-3.3081,-3.3081,-3.3081,-3.3081,-3.3081,-3.3167,-3.3556,-3.3543,-3.3569,-3.6031,-3.7911,-3.9357,-4.0248,-4.0262,-3.9798,-3.9798,-4.0127,-4.0591,-4.0591,-4.0935,-4.1384,-4.1384,-4.1384,-4.1384,-4.1384,-4.101,-4.0591,-4.0591,-4.0217,-3.9768,-3.9649,-3.9604,-3.9574,-3.9454,-3.9424,-3.9424,-3.9424,-3.9424,-3.9424,-3.9424,-3.9424,-3.9424,-3.9424,-3.9424,-3.9424,-3.9424,-3.9424,-3.9424,-3.9424,-3.9424,-3.9424,-3.9424,-3.9424,-3.9424,-3.9424,-3.9424,-3.9424,-3.9424,-3.9424,-3.9424,-3.9424,-3.9544,-3.9858,-4.0382,-4.0651,-4.1309,-4.2357,-4.2491,-4.2821,-4.3329,-4.3329,-4.3329,-4.5883,-4.5611,-4.5213,-4.4783,-4.4669,-4.4511,0.0,-4.3912,-4.4221,-4.4552,-4.3746,-4.3162,-4.3828,-4.3037,-4.221,-4.1955,-4.1278,-4.0705,-4.0489,-3.9743,-3.8502,-3.6337,-3.6156,-3.5734,-3.4664,-3.3628,-3.3068,-3.2896,-3.2982,-3.2513,-3.1311,-3.2426,-3.2599,-3.1412,-3.2513,-3.3081,-3.3081,-3.3081,-3.3081,-3.3081,-3.3081,-3.3081,-3.3081,-3.3081,-3.3081,-3.324,-3.5034,-3.5359,-3.4786,-3.8433,-3.9471,-3.9059,-4.0679,-4.122,-4.116,-4.116,-4.1205,-4.1265,-4.1265,-4.1324,-4.1384,-4.1384,-4.1384,-4.1384,-4.1384,-4.1324,-4.1265,-4.1265,-4.122,-4.1025,-4.0442,-4.0292,-4.0142,-3.9559,-3.9424,-3.9424,-3.9424,-3.9424,-3.9424,-3.9424,-3.9424,-3.9424,-3.9424,-3.9424,-3.9424,-3.9424,-3.9424,-3.9424,-3.9424,-3.9424,-3.9424,-3.9424,-3.9424,-3.9424,-3.9424,-3.9424,-3.9424,-3.9424,-3.9424,-3.9424,-3.9424,-3.9978,-4.0322,-4.0397,-4.1549,-4.2207,-4.2357,-4.294,-4.3254,-4.3329,-4.3329,-4.3329,-4.5254,-4.501,-4.4796,-4.4355,-4.4233,-4.4277,-4.4443,-4.4599,-4.4841,-4.5311,-4.4417,-4.3819,-4.4579,-4.3765,-4.2891,-4.2848,-4.2083,-4.1341,-4.0779,-3.992,-3.909,-3.8204,-3.6916,-3.5588,-3.3953,-3.3398,-3.3081,-3.3081,-3.3081,-3.2884,-3.2326,-3.2797,-3.2884,-3.2326,-3.2797,-3.3081,-3.3081,-3.3081,-3.3081,-3.3081,-3.3081,-3.3081,-3.3081,-3.3081,-3.3081,-3.3179,-3.4373,-3.4997,-3.5372,-3.7994,-3.9154,-3.9462,-4.127,-4.1953,-4.1908,-4.1519,-4.1624,-4.1953,-4.1953,-4.2207,-4.2521,-4.2521,-4.2521,-4.2521,-4.2521,-4.2252,-4.1953,-4.1953,-4.1669,-4.1324,-4.104,-4.0681,-4.0337,-4.0053,-3.9694,-3.9424,-3.9424,-3.9424,-3.9424,-3.9424,-3.9424,-3.9424,-3.9424,-3.9424,-3.9424,-3.9424,-3.9424,-3.9424,-3.9424,-3.9424,-3.9424,-3.9424,-3.9424,-3.9424,-3.9424,-3.9424,-3.9424,-3.9424,-3.9424,-3.9589,-3.9978,-4.0247,-4.0756,-4.1534,-4.2073,-4.2551,-4.2925,-4.321,-4.3329,-4.3329,-4.3329,-4.3329,-4.4877,-4.4657,-4.4557,-4.4367,-4.4259,-4.4406,-4.5203,-4.5389,-4.5549,-4.6121,-4.5387,-4.4858,-4.5439,-4.4696,-4.3914,-4.3714,-4.2707,-4.1804,-4.1147,-4.013,-3.9265,-3.9017,-3.7329,-3.5507,-3.3713,-3.324,-3.3081,-3.3081,-3.3081,-3.3081,-3.3081,-3.3081,-3.3081,-3.3081,-3.3081,-3.3081,-3.3081,-3.3081,-3.3081,-3.3081,-3.3081,-3.3081,-3.3081,-3.3232,-3.3307,-3.3332,-3.421,-3.5198,-3.632,-3.8048,-3.9382,-4.0538,-4.203,-4.2626,-4.2566,-4.2087,-4.2222,-4.2626,-4.2626,-4.294,-4.3329,-4.3329,-4.3329,-4.3329,-4.3329,-4.3,-4.2626,-4.2626,-4.2282,-4.1878,-4.1698,-4.1294,-4.0846,-4.0487,-4.0038,-3.9649,-3.9454,-3.9424,-3.9424,-3.9424,-3.9424,-3.9424,-3.9424,-3.9424,-3.9424,-3.9424,-3.9424,-3.9424,-3.9424,-3.9424,-3.9424,-3.9424,-3.9424,-3.9424,-3.9424,-3.9424,-3.9424,-3.9424,-3.9589,-3.9903,-4.0382,-4.0756,-4.1384,-4.2419,-4.2536,-4.2865,-4.3329,-4.3329,-4.3329,-4.3329,-4.3329,-4.3329,-4.518,-4.4849,-4.4689,-4.5077,-4.4924,-4.4874,-4.5718,-4.5901,-4.6085,-4.6911,-4.6579,-4.618,-4.6347,-4.583,-4.5233,-4.4665,-4.3092,-4.1997,-4.1933,-4.0447,-3.9017,-3.7994,-3.6852,-3.5814,-3.4746,-3.3713,-3.3081,-3.3081,-3.3081,-3.3081,-3.3081,-3.3081,-3.3081,-3.3081,-3.3081,-3.3081,-3.3081,-3.3081,-3.3081,-3.3081,-3.3081,-3.3081,-3.3093,-3.3633,-3.3872,-3.3985,-3.5535,-3.6882,-3.8117,-3.9861,-4.1215,-4.2387,-4.3045,-4.3299,-4.3299,-4.3284,-4.3284,-4.3299,-4.3299,-4.3314,-4.3329,-4.3329,-4.3329,-4.3329,-4.3329,-4.3329,-4.3299,-4.3299,-4.3284,-4.3135,-4.2491,-4.2312,-4.1983,-4.0711,-4.0382,-4.0187,-3.9559,-3.9424,-3.9424,-3.9424,-3.9424,-3.9424,-3.9424,-3.9424,-3.9424,-3.9424,-3.9424,-3.9424,-3.9424,-3.9424,-3.9424,-3.9424,-3.9424,-3.9424,-3.9424,-3.9424,-3.9424,-3.9424,-4.0023,-4.0382,-4.0397,-4.1624,-4.2327,-4.2357,-4.297,-4.3314,-4.3329,-4.3329,-4.3329,-4.3329,-4.3329,-4.3329,-4.564,-4.5678,-4.5755,-4.57,-4.5569,-4.5718,-4.6526,-4.6709,-4.6929,-4.7737,-4.7415,-4.7035,-4.7052,-4.6209,-4.5407,-4.5232,-4.337,-4.1997,-4.1997,-4.0516,-3.9265,-3.887,-3.7904,-3.6866,-3.5828,-3.4095,-3.3081,-3.3081,-3.3081,-3.3081,-3.3081,-3.3081,-3.3081,-3.3081,-3.3081,-3.3081,-3.3081,-3.3081,-3.3081,-3.3081,-3.3445,-3.3621,-3.3646,-3.4198,-3.4449,-3.4564,-3.6207,-3.7223,-3.7785,-4.0237,-4.1531,-4.1982,-4.2906,-4.3329,-4.3329,-4.3329,-4.3329,-4.3329,-4.3329,-4.3329,-4.3329,-4.3329,-4.3329,-4.3329,-4.3329,-4.3329,-4.3329,-4.3329,-4.3329,-4.3284,-4.306,-4.2686,-4.2252,-4.1803,-4.104,-4.0337,-4.0113,-3.9723,-3.9424,-3.9424,-3.9424,-3.9424,-3.9424,-3.9424,-3.9424,-3.9424,-3.9424,-3.9424,-3.9424,-3.9424,-3.9424,-3.9424,-3.9424,-3.9424,-3.9424,-3.9424,-3.9424,-3.9424,-4.0038,-4.0591,-4.104,-4.1893,-4.2566,-4.3,-4.3225,-4.3329,-4.3329,-4.3329,-4.3329,-4.3329,-4.3329,-4.3329,-4.613,-4.6202,-4.6368,-4.6341,-4.6342,-4.6544,-4.737,-4.7535,-4.77,-4.8196,-4.7977,-4.7674,-4.7428,-4.6542,-4.5732,-4.5563,-4.3781,-4.2332,-4.2062,-4.0774,-3.9737,-3.9424,-3.8472,-3.7343,-3.6277,-3.465,-3.3471,-3.3154,-3.3081,-3.3081,-3.3081,-3.3081,-3.3081,-3.3081,-3.3081,-3.3081,-3.3081,-3.3081,-3.3181,-3.3382,-3.3935,-3.4198,-3.4211,-3.4763,-3.5183,-3.5724,-3.6625,-3.7477,-3.8378,-3.9778,-4.0802,-4.167,-4.2371,-4.29,-4.3329,-4.3329,-4.3329,-4.3329,-4.3329,-4.3329,-4.3329,-4.3329,-4.3329,-4.3329,-4.3329,-4.3329,-4.3329,-4.3329,-4.3329,-4.3329,-4.3329,-4.3015,-4.2656,-4.2417,-4.1534,-4.0681,-4.0442,-3.9888,-3.9424,-3.9424,-3.9424,-3.9424,-3.9424,-3.9424,-3.9424,-3.9424,-3.9424,-3.9424,-3.9424,-3.9424,-3.9424,-3.9424,-3.9424,-3.9424,-3.9424,-3.9424,-3.9514,-3.9753,-4.0382,-4.1055,-4.1698,-4.2357,-4.2895,-4.3329,-4.3329,-4.3329,-4.3329,-4.3329,-4.3329,-4.3329,-4.3329,-4.3329,-4.6651,-4.6485,-4.6609,-4.704,-4.7186,-4.737,-4.8141,-4.8306,-4.8306,-4.8306,-4.8306,-4.8132,-4.7572,-4.6847,-4.6192,-4.5648,-4.4232,-4.2909,-4.2125,-4.1213,-4.0309,-3.9481,-3.8472,-3.742,-3.6369,-3.5359,-3.4345,-3.324,-3.3154,-3.3081,-3.3081,-3.3081,-3.3081,-3.3081,-3.3081,-3.3093,-3.3119,-3.3156,-3.342,-3.3947,-3.45,-3.4763,-3.4776,-3.5341,-3.6184,-3.724,-3.6747,-3.7782,-3.9724,-3.8725,-3.9596,-4.1504,-4.167,-4.229,-4.325,-4.325,-4.325,-4.325,-4.325,-4.3329,-4.3329,-4.3329,-4.3329,-4.3329,-4.3329,-4.3329,-4.3329,-4.3329,-4.3329,-4.3329,-4.3329,-4.3329,-4.318,-4.2551,-4.1908,-4.125,-4.0591,-3.9933,-3.9454,-3.9424,-3.9424,-3.9424,-3.9424,-3.9424,-3.9424,-3.9424,-3.9424,-3.9424,-3.9424,-3.9424,-3.9424,-3.9424,-3.9424,-3.9424,-3.9424,-3.9424,-3.9709,-4.0367,-4.101,-4.1669,-4.2327,-4.2985,-4.3329,-4.3329,-4.3329,-4.3329,-4.3329,-4.3329,-4.3329,-4.3329,-4.3329,-4.3329,-4.7406,-4.7601,-4.785,-4.7939,-4.7994,-4.8067,-4.8251,-4.8306,-4.8306,-4.8306,-4.8306,-4.8249,-4.8075,-4.7132,-4.6336,-4.6192,-4.3984,-4.2252,-4.2062,-4.0706,-3.9681,-3.9424,-3.9177,-3.8546,-3.751,-3.6462,-3.5346,-3.4345,-3.3556,-3.3081,-3.3081,-3.3081,-3.3081,-3.3081,-3.3081,-3.3269,-3.3684,-3.4098,-3.4374,-3.4512,-3.5064,-3.5341,-3.5353,-3.5906,-3.6332,-3.6692,-3.735,-3.803,-3.8635,-4.0118,-4.0561,-4.049,-4.2208,-4.2548,-4.2111,-4.2981,-4.2725,-4.2111,-4.2996,-4.3329,-4.3329,-4.3329,-4.3329,-4.3329,-4.3329,-4.3329,-4.3329,-4.3329,-4.3329,-4.3329,-4.3329,-4.3329,-4.3284,-4.3135,-4.2581,-4.1938,-4.1265,-4.0606,-4.0008,-3.9514,-3.9424,-3.9424,-3.9424,-3.9424,-3.9424,-3.9424,-3.9424,-3.9424,-3.9424,-3.9424,-3.9424,-3.9424,-3.9424,-3.9424,-3.9424,-3.9424,-3.9709,-4.0367,-4.101,-4.1669,-4.2327,-4.2985,-4.3329,-4.3329,-4.3329,-4.3329,-4.3329,-4.3329,-4.3329,-4.3329,-4.3329,-4.3329,-4.8009,-4.8126,-4.8306,-4.8306,-4.8306,-4.8306,-4.8306,-4.8306,-4.8306,-4.8306,-4.8306,-4.821,-4.7937,-4.7088,-4.6336,-4.6063,-4.4074,-4.2458,-4.2062,-4.0826,-3.9864,-3.9409,-3.9424,-3.8943,-3.7904,-3.7266,-3.6369,-3.5021,-3.3784,-3.3081,-3.3081,-3.3307,-3.3458,-3.3582,-3.3696,-3.3947,-3.4261,-3.4801,-3.509,-3.509,-3.5642,-3.5893,-3.5918,-3.6219,-3.6722,-3.715,-3.7322,-3.7678,-3.8198,-3.8979,-3.9258,-3.9271,-4.1099,-4.1684,-4.1767,-4.29,-4.29,-4.2371,-4.2548,-4.29,-4.3329,-4.3329,-4.3329,-4.3329,-4.3329,-4.3329,-4.3329,-4.3329,-4.3329,-4.3329,-4.3329,-4.3329,-4.3329,-4.3329,-4.2836,-4.2177,-4.1519,-4.0861,-4.0202,-3.9544,-3.9424,-3.9424,-3.9424,-3.9424,-3.9424,-3.9424,-3.9424,-3.9424,-3.9424,-3.9424,-3.9424,-3.9424,-3.9424,-3.9424,-3.9424,-3.9424,-3.9828,-4.0771,-4.1175,-4.1803,-4.2746,-4.3135,-4.3329,-4.3329,-4.3329,-4.3329,-4.3329,-4.3329,-4.3329,-4.3329,-4.3329,-4.3329,-4.8383,-4.8306,-4.8306,-4.8306,-4.8306,-4.8306,-4.8306,-4.8306,-4.8306,-4.8306,-4.8306,-4.8132,-4.753,-4.6847,-4.6174,-4.5459,-4.4102,-4.2847,-4.1933,-4.108,-4.027,-3.9601,-3.9544,-3.918,-3.8391,-3.803,-3.7254,-3.5777,-3.451,-3.3553,-3.3106,-3.3533,-3.3985,-3.4325,-3.4587,-3.4826,-3.4826,-3.5378,-3.5655,-3.5667,-3.6132,-3.6358,-3.6358,-3.6358,-3.6977,-3.7848,-3.6977,-3.715,-3.8017,-3.7415,-3.7507,-3.8198,-3.9623,-4.0575,-4.1239,-4.2467,-4.282,-4.2725,-4.185,-4.229,-4.3076,-4.3076,-4.317,-4.3329,-4.3329,-4.3329,-4.3329,-4.3329,-4.3329,-4.3329,-4.3329,-4.3329,-4.3329,-4.3329,-4.2895,-4.2282,-4.1367,-4.0546,-3.995,-3.9457,-3.9424,-3.9424,-3.9424,-3.9424,-3.9424,-3.9424,-3.9424,-3.9424,-3.9424,-3.9424,-3.9424,-3.9424,-3.9424,-3.9424,-3.9424,-3.9499,-4.0068,-4.1309,-4.1459,-4.2058,-4.3284,-4.3329,-4.3329,-4.3329,-4.3329,-4.3329,-4.3329,-4.3329,-4.3329,-4.3329,-4.3329,-4.3329,-4.8306,-4.8306,-4.8306,-4.8306,-4.8306,-4.8306,-4.8306,-4.8306,-4.8306,-4.8306,-4.8306,-4.8132,-4.753,-4.6847,-4.5993,-4.4616,-4.3185,-4.1933,-4.108,-4.0185,-3.9748,-4.0157,-4.0232,-4.0368,-4.0739,-3.9392,-3.8382,-3.8037,-3.7563,-3.6095,-3.3219,-3.3192,-3.3826,-3.5059,-3.5152,-3.5261,-3.5403,-3.5943,-3.6219,-3.6219,-3.632,-3.6358,-3.6358,-3.6358,-3.6546,-3.6709,-3.7507,0.0,-3.8198,-3.9931,-3.9669,-3.8289,-4.0476,-4.0204,-3.889,-4.0059,-4.0504,-4.0589,-4.1337,-4.1767,-4.185,-4.185,-4.2548,-4.3329,-4.3329,-4.3329,-4.3329,-4.3329,-4.3329,-4.3329,-4.3329,-4.3329,-4.3329,-4.3329,-4.324,-4.257,-4.0543,-3.9131,-3.8439,-3.928,-3.9424,-3.9424,-3.9424,-3.9424,-3.9424,-3.9424,-3.9424,-3.9424,-3.9424,-3.9424,-3.9424,-3.9424,-3.9424,-3.9424,-3.9424,-3.9918,-4.0561,-4.1324,-4.1893,-4.2536,-4.3299,-4.3329,-4.3329,-4.3329,-4.3329,-4.3329,-4.3329,-4.3329,-4.3329,-4.3329,-4.3329,-4.3329,-4.8306,-4.8306,-4.8306,-4.8306,-4.8306,-4.8306,-4.8306,-4.8306,-4.8306,-4.8306,-4.8306,-4.8017,-4.7044,-4.6618,-4.6102,-4.5116,-4.3584,-4.2539,-4.2437,-4.1296,-4.0561,-4.0876,-4.0711,-4.0666,-4.0979,-4.0448,-3.9784,-3.9064,-3.8933,-3.7115,-3.333,-3.417,-3.5102,-3.589,-3.5877,-3.5943,-3.5968,-3.6232,-3.6358,-3.6358,-3.6358,-3.6358,-3.6358,-3.6358,-3.6358,-3.6452,-3.7586,-3.8107,-3.8198,-3.9958,-3.9697,-3.8289,-4.0045,-3.961,-3.8289,-3.9448,-3.9899,-3.9899,-3.9784,-4.0547,-4.1504,-4.0916,-4.1864,-4.3329,-4.3329,-4.3329,-4.3329,-4.3329,-4.3329,-4.3329,-4.3329,-4.3329,-4.3329,-4.3329,-4.3075,-4.2395,-4.0919,-3.9871,-3.918,-3.9397,-3.9424,-3.9424,-3.9424,-3.9424,-3.9424,-3.9424,-3.9424,-3.9424,-3.9424,-3.9424,-3.9424,-3.9424,-3.9424,-3.9424,-3.9424,-4.0023,-4.0681,-4.1339,-4.1998,-4.2656,-4.3314,-4.3329,-4.3329,-4.3329,-4.3329,-4.3329,-4.3329,-4.3329,-4.3329,-4.3329,-4.3329,-4.3329,-4.8132,-4.8132,-4.8132,-4.8132,-4.8132,-4.8132,-4.8132,-4.8132,-4.8132,-4.8267,-4.821,-4.7811,-4.6849,-4.6535,-4.6253,-4.5737,-4.445,-4.3586,-4.3811,-4.2608,-4.1626,-4.1519,-4.1203,-4.1052,-4.123,-4.1592,-4.1355,-4.0334,-4.022,-3.8311,-3.4079,-3.638,-3.739,-3.647,-3.6421,-3.642,-3.6358,-3.6433,-3.6433,-3.6358,-3.642,-3.6514,-3.6803,-3.6803,-3.6896,-3.7163,-3.8121,-3.8469,-3.8559,-3.9798,-3.9522,-3.8649,-3.9798,-3.9536,-3.8559,-3.9536,-4.0073,-4.0059,-3.8917,-3.9858,-4.142,-4.0575,-4.1616,-4.3329,-4.3329,-4.3329,-4.3329,-4.3329,-4.3329,-4.325,-4.2981,-4.3155,-4.3329,-4.3329,-4.2663,-4.193,-4.1519,-4.0696,-3.9966,-3.9471,-3.9424,-3.9424,-3.9424,-3.9424,-3.9424,-3.9424,-3.9424,-3.9424,-3.9424,-3.9424,-3.9424,-3.9424,-3.9424,-3.9424,-3.9424,-4.0157,-4.0831,-4.1354,-4.2132,-4.2806,-4.3314,-4.3329,-4.3329,-4.3329,-4.3329,-4.3329,-4.3329,-4.3329,-4.3329,-4.3329,-4.3329,-4.3329,-4.747,-4.747,-4.747,-4.747,-4.747,-4.747,-4.747,-4.747,-4.7614,-4.8172,-4.7838,-4.7471,-4.75,-4.6965,-4.6364,-4.5618,-4.5379,-4.474,-4.313,-4.2807,-4.2502,-4.1983,-4.1888,-4.2157,-4.2966,-4.3135,-4.3071,-4.2927,-4.2916,-4.0971,-3.6332,-4.0289,-4.0745,-3.6509,-3.6405,-3.6399,-3.6358,-3.6412,-3.6412,-3.6358,-3.6399,-3.6949,-3.7939,-3.7939,-3.8559,-3.9549,-3.9724,-3.9724,0.0,-4.1,-4.0746,-3.9812,-4.1,-4.0746,-3.9724,-3.9899,-4.0575,-4.1253,-4.0145,-4.0575,-4.1587,-4.1504,-4.229,-4.3329,-4.3329,-4.3329,-4.3329,-4.3329,-4.3329,-4.3076,-4.2029,-4.2548,-4.3329,-4.3329,-4.2048,-4.1069,-4.1352,-4.0121,-3.9066,-3.9311,-3.9424,-3.9424,-3.9424,-3.9424,-3.9424,-3.9424,-3.9424,-3.9424,-3.9424,-3.9424,-3.9424,-3.9424,-3.9424,-3.9424,-3.9424,-4.0561,-4.1309,-4.1384,-4.2551,-4.3269,-4.3329,-4.3329,-4.3329,-4.3329,-4.3329,-4.3329,-4.3329,-4.3329,-4.3329,-4.3329,-4.3329,-4.3329,-4.6801,-4.6801,-4.6801,-4.6801,-4.6801,-4.691,-4.7299,-4.7385,-4.7717,-4.887,-4.8543,-4.812,-4.828,-4.7718,-4.7189,-4.6959,-4.6504,-4.5832,-4.4945,-4.4397,-4.3697,-4.2899,-4.2772,-4.2906,-4.3299,-4.3329,-4.3329,-4.3329,-4.3294,-4.2507,-4.061,-4.2266,-4.2431,-4.0586,-3.7832,-3.6392,-3.6412,-3.6405,-3.7077,-3.853,-3.7026,-3.6638,-3.7131,-3.8578,-3.9731,-4.0522,-3.9536,-3.9417,0.0,-4.0404,-3.9871,-3.8827,-3.9332,-3.9258,-3.8827,-3.8827,-3.9081,-3.9508,-3.9798,-3.9697,-3.9596,-4.0304,-4.1351,-4.2371,-4.3076,-4.3329,-4.3329,-4.3329,-4.2805,-4.229,-4.2548,-4.2981,-4.3155,-4.2467,-4.2262,-4.1966,-4.0593,-4.0338,-4.0186,-3.9546,-3.9424,-3.9424,-3.9424,-3.9424,-3.9424,-3.9424,-3.9424,-3.9424,-3.9424,-3.9424,-3.9424,-3.9424,-3.9424,-3.9424,-3.9424,-4.0621,-4.1384,-4.1384,-4.2611,-4.3329,-4.3329,-4.3329,-4.3329,-4.3329,-4.3329,-4.3329,-4.3329,-4.3329,-4.3329,-4.3329,-4.3329,-4.3329,-4.6143,-4.6143,-4.6161,-4.6213,-4.6205,-4.6265,-4.6516,-4.6845,-4.75,-4.894,-4.922,-4.912,-4.8796,-4.8062,-4.7615,-4.8132,-4.768,-4.7226,-4.7044,-4.6,-4.4706,-4.3472,-4.3329,-4.3329,-4.3329,-4.3329,-4.3329,-4.3329,-4.3275,-4.3294,-4.3295,-4.3304,-4.3292,-4.3294,-4.0139,-3.8404,-3.8465,-3.7087,-3.7912,-4.09,-3.92,-3.7685,-3.6495,-3.814,-3.9864,-4.1621,-4.0576,-4.0041,0.0,-3.918,-3.8349,-3.7612,-3.8103,-3.8465,-3.8649,-3.8649,-3.8649,-3.8738,-3.9183,-3.8827,-3.8198,-3.9094,-4.0131,-4.1337,-4.2467,-4.3076,-4.3329,-4.3329,-4.2467,-4.1767,-4.2548,-4.2805,-4.2548,-4.1767,-4.2467,-4.2624,-4.0148,-4.0543,-4.0995,-3.9679,-3.9424,-3.9424,-3.9424,-3.9424,-3.9424,-3.9424,-3.9424,-3.9424,-3.9424,-3.9424,-3.9424,-3.9424,-3.9424,-3.9499,-3.9694,-4.0726,-4.1459,-4.1654,-4.2716,-4.3329,-4.3329,-4.3329,-4.3329,-4.3329,-4.3329,-4.3329,-4.3329,-4.3329,-4.3329,-4.3329,-4.3329,-4.3329,-4.5511,-4.5511,-4.5546,-4.5754,-4.5793,-4.5587,-4.4794,-4.5541,-4.6783,-4.8047,-4.9614,-5.0373,-4.8965,-4.768,-4.7272,-4.872,-4.9001,-4.8949,-4.8957,-4.7384,-4.5473,-4.3536,-4.3329,-4.3329,-4.3329,-4.3329,-4.3329,-4.3329,-4.3265,-4.3265,-4.3329,-4.3265,-4.3278,-4.3265,-4.325,-4.3207,-4.3199,-3.87,-3.8714,-4.3227,-4.3213,-4.082,-3.6411,-3.6424,-3.8941,-4.3324,-4.3228,-4.2006,0.0,-3.7384,-3.64,-3.6561,-3.8121,-3.9207,-3.9899,-3.9899,-3.9899,-3.9724,-3.8559,-3.8107,-3.8107,-3.8107,-3.8917,-4.0159,-4.1253,-4.2371,-4.3329,-4.3329,-4.2467,-4.1587,-4.1587,-4.1587,-4.1587,-4.1587,-4.2467,-4.2624,-4.0148,-4.0543,-4.0995,-3.9679,-3.9424,-3.9424,-3.9424,-3.9424,-3.9424,-3.9424,-3.9424,-3.9424,-3.9424,-3.9424,-3.9424,-3.9424,-3.9424,-3.9679,-4.0337,-4.0995,-4.1654,-4.2312,-4.297,-4.3329,-4.3329,-4.3329,-4.3329,-4.3329,-4.3329,-4.3329,-4.3329,-4.3329,-4.3329,-4.3329,-4.3329,-4.3329,-4.4852,-4.4852,-4.4923,-4.4975,-4.4992,-4.5122,-4.569,-4.612,-4.7088,-4.9496,-4.9656,-4.9555,-5.0223,-4.9222,-4.8467,-4.8934,-4.9001,-4.8983,-4.8973,-4.74,-4.5473,-4.3536,-4.3329,-4.3329,-4.3329,-4.3329,-4.3329,-4.3329,-4.3329,-4.3329,-4.3329,-4.3329,-4.3339,-4.3278,-4.3278,-4.3315,-4.3306,-4.1879,-4.0274,-3.8642,-4.1808,-4.2548,-4.0986,-3.7831,-3.7184,-3.8728,-4.1966,-4.289,-4.1889,-3.8031,-3.6408,-3.6481,-3.697,-3.7274,-3.7477,-3.7477,-3.797,-3.8738,-3.9183,-3.8302,-3.7243,-3.8827,-3.9006,-3.8917,-4.0059,-4.1782,-4.2996,-4.1435,-4.1864,-4.2386,-4.0831,-4.1601,-4.2548,-4.1767,-4.2467,-4.2624,-4.0148,-4.0543,-4.0995,-3.9679,-3.9424,-3.9424,-3.9424,-3.9424,-3.9424,-3.9424,-3.9424,-3.9424,-3.9424,-3.9424,-3.9424,-3.9424,-3.9424,-3.9694,-4.0337,-4.0995,-4.1669,-4.2327,-4.297,-4.3329,-4.3329,-4.3329,-4.3329,-4.3329,-4.3329,-4.3329,-4.3329,-4.3329,-4.3329,-4.3329,-4.3329,-4.3329,-4.4587,-4.4587,-4.4587,-4.4587,-4.4582,-4.5061,-4.672,-4.8079,-4.9496,-5.1311,-5.0137,-4.9135,-5.012,-4.9615,-4.9001,-4.9001,-4.9001,-4.8983,-4.8973,-4.6753,-4.4648,-4.3412,-4.3329,-4.3329,-4.3329,-4.3329,-4.3329,-4.3329,-4.3329,-4.3329,-4.3329,-4.3329,-4.3329,-4.3329,-4.3329,-4.3254,-4.3286,-4.3316,-4.1843,-3.9013,-4.1889,-4.328,-4.3236,-4.0287,-3.8061,-3.6541,-3.9441,-4.068,0.0,-3.7573,-3.6447,-3.6439,-3.6413,-3.6434,-3.6399,-3.6399,-3.6867,-3.7599,-3.8302,-3.7599,-3.6628,-3.8134,-3.8392,-3.8379,-4.0045,-4.1518,-4.229,-4.0418,-4.1532,-4.282,-4.0504,-4.1267,-4.2467,-4.1767,-4.2111,-4.2115,-4.0068,-4.0543,-4.0995,-3.9679,-3.9424,-3.9424,-3.9424,-3.9424,-3.9424,-3.9424,-3.9424,-3.9424,-3.9424,-3.9424,-3.9424,-3.9424,-3.9424,-3.9783,-4.0696,-4.1145,-4.1773,-4.2671,-4.3105,-4.3329,-4.3329,-4.3329,-4.3329,-4.3329,-4.3329,-4.3329,-4.3329,-4.3329,-4.3329,-4.3329,-4.3329,-4.3329,0.0,-4.4581,-4.4587,-4.4604,-4.4613,-4.5269,-4.777,-5.0886,0.0,-5.32,-5.0962,-4.9007,-4.9008,-4.9001,-4.9001,-4.9001,-4.9001,-4.8983,-4.8973,-4.5722,-4.3303,-4.3259,-4.3329,-4.3329,-4.3329,-4.3329,-4.3329,-4.3329,-4.3329,-4.3329,-4.3329,-4.3329,-4.3329,-4.3329,-4.3329,-4.3329,-4.3329,-4.3286,-4.3286,-4.3265,-4.3277,-4.3128,-4.2825,-4.2781,-4.065,0.0,-3.6515,-3.6363,-3.6406,-3.6374,-3.6612,-3.6874,-3.6491,-3.637,-3.6358,-3.6358,-3.6358,-3.6358,-3.6358,-3.6358,-3.6358,-3.6358,-3.715,-3.8545,-4.0718,-4.1504,-4.1337,-4.0232,-4.1449,-4.2644,-4.0504,-4.0661,-4.1504,-4.167,-4.167,-4.1241,-3.9989,-4.0621,-4.0995,-3.9679,-3.9424,-3.9424,-3.9424,-3.9424,-3.9424,-3.9424,-3.9424,-3.9424,-3.9424,-3.9424,-3.9424,-3.9424,-3.9424,-3.9948,-4.1265,-4.1384,-4.1938,-4.3254,-4.3329,-4.3329,-4.3329,-4.3329,-4.3329,-4.3329,-4.3329,-4.3329,-4.3329,-4.3329,-4.3329,-4.3329,-4.3329,-4.3329,-4.4595,0.0,-4.4621,-4.4603,-4.4606,-4.5335,0.0,-5.1102,-5.3184,-5.3207,-5.0949,-4.9028,-4.8972,-4.9001,-4.9001,-4.9001,-4.9001,-4.8983,-4.8973,-4.5696,-4.3298,-4.3299,-4.3329,-4.3329,-4.3329,-4.3329,-4.3329,-4.3329,-4.3329,-4.3329,-4.3329,-4.3329,-4.3329,-4.3329,-4.3329,-4.3329,-4.3329,-4.3304,-4.3304,-4.3344,-4.3293,-4.1464,-3.8032,-3.7984,-3.9358,-4.1467,-3.7991,-3.6361,-3.6379,-3.6399,-3.8527,-4.1288,-3.7745,-3.6433,-3.6358,-3.6358,-3.6358,-3.6358,-3.6358,-3.6358,-3.6358,-3.6358,-3.715,-3.8198,-3.8725,-4.0204,-4.1337,-4.0232,-4.0916,-4.1684,-4.0246,-4.0073,-4.0746,-4.2467,-4.2208,-4.1502,-4.1071,-4.1217,-4.0995,-3.9679,-3.9424,-3.9424,-3.9424,-3.9424,-3.9424,-3.9424,-3.9424,-3.9424,-3.9424,-3.9424,-3.9424,-3.9424,-3.9424,-3.9948,-4.1265,-4.1384,-4.1938,-4.3254,-4.3329,-4.3329,-4.3329,-4.3329,-4.3329,-4.3329,-4.3329,-4.3329,-4.3329,-4.3329,-4.3329,-4.3329,-4.3329,-4.3329,-4.2206,-4.3371,-4.4591,-4.4574,-4.5642,-4.7069,-4.865,-5.0167,-5.1296,-5.1294,-5.0085,-4.897,-4.9006,-4.8971,-4.9009,-4.899,-4.9016,-4.8413,-4.6638,-4.4634,-4.3329,-4.3329,-4.3329,-4.3329,-4.3329,-4.3329,-4.3329,-4.3329,-4.3329,-4.3329,-4.3329,-4.3329,-4.3329,-4.3329,-4.3329,-4.3329,-4.3329,-4.3329,-4.3329,-4.3344,-4.3278,-4.1976,-3.9478,-3.7397,-3.775,-4.0092,-3.9719,-3.8385,-3.6383,-3.6421,-3.7893,-3.9838,-3.733,-3.6413,-3.6358,-3.6358,-3.6358,-3.6358,-3.6358,-3.6358,-3.6358,-3.6358,-3.6803,-3.7494,-3.8559,-3.9434,-3.9858,-3.9271,-4.0646,-4.2029,-4.0332,-4.0318,-4.1085,-4.29,-4.2452,-4.1584,-4.1409,-4.1384,-4.0995,-3.9679,-3.9424,-3.9424,-3.9424,-3.9424,-3.9424,-3.9424,-3.9424,-3.9424,-3.9424,-3.9424,-3.9424,-3.9424,-3.9424,-3.9828,-4.0846,-4.1205,-4.1938,-4.3254,-4.3329,-4.3329,-4.3329,-4.3329,-4.3329,-4.3329,-4.3329,-4.3329,-4.3329,-4.3329,-4.3329,-4.3329,-4.3329,-4.3329,-3.9396,-4.1549,-4.3904,-4.4456,-4.6464,-4.8436,-4.8924,-4.8981,-4.8993,-4.8993,-4.8993,-4.899,-4.9018,-4.8969,-4.884,-4.8195,-4.8133,-4.7013,-4.3771,-4.3301,-4.3329,-4.3329,-4.3329,-4.3329,-4.3329,-4.3329,-4.3329,-4.3329,-4.3329,-4.3329,-4.3329,-4.3329,-4.3329,-4.3329,-4.3329,-4.3329,-4.3329,-4.3329,-4.3329,-4.3344,-4.3338,-4.3303,-4.3099,-3.8477,-3.6391,-3.665,0.0,0.0,-3.6395,-3.6373,-3.6396,-3.6402,-3.6399,-3.6408,-3.6358,-3.6358,-3.6358,-3.6358,-3.6358,-3.6358,-3.6358,-3.6358,-3.6358,-3.6803,-3.8751,-3.8738,-3.8017,-3.7848,-4.0204,-4.2304,-4.0145,-4.049,-4.1601,-4.2805,-4.229,-4.1584,-4.1409,-4.1384,-4.0995,-3.9679,-3.9424,-3.9424,-3.9424,-3.9424,-3.9424,-3.9424,-3.9424,-3.9424,-3.9424,-3.9424,-3.9424,-3.9424,-3.9424,-3.9694,-4.0337,-4.0995,-4.1893,-4.3105,-4.3284,-4.3329,-4.3329,-4.3329,-4.3329,-4.3329,-4.3329,-4.3329,-4.3329,-4.3329,-4.3329,-4.3329,-4.3329,-4.3329,-3.9425,-3.9772,-4.0899,-4.3883,-4.4947,-4.5925,-4.8405,-4.9018,-4.8972,-4.8972,-4.8972,-4.8973,-4.9007,-4.8966,-4.7918,-4.4691,-4.4129,-4.3944,-4.3376,-4.3301,-4.3329,-4.3329,-4.3329,-4.3329,-4.3329,-4.3329,-4.3329,-4.3329,-4.3329,-4.3329,-4.3329,-4.3329,-4.3329,-4.3329,-4.3329,-4.3329,-4.3329,-4.3329,-4.3329,-4.3329,-4.326,-4.3279,-4.3171,-3.8546,-3.6402,-3.6462,0.0,-3.7044,-3.6429,-3.6443,-3.6377,-3.6439,-3.6364,-3.6377,-3.6358,-3.6358,-3.6358,-3.6358,-3.6358,-3.6358,-3.6358,-3.6358,-3.6358,-3.6452,-3.6803,-3.7507,-3.7939,-3.6883,-3.8482,-4.0145,-3.8738,-3.9271,-4.0404,-4.1601,-4.1767,-4.1584,-4.1409,-4.1384,-4.0995,-3.9679,-3.9424,-3.9424,-3.9424,-3.9424,-3.9424,-3.9424,-3.9424,-3.9424,-3.9424,-3.9424,-3.9424,-3.9424,-3.9424,-3.9694,-4.0337,-4.0995,-4.1713,-4.2462,-4.303,-4.3329,-4.3329,-4.3329,-4.3329,-4.3329,-4.3329,-4.3329,-4.3329,-4.3329,-4.3329,-4.3329,-4.3329,-4.3329,-3.9424,-3.9385,-3.9807,-4.1383,-4.3185,-4.5362,-4.8322,-4.9007,-4.9009,-4.9019,-4.8969,-4.8988,-4.9011,-4.7292,-4.5999,-4.6358,-4.4653,-4.3267,-4.3334,-4.3292,-4.3329,-4.3329,-4.3329,-4.3329,-4.3329,-4.3329,-4.3329,-4.3329,-4.3329,-4.3329,-4.3329,-4.3329,-4.3329,-4.3329,-4.3329,-4.3329,-4.3329,-4.3329,-4.3329,-4.3329,-4.3329,-4.3308,-4.3226,-4.1081,-3.8729,-3.6378,0.0,-3.6417,-3.6405,-3.6413,-3.6358,-3.6358,-3.6358,-3.6358,-3.6358,-3.6358,-3.6358,-3.6358,-3.6358,-3.6358,-3.6358,-3.6358,-3.6358,-3.6546,-3.715,-3.7243,-3.7243,-3.7322,-3.8992,-4.0575,-3.936,-3.9958,-4.1085,-4.229,-4.1767,-4.1082,-4.1335,-4.11,-4.0561,-3.9604,-3.9424,-3.9424,-3.9424,-3.9424,-3.9424,-3.9424,-3.9424,-3.9424,-3.9424,-3.9424,-3.9424,-3.9424,-3.9424,-3.9544,-3.9843,-4.0472,-4.1429,-4.2806,-4.3165,-4.3329,-4.3329,-4.3329,-4.3329,-4.3329,-4.3329,-4.3329,-4.3329,-4.3329,-4.3329,-4.3329,-4.3329,-4.3329,-3.9424,-3.942,-3.9405,-3.9405,-4.1429,-4.3943,-4.6236,-4.7199,-4.7642,-4.7701,-4.8363,-4.8976,-4.8989,-4.5869,-4.4242,-4.72,-4.5248,-4.3275,-4.3319,-4.3329,-4.3329,-4.3329,-4.3329,-4.3329,-4.3329,-4.3329,-4.3329,-4.3329,-4.3329,-4.3329,-4.3329,-4.3329,-4.3329,-4.3329,-4.3329,-4.3329,-4.3329,-4.3329,-4.3329,-4.3329,-4.3329,-4.3308,-4.3255,-4.2166,-3.9714,-3.6496,-3.758,-3.7381,-3.6402,-3.637,-3.6358,-3.6358,-3.6358,-3.6358,-3.6439,-3.6407,-3.6433,-3.6439,-3.6395,-3.6445,-3.6452,-3.6709,-3.6803,-3.6977,-3.7848,-3.7507,-3.6883,-3.7494,-3.9156,-4.0547,-3.9711,-4.0304,-4.1475,-4.2452,-4.1609,-4.0691,-4.1082,-4.0756,-4.0202,-3.9544,-3.9424,-3.9424,-3.9424,-3.9424,-3.9424,-3.9424,-3.9424,-3.9424,-3.9424,-3.9424,-3.9424,-3.9424,-3.9424,-3.9484,-3.9634,-4.0247,-4.1339,-4.3,-4.324,-4.3329,-4.3329,-4.3329,-4.3329,-4.3329,-4.3329,-4.3329,-4.3329,-4.3329,-4.3329,-4.3329,-4.3329,-4.3329,-3.9424,-3.9379,-3.9421,-3.9421,-3.9574,-3.9835,-4.0055,-4.1977,-4.3712,-4.3724,-4.6545,-4.8985,-4.902,-4.5912,-4.3363,-4.3639,-4.3501,-4.3275,-4.3319,-4.3329,-4.3329,-4.3329,-4.3329,-4.3329,-4.3329,-4.3329,-4.3329,-4.3329,-4.3329,-4.3329,-4.3329,-4.3329,-4.3329,-4.3329,-4.3329,-4.3329,-4.3329,-4.3329,-4.3329,-4.3329,-4.3329,-4.3295,-4.3165,-3.8877,-3.673,-3.6634,-4.092,-4.0347,-3.6402,-3.6439,-3.6358,-3.6358,-3.6358,-3.6358,-3.6389,-3.6427,-3.6383,-3.6377,-3.6414,-3.6396,-3.6534,-3.7586,-3.803,-3.803,-3.8107,-3.8017,-3.7756,-3.6803,-3.7415,-3.8379,-3.8289,-3.9094,-4.0178,-4.0689,-4.068,-4.0575,-4.0501,-4.0427,-4.0202,-3.9544,-3.9424,-3.9424,-3.9424,-3.9424,-3.9424,-3.9424,-3.9424,-3.9424,-3.9424,-3.9424,-3.9424,-3.9424,-3.9424,-3.9664,-4.0277,-4.0935,-4.1624,-4.2387,-4.3,-4.3329,-4.3329,-4.3329,-4.3329,-4.3329,-4.3329,-4.3329,-4.3329,-4.3329,-4.3329,-4.3329,-4.3329,-4.3329,-3.9424,-3.9424,-3.9424,-3.9424,-3.941,-3.941,-3.9414,-4.1443,-4.3314,-4.3319,-4.445,-4.5442,-4.5485,-4.4282,-4.3268,-4.3268,-4.3268,-4.328,-4.3299,-4.3329,-4.3329,-4.3329,-4.3329,-4.3329,-4.3329,-4.3329,-4.3329,-4.3329,-4.3329,-4.3329,-4.3329,-4.3329,-4.3329,-4.3329,-4.3329,-4.3329,-4.3329,-4.3329,-4.3329,-4.3329,-4.3329,-4.3269,-4.3271,-4.1506,-3.9153,-3.649,-3.8251,-3.8031,-3.6399,-3.6399,-3.6417,-3.6358,-3.6358,-3.6358,-3.6427,-3.64,-3.8181,-4.0307,-3.7394,-3.7387,-3.8609,-3.854,-3.8291,-3.8198,-3.9006,-3.8738,-3.8198,-3.8482,-3.893,-3.9183,-3.9183,-3.9248,-3.9676,-4.1303,-4.0552,-3.9605,-4.0263,-4.0083,-3.9709,-3.9469,-3.9424,-3.9424,-3.9424,-3.9424,-3.9424,-3.9424,-3.9424,-3.9424,-3.9424,-3.9424,-3.9424,-3.9424,-3.9424,-3.9514,-3.9768,-4.0382,-4.1055,-4.1713,-4.2746,-4.3329,-4.3329,-4.3329,-4.3329,-4.3329,-4.3329,-4.3329,-4.3329,-4.3329,-4.3329,-4.3329,-4.3329,-4.3329,-3.9424,-3.9424,-3.9424,-3.9424,-3.9424,-3.9397,-3.943,-4.0771,-4.2319,-4.3164,-4.3304,-4.3289,-4.3289,-4.3265,-4.3329,-4.3329,-4.3329,-4.3329,-4.3329,-4.3329,-4.3329,-4.3329,-4.3329,-4.3329,-4.3329,-4.3329,-4.3319,-4.328,-4.3289,-4.3319,-4.3265,-4.3304,-4.3329,-4.3329,-4.3329,-4.3284,-4.3274,-4.3284,-4.3284,-4.3274,-4.3284,-4.3307,-4.328,-4.328,-4.1567,-3.8458,-3.7024,-3.6353,-3.6366,-3.6363,-3.6392,-3.6358,-3.6358,-3.6445,-3.6362,-3.637,-3.9361,-4.2731,-3.8817,-3.8746,-4.0144,-3.9748,-3.9441,-3.9332,-4.0232,-3.9871,-3.9203,-3.9128,-3.9335,-3.9554,-3.936,-3.9139,-3.9355,-4.1326,-4.022,-3.8953,-3.9891,-3.9738,-3.9424,-3.9424,-3.9424,-3.9424,-3.9424,-3.9424,-3.9424,-3.9424,-3.9424,-3.9424,-3.9424,-3.9424,-3.9424,-3.9424,-3.9424,-3.9424,-3.9424,-4.0023,-4.0591,-4.104,-4.2297,-4.312,-4.3329,-4.3329,-4.3329,-4.3329,-4.3329,-4.3329,-4.3329,-4.3329,-4.3329,-4.3329,-4.3329,-4.3329,-3.9424,-3.9424,-3.9424,-3.9424,-3.9424,-3.9424,-3.9424,-3.9387,-4.0123,-4.2754,-4.3277,-4.3329,-4.3329,-4.3329,-4.3329,-4.3329,-4.3329,-4.3329,-4.3329,-4.3329,-4.3329,-4.3329,-4.3329,-4.3329,-4.3329,-4.3329,-4.3296,-4.3334,-4.3361,-4.3359,-4.3303,-4.3283,-4.3329,-4.3329,-4.3329,-4.3259,-4.3285,-4.3259,-4.3322,-4.3285,-4.3259,-4.3293,-4.3265,-4.325,-4.3251,-4.304,-3.8479,-3.6457,-3.6405,-3.64,-3.6439,-3.6439,-3.6358,-3.6392,-3.638,-3.6358,-3.9363,-4.2969,-4.0646,-4.0421,-4.1095,-4.1465,-4.1587,-4.1587,-4.1587,-4.1587,-4.1026,-3.8175,-3.8087,-3.8794,-3.82,-3.849,-3.9145,-4.014,-3.9498,-3.8837,-3.9326,-3.9424,-3.9424,-3.9424,-3.9424,-3.9424,-3.9424,-3.9424,-3.9424,-3.9424,-3.9424,-3.9424,-3.9424,-3.9424,-3.9424,-3.9424,-3.9424,-3.9424,-3.9424,-4.0023,-4.0382,-4.0397,-4.1624,-4.2641,-4.3299,-4.3329,-4.3329,-4.3329,-4.3329,-4.3329,-4.3329,-4.3329,-4.3329,-4.3329,-4.3329,-4.3329,-3.9424,-3.9424,-3.9424,-3.9424,-3.9424,-3.9424,-3.9424,-3.9387,-4.0182,-4.2791,-4.3269,-4.3329,-4.3329,-4.3329,-4.3329,-4.3329,-4.3329,-4.3329,-4.3329,-4.3329,-4.3329,-4.3329,-4.3329,-4.3329,-4.3329,-4.3301,-4.3259,-4.3288,-4.5782,-4.6171,-4.343,-4.33,-4.3304,-4.3289,-4.3289,-4.3335,-4.332,-4.2408,-4.2408,-4.332,-4.3335,-4.328,-4.3203,-3.9935,-4.0182,-4.3199,-4.1857,-3.9441,-3.6366,-3.6442,-3.6414,-3.6373,-3.6395,-3.6392,-3.6379,-3.6427,-3.9334,-4.2867,-4.0054,-4.0611,-4.249,-4.1858,-4.1587,-4.1681,-4.2019,-4.1536,-4.0795,-4.0336,-4.04,-4.052,-3.9876,-3.9847,-4.0059,-4.0323,-3.9802,-3.9254,-3.9382,-3.9424,-3.9424,-3.9424,-3.9424,-3.9424,-3.9424,-3.9424,-3.9424,-3.9424,-3.9424,-3.9424,-3.9424,-3.9424,-3.9424,-3.9424,-3.9424,-3.9424,-3.9424,-3.9604,-3.9903,-4.0367,-4.0771,-4.1489,-4.2611,-4.309,-4.3329,-4.3329,-4.3329,-4.3329,-4.3329,-4.3329,-4.3329,-4.3329,-4.3329,-4.3329,-3.9387,-3.9429,-3.9424,-3.9424,-3.9424,-3.9382,-3.9414,-4.0218,-4.1384,-4.3007,-4.3307,-4.3274,-4.3314,-4.3329,-4.3329,-4.3329,-4.3329,-4.3329,-4.3329,-4.3329,-4.3329,-4.3329,-4.3329,-4.3329,-4.3329,-4.3274,-4.3948,-4.5473,-4.7725,-4.7987,-4.5706,-4.3619,-4.2574,-4.2592,-4.2516,-4.2758,-4.3273,-4.2531,-4.2002,-4.1731,-4.1761,-4.1758,-4.1685,-3.9939,-3.968,-4.0633,-4.2481,-4.1716,-3.8959,-3.7166,-3.6378,-3.6417,-3.6392,-3.6354,-3.6612,-3.8412,-4.029,-4.175,-4.0435,-4.1334,-4.2784,-4.1814,-4.1529,-4.1536,-4.1918,-4.1459,-4.0812,-4.0507,-4.0664,-4.0756,-3.9623,-3.9684,-4.0008,-4.0008,-3.9709,-3.9424,-3.9424,-3.9424,-3.9424,-3.9424,-3.9424,-3.9424,-3.9424,-3.9424,-3.9424,-3.9424,-3.9424,-3.9424,-3.9424,-3.9424,-3.9424,-3.9424,-3.9424,-3.9424,-3.9424,-3.9424,-3.9589,-3.9993,-4.0247,-4.0756,-4.1549,-4.2462,-4.3075,-4.3329,-4.3329,-4.3329,-4.3329,-4.3329,-4.3329,-4.3329,-4.3329,-4.3329,-3.9282,-3.9417,-3.9424,-3.9424,-3.9424,-3.9412,-3.9431,-4.1232,-4.2921,-4.2923,-4.315,-4.3331,-4.3319,-4.3299,-4.3299,-4.3329,-4.3329,-4.3329,-4.3329,-4.3314,-4.3299,-4.3299,-4.3269,-4.3319,-4.3337,-4.3318,-4.4755,-4.8348,-4.8616,-4.847,-4.8111,-4.3702,-4.1235,-4.1205,-4.1205,-4.1791,-4.2916,-4.2938,-4.1776,-3.9417,-3.9431,-3.9398,-3.9442,-4.1836,-4.0764,-3.7247,-4.1015,-4.2911,-4.2933,-3.8795,-3.7004,-3.703,-3.6751,-3.6681,-3.7167,-4.1346,-4.1651,-4.0191,-4.1336,-4.1978,-4.2147,-4.1564,-4.1384,-4.1369,-4.1309,-4.1294,-4.0994,-3.9357,-3.9576,-3.9936,-3.8379,-3.8708,-3.9424,-3.9424,-3.9424,-3.9424,-3.9424,-3.9424,-3.9424,-3.9424,-3.9424,-3.9424,-3.9424,-3.9424,-3.9424,-3.9424,-3.9424,-3.9424,-3.9424,-3.9424,-3.9424,-3.9424,-3.9424,-3.9424,-3.9424,-3.9424,-3.9424,-3.9424,-3.9978,-4.0337,-4.0397,-4.1669,-4.2641,-4.324,-4.3299,-4.3329,-4.3329,-4.3329,-4.3329,-4.3329,-4.3329,-4.3329,-3.8531,-3.9442,-3.9424,-3.9424,-3.9424,-3.9439,-3.9427,-3.9841,-4.0216,-4.0231,-4.1896,-4.3289,-4.3331,-4.3298,-4.3296,-4.3299,-4.3329,-4.3329,-4.3329,-4.3292,-4.3298,-4.3298,-4.3272,-4.3274,-4.3337,-4.3302,-4.3949,-4.5443,-4.557,-4.4315,-4.1588,-4.0445,-3.9802,-3.9828,-3.9843,-3.9961,-4.0212,-4.0272,-3.9961,-3.9427,-3.9414,-3.9371,-3.9415,-3.9949,-4.085,-4.1653,-3.9064,-3.9963,-4.3219,-4.2216,-4.1792,-4.158,-3.9578,-3.8726,-3.8795,-3.924,-4.0176,-4.1003,-4.0334,-4.051,-4.1128,-4.1354,-4.1384,-4.128,-4.0771,-4.0606,-4.0397,-3.9491,-3.9473,-3.9516,-3.9134,-3.9265,-3.9424,-3.9424,-3.9424,-3.9424,-3.9424,-3.9424,-3.9424,-3.9424,-3.9424,-3.9424,-3.9424,-3.9424,-3.9424,-3.9424,-3.9424,-3.9424,-3.9424,-3.9424,-3.9424,-3.9424,-3.9424,-3.9424,-3.9424,-3.9424,-3.9424,-3.9424,-3.9559,-3.9858,-4.0382,-4.1669,-4.2432,-4.2566,-4.3075,-4.3329,-4.3329,-4.3329,-4.3329,-4.3329,-4.3329,-4.3329,-3.8797,-3.94,-3.9424,-3.9424,-3.9424,-3.9424,-3.9424,-3.9424,-3.9427,-3.9417,-4.0487,-4.1445,-4.1396,-4.2438,-4.3304,-4.3301,-4.3331,-4.3331,-4.3331,-4.3272,-4.2817,-4.1622,-4.1413,-4.14,-4.1469,-4.2926,-4.4134,-4.4554,-4.3069,-4.1311,-3.9474,-3.937,-3.9429,-3.9409,-3.9424,-3.9424,-3.9424,-3.9424,-3.9424,-3.9424,-3.9424,-3.9424,-3.9367,-3.9427,-4.0154,-4.1298,-3.8874,-3.9225,-4.1418,-4.144,-4.142,-4.1295,-3.9902,-3.9427,-3.9445,-3.9463,-4.0193,-4.0994,-4.0238,-4.0244,-4.0517,-4.0502,-4.0442,-4.0382,-4.0038,-3.9933,-3.9858,-3.9514,-3.9424,-3.9424,-3.9424,-3.9424,-3.9424,-3.9424,-3.9424,-3.9424,-3.9424,-3.9424,-3.9424,-3.9424,-3.9424,-3.9424,-3.9424,-3.9424,-3.9424,-3.9424,-3.9424,-3.9424,-3.9424,-3.9424,-3.9424,-3.9424,-3.9424,-3.9424,-3.9424,-3.9424,-3.9424,-3.9424,-3.9424,-3.9574,-3.9918,-4.0891,-4.1713,-4.2434,-4.2701,-4.3015,-4.3329,-4.3329,-4.3329,-4.3329,-4.3771,-4.3989,-3.9372,-3.9387,-3.9424,-3.9424,-3.9424,-3.9424,-3.9424,-3.9424,-3.9424,-3.9424,-3.9371,-3.9387,-3.9429,-4.1175,-4.2667,-4.2637,-4.2637,-4.2637,-4.2637,-4.2607,-4.1791,-3.962,-3.9369,-3.9402,-3.9373,-4.2544,-4.4352,-4.3728,-4.1024,-3.9375,-3.9413,-3.9425,-3.9424,-3.9424,-3.9424,-3.9424,-3.9424,-3.9424,-3.9424,-3.9424,-3.9424,-3.9424,-3.9424,-3.943,-3.9416,-3.9386,-3.9367,-3.939,-3.9425,-3.9393,-3.9415,-3.9415,-3.9415,-3.9415,-3.9459,-4.0173,-4.0487,-4.0427,-4.0278,-4.0232,-4.0142,-3.9589,-3.9424,-3.9424,-3.9424,-3.9424,-3.9424,-3.9424,-3.9424,-3.9424,-3.9424,-3.9424,-3.9424,-3.9424,-3.9424,-3.9424,-3.9424,-3.9424,-3.9424,-3.9424,-3.9424,-3.9424,-3.9424,-3.9424,-3.9424,-3.9424,-3.9424,-3.9424,-3.9424,-3.9424,-3.9424,-3.9424,-3.9424,-3.9424,-3.9424,-3.9424,-3.9424,-3.9424,-3.9424,-3.9424,-3.9424,-3.9948,-4.0786,-4.1998,-4.2252,-4.2626,-4.3165,-4.3284,-4.3409,-4.3551,-4.445,-4.4887,-3.9427,-3.9397,-3.9424,-3.9424,-3.9424,-3.9424,-3.9424,-3.9424,-3.9424,-3.9424,-3.9382,-3.9414,-3.9387,-3.9669,-3.9951,-3.9948,-3.9917,-3.9917,-3.9917,-3.9951,-3.9802,-3.9447,-3.9372,-3.9418,-3.9429,-4.2553,-4.3368,-4.0328,-3.9671,-3.9436,-3.9403,-3.9379,-3.9424,-3.9424,-3.9424,-3.9424,-3.9424,-3.9424,-3.9424,-3.9424,-3.9424,-3.9424,-3.9424,-3.9382,-3.9369,-3.9371,-3.9399,-3.9429,-3.9415,-3.9414,-3.9384,-3.9384,-3.9384,-3.9384,-3.9384,-3.9531,-3.9546,-3.9546,-3.9559,-3.9544,-3.9544,-3.9454,-3.9424,-3.9424,-3.9424,-3.9424,-3.9424,-3.9424,-3.9424,-3.9424,-3.9424,-3.9424,-3.9424,-3.9424,-3.9424,-3.9424,-3.9424,-3.9424,-3.9424,-3.9424,-3.9424,-3.9424,-3.9424,-3.9424,-3.9424,-3.9424,-3.9424,-3.9424,-3.9424,-3.9424,-3.9424,-3.9424,-3.9424,-3.9424,-3.9424,-3.9424,-3.9424,-3.9424,-3.9424,-3.9424,-3.9424,-3.9514,-3.9903,-4.0651,-4.1788,-4.2402,-4.2491,-4.306,-4.3771,-4.4586,-4.4737,-4.5227,-3.9424,-3.9424,-3.9424,-3.9424,-3.9424,-3.9424,-3.9424,-3.9424,-3.9424,-3.9424,-3.9424,-3.9382,-3.9429,-3.9371,-3.9415,-3.9387,-3.9402,-3.9402,-3.9402,-3.9372,-3.9371,-3.9371,-3.9412,-3.9384,-3.939,-4.0786,-4.1071,-3.9504,-3.9373,-3.941,-3.9409,-3.9424,-3.9424,-3.9424,-3.9424,-3.9424,-3.9424,-3.9424,-3.9424,-3.9424,-3.9424,-3.9424,-3.9424,-3.9424,-3.9424,-3.9424,-3.9424,-3.9424,-3.9424,-3.9424,-3.9424,-3.9424,-3.9424,-3.9424,-3.9424,-3.9424,-3.9424,-3.9424,-3.9424,-3.9424,-3.9424,-3.9424,-3.9424,-3.9424,-3.9424,-3.9424,-3.9424,-3.9424,-3.9424,-3.9424,-3.9424,-3.9424,-3.9424,-3.9424,-3.9424,-3.9424,-3.9424,-3.9424,-3.9424,-3.9424,-3.9424,-3.9424,-3.9424,-3.9424,-3.9424,-3.9424,-3.9424,-3.9424,-3.9424,-3.9424,-3.9424,-3.9424,-3.9424,-3.9424,-3.9424,-3.9424,-3.9424,-3.9424,-3.9424,-3.9424,-3.9424,-3.9424,-3.9559,-3.9843,-4.0786,-4.1624,-4.2357,-4.3213,-4.3975,-4.4812,-4.585,-4.6609,-3.9424,-3.9376,-3.9429,-3.9379,-3.9376,-3.9373,-3.9379,-3.9424,-3.9424,-3.9424,-3.9424,-3.9424,-3.9424,-3.9424,-3.9424,-3.9424,-3.9424,-3.9424,-3.9424,-3.9424,-3.9424,-3.9424,-3.9424,-3.9388,-3.9412,-3.9425,-3.9373,-3.9397,-3.9369,-3.9424,-3.9424,-3.9424,-3.9424,-3.9424,-3.9424,-3.9424,-3.9424,-3.9424,-3.9424,-3.9424,-3.9424,-3.9424,-3.9424,-3.9424,-3.9424,-3.9424,-3.9424,-3.9424,-3.9424,-3.9424,-3.9424,-3.9424,-3.9424,-3.9424,-3.9424,-3.9424,-3.9424,-3.9424,-3.9424,-3.9424,-3.9424,-3.9424,-3.9424,-3.9424,-3.9424,-3.9424,-3.9424,-3.9424,-3.9424,-3.9424,-3.9424,-3.9424,-3.9424,-3.9424,-3.9424,-3.9424,-3.9424,-3.9424,-3.9424,-3.9424,-3.9424,-3.9424,-3.9424,-3.9424,-3.9424,-3.9424,-3.9424,-3.9424,-3.9424,-3.9424,-3.9424,-3.9424,-3.9424,-3.9424,-3.9424,-3.9424,-3.9424,-3.9424,-3.9424,-3.9424,-3.9424,-3.9424,-3.9424,-3.9424,-4.0091,-4.1051,-4.2214,-4.331,-4.4299,-4.5252,-4.6887,-4.7737,-3.9424,-3.9415,-3.939,-3.9418,-3.94,-3.9405,-3.9418,-3.9424,-3.9424,-3.9424,-3.9424,-3.9424,-3.9424,-3.9424,-3.9424,-3.9424,-3.9424,-3.9424,-3.9424,-3.9424,-3.9424,-3.9424,-3.9424,-3.9409,-3.9379,-3.9394,-3.9409,-3.9379,-3.9394,-3.9424,-3.9424,-3.9424,-3.9424,-3.9424,-3.9424,-3.9424,-3.9424,-3.9424,-3.9424,-3.9424,-3.9424,-3.9424,-3.9424,-3.9424,-3.9424,-3.9424,-3.9424,-3.9424,-3.9424,-3.9424,-3.9424,-3.9424,-3.9424,-3.9424,-3.9424,-3.9424,-3.9424,-3.9424,-3.9424,-3.9424,-3.9424,-3.9424,-3.9424,-3.9424,-3.9424,-3.9424,-3.9424,-3.9424,-3.9424,-3.9424,-3.9424,-3.9424,-3.9424,-3.9424,-3.9424,-3.9424,-3.9424,-3.9424,-3.9424,-3.9424,-3.9424,-3.9424,-3.9424,-3.9424,-3.9424,-3.9424,-3.9424,-3.9424,-3.9424,-3.9424,-3.9424,-3.9424,-3.9424,-3.9424,-3.9424,-3.9424,-3.9424,-3.9424,-3.9424,-3.9424,-3.9424,-3.9424,-3.9424,-3.9424,-4.0285,-4.104,-4.1727,-4.3138,-4.4677,-4.6405,-4.721,-4.808,-4.0738,-4.1093,-4.132,-4.2442,-4.107,-3.939,-3.9412,-3.941,-3.9424,-3.9424,-3.9424,-3.9424,-3.9424,-3.9424,-3.9424,-3.9424,-3.9424,-3.9424,-3.9424,-3.9424,-3.9424,-3.9424,-3.9424,-3.9424,-3.9424,-3.9424,-3.9424,-3.9424,-3.9424,-3.9424,-3.9424,-3.9424,-3.9424,-3.9424,-3.9424,-3.9424,-3.9424,-3.9424,-3.9424,-3.9424,-3.9424,-3.9424,-3.9424,-3.9424,-3.9424,-3.9424,-3.9424,-3.9424,-3.9424,-3.9424,-3.9424,-3.9424,-3.9424,-3.9424,-3.9424,-3.9424,-3.9424,-3.9424,-3.9424,-3.9424,-3.9424,-3.9424,-3.9424,-3.9424,-3.9424,-3.9424,-3.9424,-3.9424,-3.9424,-3.9424,-3.9424,-3.9424,-3.9424,-3.9424,-3.9424,-3.9424,-3.9424,-3.9424,-3.9424,-3.9424,-3.9424,-3.9424,-3.9424,-3.9424,-3.9424,-3.9424,-3.9424,-3.9424,-3.9424,-3.9424,-3.9424,-3.9424,-3.9424,-3.9424,-3.9424,-3.9424,-3.9424,-3.9424,-3.9424,-3.9424,-3.9424,-3.9424,-3.9666,-4.0239,-4.0554,-4.1031,-4.1674,-4.3862,-4.5439,-4.6551,-4.7892,-4.8656,-4.0824,-4.1432,-4.2145,-4.4121,-4.2858,-4.0872,-3.9656,-3.9373,-3.9384,-3.9379,-3.9424,-3.9424,-3.9424,-3.9424,-3.9424,-3.9424,-3.9424,-3.9424,-3.9424,-3.9424,-3.9424,-3.9424,-3.9424,-3.9424,-3.9424,-3.9424,-3.9424,-3.9424,-3.9424,0.0,-3.9424,-3.9424,-3.9424,-3.9424,-3.9424,-3.9424,-3.9424,-3.9424,-3.9424,-3.9424,-3.9424,-3.9424,-3.9424,-3.9424,-3.9424,-3.9424,-3.9424,-3.9424,-3.9424,-3.9424,-3.9424,-3.9424,-3.9424,-3.9424,-3.9424,-3.9424,-3.9424,-3.9424,-3.9424,-3.9424,-3.9424,-3.9424,-3.9424,-3.9424,-3.9424,-3.9424,-3.9424,-3.9424,-3.9424,-3.9424,-3.9424,-3.9424,-3.9424,-3.9424,-3.9424,-3.9424,-3.9424,-3.9424,-3.9424,-3.9424,-3.9424,-3.9424,-3.9424,-3.9424,-3.9424,-3.9424,-3.9424,-3.9424,-3.9424,-3.9424,-3.9424,-3.9424,-3.9424,-3.9424,-3.9424,-3.9424,-3.9424,-3.9424,-3.9424,-3.9424,-3.9424,-3.9424,-3.9793,-4.0675,-4.1013,-4.1516,-4.2256,-4.4186,-4.5653,-4.6666,-4.8012,-4.8765,0.0,0.0,0.0,-4.399,-4.4576,-4.3703,-4.0308,-3.9496,-3.9459,-3.9433,-3.9409,-3.9424,-3.9409,-3.9424,-3.9424,-3.9424,-3.9424,-3.9424,-3.9424,-3.9424,-3.9424,-3.9424,-3.9424,-3.9424,-3.9424,-3.9424,-3.9424,-3.9424,-3.9424,-3.9424,-3.9424,-3.9424,-3.9424,-3.9424,-3.9424,-3.9424,-3.9424,-3.9424,-3.9424,-3.9424,-3.9424,-3.9424,-3.9424,-3.9424,-3.9424,-3.9424,-3.9424,-3.9424,-3.9424,-3.9424,-3.9424,-3.9424,-3.9424,-3.9424,-3.9424,-3.9424,-3.9424,-3.9424,-3.9424,-3.9424,-3.9424,-3.9424,-3.9424,-3.9424,-3.9424,-3.9424,-3.9424,-3.9424,-3.9424,-3.9424,-3.9424,-3.9424,-3.9424,-3.9424,-3.9424,-3.9424,-3.9424,-3.9424,-3.9424,-3.9424,-3.9424,-3.9424,-3.9424,-3.9424,-3.9424,-3.9424,-3.9424,-3.9424,-3.9424,-3.9424,-3.9424,-3.9424,-3.9424,-3.9424,-3.9424,-3.9424,-3.9424,-3.9424,-3.9424,-3.9424,-3.9424,-3.9409,-3.9864,-4.0758,-4.1593,-4.2458,-4.3366,-4.4075,-4.5263,-4.6802,-4.7581,-4.8342,-4.0961,0.0,0.0,0.0,0.0,0.0,-4.2453,-4.1757,-4.1091,-4.047,-4.0378,-4.0115,-3.9553,-3.9424,-3.9424,-3.9424,-3.9424,-3.9424,-3.9424,-3.9424,-3.9424,-3.9424,-3.9424,-3.9424,-3.9424,-3.9424,-3.9424,0.0,-3.9424,-3.9424,-3.9424,-3.9424,-3.9424,-3.9424,-3.9424,-3.9424,-3.9424,-3.9424,-3.9424,-3.9424,-3.9424,-3.9424,-3.9424,-3.9424,-3.9424,-3.9424,-3.9424,-3.9424,-3.9424,-3.9424,-3.9424,-3.9424,-3.9424,-3.9424,-3.9424,-3.9424,-3.9424,-3.9424,-3.9424,-3.9424,-3.9424,-3.9424,-3.9424,-3.9424,-3.9424,-3.9424,-3.9424,-3.9424,-3.9424,-3.9424,-3.9424,-3.9424,-3.9424,-3.9424,-3.9424,-3.9424,-3.9424,-3.9424,-3.9424,-3.9424,-3.9424,-3.9424,-3.9424,-3.9424,-3.9424,-3.9424,-3.9424,-3.9424,-3.9424,-3.9424,-3.9424,-3.9424,-3.9424,-3.9424,-3.9424,-3.9424,-3.9424,-3.9424,-3.9424,-3.9424,-3.9424,-3.999,-4.0758,-4.1593,-4.252,-4.3366,-4.4253,-4.5009,-4.5866,-4.6819,-4.8105,-4.8815,-4.108,-4.1478,-4.1869,-4.3621,0.0,0.0,-4.2847,-4.2395,-4.1674,-4.0432,-4.0185,-3.999,-3.9481,-3.9424,-3.9424,-3.9424,-3.9424,-3.9424,-3.9424,-3.9424,-3.9424,-3.9424,-3.9424,-3.9424,-3.9424,-3.9424,-3.9424,-3.9424,-3.9424,-3.9424,-3.9424,-3.9424,-3.9424,-3.9424,-3.9424,-3.9424,-3.9424,-3.9424,-3.9424,-3.9424,-3.9424,-3.9424,-3.9424,-3.9424,-3.9424,-3.9424,-3.9424,-3.9424,-3.9424,-3.9424,-3.9424,-3.9424,-3.9424,-3.9424,-3.9424,-3.9424,-3.9424,-3.9424,-3.9424,-3.9424,-3.9424,-3.9424,-3.9424,-3.9424,-3.9424,-3.9424,-3.9424,-3.9424,-3.9424,-3.9424,-3.9424,-3.9424,-3.9424,-3.9424,-3.9424,-3.9424,-3.9424,-3.9424,-3.9424,-3.9424,-3.9424,-3.9424,-3.9424,-3.9424,-3.9424,-3.9424,-3.9424,-3.9424,-3.9424,-3.9424,-3.9424,-3.9424,-3.9424,-3.9424,-3.9424,-3.9424,-3.9424,-3.9424,-3.9424,-3.9424,-3.9424,-3.9864,-4.0774,-4.1997,-4.252,-4.3366,-4.4587,-4.501,-4.5771,-4.6819,-4.8003,-4.8714,-4.0432,-4.0743,-4.1213,-4.2909,-4.3366,0.0,-4.2458,-4.2316,-4.1804,-4.02,-3.9809,-3.9809,-3.9737,-3.9681,-3.9681,-3.9681,-3.961,-3.9481,-3.9409,-3.9424,-3.9424,-3.9424,-3.9424,-3.9424,-3.9424,-3.9424,-3.9424,-3.9424,-3.9424,-3.9424,-3.9424,-3.9424,-3.9424,-3.9424,-3.9424,-3.9424,-3.9424,-3.9424,-3.9424,-3.9424,-3.9424,-3.9424,-3.9424,-3.9424,-3.9424,-3.9424,-3.9424,-3.9424,-3.9424,-3.9424,-3.9424,-3.9424,-3.9424,-3.9424,-3.9424,-3.9424,-3.9424,-3.9424,-3.9424,-3.9424,-3.9424,-3.9424,-3.9424,-3.9424,-3.9424,-3.9424,-3.9424,-3.9424,-3.9424,-3.9424,-3.9424,-3.9424,-3.9424,-3.9424,-3.9424,-3.9424,-3.9424,-3.9424,-3.9424,-3.9424,-3.9424,-3.9424,-3.9424,-3.9424,-3.9424,-3.9424,-3.9424,-3.9424,-3.9424,-3.9424,-3.9424,-3.9424,-3.9424,-3.9424,-3.9424,-3.9424,-3.9424,-3.9424,-3.9424,-3.9424,-3.9424,-3.9481,-4.0324,-4.1997,-4.2189,-4.3031,-4.4587,-4.4654,-4.5432,-4.6802,-4.7564,-4.8308,-4.0432,-4.1213,-4.1997,-4.3047,-4.3814,0.0,-4.4121,-4.4121,-4.3798,-4.2785,-4.2537,-4.2332,-4.1609,-4.1478,-4.1478,-4.1478,-4.0894,-4.017,-3.9481,-3.9424,-3.9424,-3.9424,-3.9424,-3.9424,-3.9424,-3.9424,-3.9424,-3.9424,-3.9424,-3.9424,-3.9424,-3.9424,-3.9424,-3.9424,-3.9424,-3.9424,-3.9424,-3.9424,-3.9424,-3.9424,-3.9424,-3.9424,-3.9424,-3.9424,-3.9424,-3.9424,-3.9424,-3.9424,-3.9424,-3.9424,-3.9424,-3.9424,-3.9424,-3.9424,-3.9424,-3.9424,-3.9424,-3.9424,-3.9424,-3.9424,-3.9424,-3.9424,-3.9424,-3.9424,-3.9424,-3.9424,-3.9424,-3.9424,-3.9424,-3.9424,-3.9424,-3.9424,-3.9424,-3.9424,-3.9424,-3.9424,-3.9424,-3.9424,-3.9424,-3.9424,-3.9424,-3.9424,-3.9424,-3.9424,-3.9424,-3.9424,-3.9424,-3.9424,-3.9424,-3.9424,-3.9424,-3.9424,-3.9424,-3.9424,-3.9424,-3.9424,-3.9424,-3.9424,-3.9424,-3.9424,-3.9424,-4.0045,-4.0961,-4.1997,-4.335,-4.4253,-4.4587,-4.5196,-4.594,-4.6802,-4.7564,-4.8308,-4.0432,-4.1346,-4.2189,-4.3108,-4.3948,0.0,0.0,-4.3948,-4.368,-4.2847,-4.2645,-4.252,-4.2062,-4.1997,-4.1997,-4.1997,-4.128,-4.069,-4.0706,-3.9935,-3.9424,-3.9424,-3.9424,-3.9424,-3.9424,-3.9424,-3.9424,-3.9424,-3.9424,-3.9424,-3.9424,-3.9424,-3.9424,-3.9424,-3.9424,-3.9424,-3.9424,-3.9424,-3.9424,-3.9424,-3.9424,-3.9424,-3.9424,-3.9424,-3.9424,-3.9424,-3.9424,-3.9424,-3.9424,-3.9424,-3.9424,-3.9424,-3.9424,-3.9424,-3.9424,-3.9424,-3.9424,-3.9424,-3.9424,-3.9424,-3.9424,-3.9424,-3.9424,-3.9424,-3.9424,-3.9424,-3.9424,-3.9424,-3.9424,-3.9424,-3.9424,-3.9424,-3.9424,-3.9424,-3.9424,-3.9424,-3.9424,-3.9424,-3.9424,-3.9424,-3.9424,-3.9424,-3.9424,-3.9424,-3.9424,-3.9424,-3.9424,-3.9424,-3.9424,-3.9424,-3.9424,-3.9424,-3.9424,-3.9424,-3.9424,-3.9424,-3.9424,-3.9424,-3.9424,-3.9424,-3.9424,-3.9793,-4.0638,-4.1997,-4.3722,-4.4587,-4.4587,-4.4959,-4.572,-4.6802,-4.7175,-4.7953,-4.0239,-4.1095,-4.1933,-4.2645,-4.3545,-4.4196,0.0,0.0,0.0,-4.2645,-4.2504,-4.2504,-4.2504,-4.2504,-4.2456,-4.231,-4.1644,-4.143,-4.1949,-4.0816,-3.9864,-3.9864,-3.961,-3.9481,-3.961,-3.9666,-3.961,-3.9409,-3.9538,-3.961,-3.9424,-3.9424,-3.9424,-3.9424,-3.9424,-3.9424,-3.9424,-3.9424,-3.9424,-3.9424,-3.9424,-3.9424,-3.9424,-3.9424,-3.9424,-3.9424,-3.9424,-3.9424,-3.9424,-3.9424,-3.9424,-3.9424,-3.9424,-3.9424,-3.9424,-3.9424,-3.9424,-3.9424,-3.9424,-3.9424,-3.9424,-3.9424,-3.9424,-3.9424,-3.9424,-3.9424,-3.9424,-3.9424,-3.9424,-3.9424,-3.9424,-3.9424,-3.9424,-3.9424,-3.9424,-3.9424,-3.9424,-3.9424,-3.9424,-3.9424,-3.9424,-3.9424,-3.9424,-3.9424,-3.9424,-3.9424,-3.9424,-3.9424,-3.9424,-3.9424,-3.9424,-3.9424,-3.9424,-3.9424,-3.9424,-3.9424,-3.9424,-3.9424,-3.9538,-3.961,-3.9424,-3.9737,-4.0585,-4.1997,-4.3722,-4.4587,-4.4587,-4.4587,-4.5348,-4.6786,-4.6786,-4.7581,-3.9538,-4.0185,-4.0878,-4.0946,-4.2252,-4.3426,-4.3306,0.0,-4.444,-4.4327,0.0,-4.431,-4.431,0.0,0.0,-4.3345,-4.3115,-4.2818,-4.2239,-4.1929,-4.1674,-4.1674,-4.0324,-3.9666,-4.05,-4.0554,-4.0239,-3.9481,-4.0115,-4.0255,-3.9409,-3.9424,-3.9424,-3.9424,-3.9424,-3.9424,-3.9424,-3.9424,-3.9424,-3.9424,-3.9424,-3.9424,-3.9424,-3.9424,-3.9424,-3.9424,-3.9424,-3.9424,-3.9424,-3.9424,-3.9424,-3.9424,-3.9424,-3.9424,-3.9424,-3.9424,-3.9424,-3.9424,-3.9424,-3.9424,-3.9424,-3.9424,-3.9424,-3.9424,-3.9424,-3.9424,-3.9424,-3.9424,-3.9424,-3.9424,-3.9424,-3.9424,-3.9424,-3.9424,-3.9424,-3.9424,-3.9424,-3.9424,-3.9424,-3.9424,-3.9424,-3.9424,-3.9424,-3.9424,-3.9424,-3.9424,-3.9424,-3.9424,-3.9424,-3.9424,-3.9424,-3.9424,-3.9424,-3.9424,-3.9424,-3.9424,-3.9424,-3.9424,-4.0115,-4.0185,-3.9409,-4.0894,-4.1804,-4.1997,-4.3722,-4.4587,-4.4587,-4.4587,-4.5348,-4.6786,-4.6786,-4.7581,-3.9305,-4.006,-4.069,-4.069,-4.1609,-4.2645,-4.3169,-4.3562,-4.4006,-4.4514,0.0,0.0,0.0,0.0,0.0,0.0,-4.3673,-4.3386,-4.3588,-4.2635,-4.1997,-4.1997,-4.1346,0.0,-4.0675,-4.0334,-3.9726,-3.8882,-3.9237,-3.9143,-3.8242,-3.8257,-3.8257,-3.8257,-3.8257,-3.8257,-3.8257,-3.8631,-3.8826,-3.8826,-3.923,-3.9424,-3.9424,-3.9424,-3.9424,-3.9424,-3.9424,-3.9424,-3.9424,-3.9424,-3.9424,-3.9424,-3.9424,-3.9424,-3.9424,-3.9424,-3.9424,-3.9424,-3.9424,-3.9424,-3.9424,-3.9424,-3.9424,-3.9424,-3.9424,-3.9424,-3.9424,-3.9424,-3.9424,-3.9424,-3.9424,-3.9424,-3.9424,-3.9424,-3.9424,-3.9424,-3.9424,-3.9424,-3.9424,-3.9424,-3.9424,-3.9424,-3.9424,-3.9424,-3.9424,-3.9424,-3.9424,-3.9424,-3.9424,-3.9424,-3.9424,-3.9424,-3.9424,-3.9424,-3.9424,-3.9424,-3.9424,-3.9424,-4.0239,-4.0758,-4.0894,-4.2078,-4.2785,-4.2785,-4.3989,-4.4587,-4.4587,-4.4587,-4.5348,-4.6786,-4.6786,-4.7581,-3.8945,-3.9576,-4.0185,-4.0576,-4.1346,-4.2252,-4.3108,-4.3486,-4.3814,-4.4457,-4.4587,0.0,0.0,0.0,-4.4502,-4.4299,0.0,-4.3739,-4.3939,-4.3039,-4.2398,-4.2398,-4.1973,-4.1405,0.0,-4.0208,-3.9586,-3.8508,-3.8758,-3.8481,-3.7473,-3.7404,-3.7404,-3.7404,-3.7404,-3.7404,-3.7404,-3.7883,-3.8123,-3.8123,-3.8631,-3.896,-3.914,-3.914,-3.9245,-3.9424,-3.9424,-3.9424,-3.9424,-3.9424,-3.9424,-3.9424,-3.9424,-3.9424,-3.9424,-3.9424,-3.9424,-3.9424,-3.9424,-3.9424,-3.9424,-3.9424,-3.9424,-3.9424,-3.9424,-3.9424,-3.9424,-3.9424,-3.9424,-3.9424,-3.9424,-3.9424,-3.9424,-3.9424,-3.9424,-3.9424,-3.9424,-3.9424,-3.9424,-3.9424,-3.9424,-3.9424,-3.9424,-3.9424,-3.9424,-3.9424,-3.9424,-3.9424,-3.9424,-3.9424,-3.9424,-3.9424,-3.9424,-3.9424,-3.9424,-3.9424,-3.961,-4.006,-4.05,-4.1213,-4.2316,-4.297,-4.3306,-4.3306,-4.4138,-4.4587,-4.4587,-4.4587,-4.5348,-4.6786,-4.6786,-4.7581,-3.8242,-3.8422,-3.8837,-4.0331,-4.1346,-4.2252,-4.3108,-4.3948,-4.457,-4.457,-4.4587,-4.4587,-4.4587,-4.4587,-4.4333,-4.3589,-4.4079,0.0,0.0,-4.2926,-4.3344,-4.3344,-4.1953,-4.0743,0.0,-4.0534,-4.028,-3.8707,-3.9361,-3.9141,-3.7473,-3.7404,-3.7404,-3.7404,-3.7404,-3.7404,-3.7404,-3.7434,-3.7434,-3.7434,-3.7464,-3.7808,-3.8422,-3.8422,-3.8796,-3.9424,-3.9424,-3.9424,-3.9424,-3.9424,-3.9424,-3.9424,-3.9424,-3.9424,-3.9424,-3.9424,-3.9424,-3.9424,-3.9424,-3.9424,-3.9424,-3.9424,-3.9424,-3.9424,-3.9424,-3.9424,-3.9424,-3.9424,-3.9424,-3.9424,-3.9424,-3.9424,-3.9424,-3.9424,-3.9424,-3.9424,-3.9424,-3.9424,-3.9424,-3.9424,-3.9424,-3.9424,-3.9424,-3.9424,-3.9424,-3.9424,-3.9424,-3.9424,-3.9424,-3.9424,-3.9424,-3.9424,-3.9424,-3.9424,-3.9424,-3.9424,-4.013,-4.1804,-4.1147,-4.1478,-4.3185,-4.3306,-4.3306,-4.3306,-4.4138,-4.4587,-4.4587,-4.4587,-4.5348,-4.6786,-4.6786,-4.7581,0.0,0.0,-3.7967,-3.8946,0.0,-4.0132,-4.2029,-4.2645,-4.3031,-4.3621,-4.4196,-4.444,-4.3873,-4.4196,-4.4485,-4.4231,-4.3978,-4.3623,0.0,-4.2405,-4.1948,-4.1948,-4.1377,-4.091,-4.0619,-3.9946,-3.9077,-3.8042,-3.7795,-3.725,-3.6214,-3.6148,-3.6148,-3.6148,-3.6148,-3.6148,-3.6148,-3.6582,-3.6791,-3.6806,-3.721,-3.7524,-3.7749,-3.7749,-3.7868,-3.8108,-3.8556,-3.8736,-3.8781,-3.923,-3.9424,-3.9424,-3.9424,-3.9424,-3.9424,-3.9424,-3.9424,-3.9424,-3.9424,-3.9424,-3.9424,-3.9424,-3.9424,-3.9424,-3.9424,-3.9424,-3.9424,-3.9424,-3.9424,-3.9424,-3.9424,-3.9424,-3.9424,-3.9424,-3.9424,-3.9424,-3.9424,-3.9424,-3.9424,-3.9424,-3.9424,-3.9424,-3.9424,-3.9424,-3.9424,-3.9424,-3.9424,-3.9424,-3.9424,-3.9424,-3.9424,-3.9424,-3.9424,-3.9424,-3.9424,-3.9424,-4.013,-4.1869,-4.1723,-4.2316,-4.4064,-4.4138,-4.4138,-4.4138,-4.4457,-4.4587,-4.4587,-4.5077,-4.5838,-4.6802,-4.731,-4.8071,-3.6911,-3.709,0.0,-3.8266,-3.8485,0.0,-4.1134,0.0,-4.1884,-4.2658,-4.329,-4.3486,-4.2909,-4.329,-4.3714,-4.3712,-4.3317,-4.287,0.0,-4.1576,-4.0798,-4.0798,-4.0749,-4.0564,-4.0252,-3.9673,-3.8695,-3.7328,-3.7093,-3.6585,-3.5554,-3.5504,-3.5504,-3.5504,-3.5504,-3.5504,-3.5504,-3.5923,-3.6133,-3.6148,-3.6552,-3.6851,-3.709,-3.709,-3.721,-3.7434,-3.7853,-3.8167,-3.8422,-3.8871,-3.92,-3.9424,-3.9424,-3.9424,-3.9424,-3.9424,-3.9424,-3.9424,-3.9424,-3.9424,-3.9424,-3.9424,-3.9424,-3.9424,-3.9424,-3.9424,-3.9424,-3.9424,-3.9424,-3.9424,-3.9424,-3.9424,-3.9424,-3.9424,-3.9424,-3.9424,-3.9424,-3.9424,-3.9424,-3.9424,-3.9424,-3.9424,-3.9424,-3.9424,-3.9424,-3.9424,-3.9424,-3.9424,-3.9424,-3.9424,-3.9424,-3.9424,-3.9424,-3.9553,-3.9864,-3.9864,-4.0585,-4.2332,-4.2458,-4.3092,-4.457,-4.4587,-4.4705,-4.4976,-4.4722,-4.484,-4.5365,-4.5602,-4.621,-4.7208,-4.7699,-4.8308]}]]